[[{"header":{"parameterUnit":"m.s-1","parameterCategory":1,"la1":31.0,"la2":29.5877,"lo1":-88.7671,"lo2":-86.6584,"dy":0.0162,"dx":0.0185,"nx":115,"ny":88,"refTime":"2023-09-21T00:00:00:Z","depth":0,"parameterNumber":2,"parameterNumberName":"U-component_of_WINDS"},"data":[0.0,0.0,0.0,0.0,0.0,0.0,0.0,0.0,0.0,0.0,0.0,0.0,0.0,0.0,0.0,0.0,0.0,0.0,0.0,0.0,0.0,0.0,0.0,0.0,0.0,0.0,0.0,0.0,0.0,0.0,0.0,0.0,0.0,0.0,0.0,0.0,0.0,0.0,0.0,0.0,0.0,0.0,0.0,0.0,0.0,0.0,0.0,0.0,0.0,0.0,0.0,0.0,0.0,0.0,0.0,0.0,0.0,0.0,0.0,0.0,0.0,0.0,0.0,0.0,0.0,0.0,0.0,0.0,0.0,0.0,0.0,0.0,0.0,0.0,0.0,0.0,0.0,0.0,0.0,0.0,0.0,0.0,0.0,0.0,0.0,0.0,0.0,0.0,0.0,0.0,0.0,0.0,0.0,0.0,0.0,0.0,0.0,0.0,0.0,0.0,0.0,0.0,0.0,0.0,0.0,0.0,0.0,0.0,0.0,0.0,0.0,0.0,0.0,0.0,0.0,0.0,0.0,0.0,0.0,0.0,0.0,0.0,0.0,0.0,0.0,0.0,0.0,0.0,0.0,0.0,0.0,0.0,0.0,0.0,0.0,0.0,0.0,0.0,0.0,0.0,0.0,0.0,0.0,0.0,0.0,0.0,0.0,0.0,0.0,0.0,0.0,0.0,0.0,0.0,0.0,0.0,0.0,0.0,0.0,0.0,0.0,0.0,0.0,0.0,0.0,0.0,0.0,0.0,0.0,0.0,0.0,0.0,0.0,0.0,0.0,0.0,0.0,0.0,0.0,0.0,0.0,0.0,0.0,0.0,0.0,0.0,0.0,0.0,0.0,0.0,0.0,0.0,0.0,0.0,0.0,0.0,0.0,0.0,0.0,0.0,0.0,0.0,0.0,0.0,0.0,0.0,0.0,0.0,0.0,0.0,0.0,0.0,0.0,0.0,0.0,0.0,0.0,0.0,0.0,0.0,0.0,0.0,0.0,0.0,0.0,0.0,0.0,0.0,0.0,0.0,0.0,0.0,0.0,0.0,0.0,0.0,0.0,0.0,0.0,0.0,0.0,0.0,0.0,0.0,0.0,0.0,0.0,0.0,0.0,0.0,0.0,0.0,0.0,0.0,0.0,0.0,0.0,0.0,0.0,0.0,0.0,0.0,0.0,0.0,0.0,0.0,0.0,0.0,0.0,0.0,0.0,0.0,0.0,0.0,0.0,0.0,0.0,0.0,0.0,0.0,0.0,0.0,0.0,0.0,0.0,0.0,0.0,0.0,0.0,0.0,0.0,0.0,0.0,0.0,0.0,0.0,0.0,0.0,0.0,0.0,0.0,0.0,0.0,0.0,0.0,0.0,0.0,0.0,0.0,0.0,0.0,0.0,0.0,0.0,0.0,0.0,0.0,0.0,0.0,0.0,0.0,0.0,0.0,0.0,0.0,0.0,0.0,0.0,0.0,0.0,0.0,0.0,0.0,0.0,0.0,0.0,0.0,0.0,0.0,0.0,0.0,0.0,0.0,0.0,0.0,0.0,0.0,0.0,0.0,0.0,0.0,0.0,0.0,0.0,0.0,0.0,0.0,0.0,0.0,0.0,0.0,0.0,0.0,0.0,0.0,0.0,0.0,0.0,0.0,0.0,0.0,0.0,0.0,0.0,0.0,0.0,0.0,0.0,0.0,0.0,0.0,0.0,0.0,0.0,0.0,0.0,0.0,0.0,0.0,0.0,0.0,0.0,0.0,0.0,0.0,0.0,0.0,0.0,0.0,0.0,0.0,0.0,0.0,0.0,0.0,0.0,0.0,0.0,0.0,0.0,0.0,0.0,0.0,0.0,0.0,0.0,0.0,0.0,0.0,0.0,0.0,0.0,0.0,0.0,0.0,0.0,0.0,0.0,0.0,0.0,0.0,0.0,0.0,0.0,0.0,0.0,0.0,0.0,0.0,0.0,0.0,0.0,0.0,0.0,0.0,0.0,0.0,0.0,0.0,0.0,0.0,0.0,0.0,0.0,0.0,0.0,0.0,0.0,0.0,0.0,0.0,0.0,0.0,0.0,0.0,0.0,0.0,0.0,0.0,0.0,0.0,0.0,0.0,0.0,0.0,0.0,0.0,0.0,0.0,0.0,0.0,0.0,0.0,0.0,0.0,0.0,0.0,0.0,0.0,0.0,0.0,0.0,0.0,0.0,0.0,0.0,0.0,0.0,0.0,0.0,0.0,0.0,0.0,0.0,0.0,0.0,0.0,0.0,0.0,0.0,0.0,0.0,0.0,0.0,0.0,0.0,0.0,0.0,0.0,0.0,0.0,0.0,0.0,0.0,0.0,0.0,0.0,0.0,0.0,0.0,0.0,0.0,0.0,0.0,0.0,0.0,0.0,0.0,0.0,0.0,0.0,0.0,0.0,0.0,0.0,0.0,0.0,0.0,0.0,0.0,0.0,0.0,0.0,0.0,0.0,0.0,0.0,0.0,0.0,0.0,0.0,0.0,0.0,0.0,0.0,0.0,0.0,0.0,0.0,0.0,0.0,0.0,0.0,0.0,0.0,0.0,0.0,0.0,0.0,0.0,0.0,0.0,0.0,0.0,0.0,0.0,0.0,0.0,0.0,0.0,0.0,0.0,0.0,0.0,0.0,0.0,0.0,0.0,0.0,0.0,0.0,0.0,0.0,0.0,0.0,0.0,0.0,0.0,0.0,0.0,0.0,0.0,0.0,0.0,0.0,0.0,0.0,0.0,0.0,0.0,0.0,0.0,0.0,0.0,0.0,0.0,0.0,0.0,0.0,0.0,0.0,0.0,0.0,0.0,0.0,0.0,0.0,0.0,0.0,0.0,0.0,0.0,0.0,0.0,0.0,0.0,0.0,0.0,0.0,0.0,0.0,0.0,0.0,0.0,0.0,0.0,0.0,0.0,0.0,0.0,0.0,0.0,0.0,0.0,0.0,0.0,0.0,0.0,0.0,0.0,0.0,0.0,0.0,0.0,0.0,0.0,0.0,0.0,0.0,0.0,0.0,0.0,0.0,0.0,0.0,0.0,0.0,0.0,0.0,0.0,0.0,0.0,0.0,0.0,0.0,0.0,0.0,0.0,0.0,0.0,0.0,0.0,0.0,0.0,0.0,0.0,0.0,0.0,0.0,0.0,0.0,0.0,0.0,0.0,0.0,0.0,0.0,0.0,0.0,0.0,0.0,0.0,0.0,0.0,0.0,0.0,0.0,0.0,0.0,0.0,0.0,0.0,0.0,0.0,0.0,0.0,0.0,0.0,0.0,0.0,0.0,0.0,0.0,0.0,0.0,0.0,0.0,0.0,0.0,0.0,0.0,0.0,0.0,0.0,0.0,0.0,0.0,0.0,0.0,0.0,0.0,0.0,0.0,0.0,0.0,0.0,0.0,0.0,0.0,0.0,0.0,0.0,0.0,0.0,0.0,0.0,0.0,0.0,0.0,0.0,0.0,0.0,0.0,0.0,0.0,0.0,0.0,0.0,0.0,0.0,0.0,0.0,0.0,0.0,0.0,0.0,0.0,0.0,0.0,0.0,0.0,0.0,0.0,0.0,0.0,0.0,0.0,0.0,0.0,0.0,0.0,0.0,0.0,0.0,0.0,0.0,0.0,0.0,0.0,0.0,0.0,0.0,0.0,0.0,0.0,0.0,0.0,0.0,0.0,0.0,0.0,0.0,0.0,0.0,0.0,0.0,0.0,0.0,0.0,0.0,0.0,0.0,0.0,0.0,0.0,0.0,0.0,0.0,0.0,0.0,0.0,0.0,0.0,0.0,0.0,0.0,0.0,0.0,0.0,0.0,0.0,0.0,0.0,0.0,0.0,0.0,0.0,0.0,0.0,0.0,0.0,0.0,0.0,0.0,0.0,0.0,0.0,0.0,0.0,0.0,0.0,0.0,0.0,0.0,0.0,0.0,0.0,0.0,0.0,0.0,0.0,0.0,0.0,0.0,0.0,0.0,0.0,0.0,0.0,0.0,0.0,0.0,0.0,0.0,0.0,0.0,0.0,0.0,0.0,0.0,0.0,0.0,0.0,0.0,0.0,0.0,0.0,0.0,0.0,0.0,0.0,0.0,0.0,0.0,0.0,0.0,0.0,0.0,0.0,0.0,0.0,0.0,0.0,0.0,0.0,0.0,0.0,0.0,0.0,0.0,0.0,0.0,0.0,0.0,0.0,0.0,0.0,0.0,0.0,0.0,0.0,0.0,0.0,0.0,0.0,0.0,0.0,0.0,0.0,0.0,0.0,0.0,0.0,0.0,0.0,0.0,-4.4641,0.0,0.0,0.0,0.0,0.0,0.0,0.0,0.0,0.0,0.0,0.0,0.0,0.0,0.0,0.0,0.0,0.0,0.0,0.0,0.0,0.0,0.0,0.0,0.0,0.0,0.0,0.0,0.0,0.0,0.0,0.0,0.0,0.0,0.0,0.0,0.0,0.0,0.0,0.0,0.0,0.0,0.0,0.0,0.0,0.0,0.0,0.0,0.0,0.0,0.0,0.0,0.0,0.0,0.0,0.0,0.0,0.0,0.0,0.0,0.0,0.0,0.0,0.0,0.0,0.0,0.0,0.0,0.0,0.0,0.0,0.0,0.0,0.0,0.0,0.0,0.0,0.0,0.0,0.0,0.0,0.0,0.0,0.0,0.0,0.0,0.0,0.0,0.0,0.0,0.0,0.0,0.0,0.0,0.0,0.0,0.0,0.0,0.0,0.0,0.0,0.0,0.0,0.0,0.0,0.0,0.0,0.0,0.0,0.0,0.0,-4.598,-4.6066,-4.6122,-4.5967,-4.5579,0.0,0.0,0.0,0.0,0.0,0.0,0.0,0.0,0.0,0.0,0.0,0.0,0.0,0.0,0.0,0.0,0.0,0.0,0.0,0.0,0.0,0.0,0.0,0.0,0.0,0.0,0.0,0.0,0.0,0.0,0.0,0.0,0.0,0.0,0.0,0.0,0.0,0.0,0.0,0.0,0.0,0.0,0.0,0.0,0.0,0.0,0.0,0.0,0.0,0.0,0.0,0.0,0.0,0.0,0.0,0.0,0.0,0.0,0.0,0.0,0.0,0.0,0.0,0.0,0.0,0.0,0.0,0.0,0.0,0.0,0.0,0.0,0.0,0.0,0.0,0.0,0.0,0.0,0.0,0.0,0.0,0.0,0.0,0.0,0.0,0.0,0.0,0.0,0.0,0.0,0.0,0.0,0.0,0.0,0.0,0.0,0.0,0.0,0.0,0.0,0.0,0.0,0.0,0.0,0.0,0.0,0.0,0.0,0.0,0.0,0.0,0.0,-4.618,-4.622,-4.6193,0.0,0.0,0.0,0.0,0.0,0.0,0.0,0.0,0.0,0.0,0.0,0.0,0.0,0.0,0.0,0.0,0.0,0.0,0.0,0.0,0.0,0.0,0.0,0.0,0.0,0.0,0.0,0.0,0.0,0.0,0.0,0.0,0.0,0.0,0.0,0.0,0.0,0.0,0.0,0.0,0.0,0.0,0.0,0.0,0.0,0.0,0.0,0.0,0.0,0.0,0.0,0.0,0.0,0.0,0.0,0.0,0.0,0.0,0.0,0.0,0.0,0.0,0.0,0.0,0.0,0.0,0.0,0.0,0.0,0.0,0.0,0.0,0.0,0.0,0.0,0.0,0.0,0.0,0.0,0.0,0.0,0.0,0.0,0.0,0.0,0.0,0.0,0.0,0.0,0.0,0.0,0.0,0.0,0.0,0.0,0.0,0.0,0.0,0.0,0.0,0.0,0.0,0.0,0.0,0.0,0.0,0.0,0.0,0.0,0.0,-4.6189,-4.6192,-4.6253,0.0,-4.6288,0.0,0.0,0.0,0.0,0.0,0.0,0.0,0.0,0.0,0.0,0.0,0.0,0.0,0.0,0.0,0.0,0.0,0.0,0.0,0.0,0.0,0.0,0.0,0.0,0.0,0.0,0.0,0.0,0.0,0.0,0.0,0.0,0.0,0.0,0.0,0.0,0.0,0.0,0.0,0.0,0.0,0.0,0.0,0.0,0.0,0.0,0.0,0.0,0.0,0.0,0.0,0.0,0.0,0.0,0.0,0.0,0.0,0.0,0.0,0.0,0.0,0.0,0.0,0.0,0.0,0.0,0.0,0.0,0.0,0.0,0.0,0.0,0.0,0.0,0.0,0.0,0.0,0.0,0.0,0.0,0.0,0.0,0.0,0.0,0.0,0.0,0.0,0.0,0.0,0.0,0.0,0.0,0.0,0.0,0.0,0.0,0.0,0.0,0.0,0.0,0.0,0.0,0.0,0.0,0.0,0.0,0.0,0.0,0.0,0.0,-4.6209,-4.6272,-4.6293,-4.6306,0.0,0.0,0.0,0.0,0.0,0.0,0.0,0.0,0.0,0.0,0.0,0.0,0.0,0.0,0.0,0.0,0.0,0.0,0.0,0.0,0.0,0.0,0.0,0.0,0.0,0.0,0.0,0.0,0.0,0.0,0.0,0.0,0.0,0.0,0.0,0.0,0.0,0.0,0.0,0.0,0.0,0.0,0.0,0.0,0.0,0.0,0.0,0.0,0.0,0.0,0.0,0.0,0.0,0.0,0.0,0.0,0.0,0.0,0.0,0.0,0.0,0.0,0.0,0.0,0.0,0.0,0.0,0.0,0.0,0.0,0.0,0.0,0.0,0.0,0.0,0.0,0.0,0.0,0.0,0.0,0.0,0.0,0.0,0.0,0.0,0.0,0.0,0.0,0.0,0.0,0.0,0.0,0.0,0.0,0.0,0.0,0.0,0.0,0.0,0.0,0.0,0.0,0.0,0.0,0.0,0.0,0.0,0.0,0.0,0.0,-4.6215,-4.6262,-4.6294,-4.6287,-4.6289,-4.6306,0.0,0.0,0.0,0.0,0.0,0.0,0.0,0.0,0.0,0.0,0.0,0.0,0.0,0.0,0.0,0.0,0.0,0.0,0.0,0.0,0.0,0.0,0.0,0.0,0.0,0.0,0.0,0.0,0.0,0.0,0.0,0.0,0.0,0.0,0.0,0.0,0.0,0.0,0.0,0.0,0.0,0.0,0.0,0.0,0.0,0.0,0.0,0.0,0.0,0.0,0.0,0.0,0.0,0.0,0.0,0.0,0.0,0.0,0.0,0.0,0.0,0.0,0.0,0.0,0.0,0.0,0.0,0.0,0.0,0.0,0.0,0.0,0.0,0.0,0.0,0.0,0.0,0.0,0.0,0.0,0.0,0.0,0.0,0.0,0.0,0.0,0.0,0.0,0.0,0.0,0.0,0.0,0.0,0.0,0.0,0.0,0.0,0.0,0.0,0.0,0.0,0.0,0.0,0.0,0.0,0.0,0.0,0.0,-4.6201,-4.6275,-4.6294,-4.6289,-4.6289,-4.6306,0.0,0.0,0.0,0.0,0.0,0.0,0.0,0.0,0.0,0.0,0.0,0.0,0.0,0.0,0.0,0.0,0.0,0.0,0.0,0.0,0.0,0.0,0.0,0.0,0.0,0.0,0.0,0.0,0.0,0.0,0.0,0.0,0.0,0.0,0.0,0.0,0.0,0.0,0.0,0.0,0.0,0.0,0.0,0.0,0.0,0.0,0.0,0.0,0.0,0.0,0.0,0.0,0.0,0.0,0.0,0.0,0.0,0.0,0.0,0.0,0.0,0.0,0.0,0.0,0.0,0.0,0.0,0.0,0.0,0.0,0.0,0.0,0.0,0.0,0.0,0.0,0.0,0.0,0.0,0.0,0.0,0.0,0.0,0.0,0.0,0.0,0.0,0.0,0.0,0.0,0.0,0.0,0.0,0.0,0.0,0.0,0.0,0.0,0.0,0.0,0.0,0.0,0.0,0.0,0.0,0.0,0.0,0.0,0.0,-4.6257,-4.6299,-4.6287,-4.6289,-4.6304,-4.6293,0.0,0.0,0.0,0.0,0.0,0.0,0.0,0.0,0.0,0.0,0.0,0.0,0.0,0.0,0.0,0.0,0.0,0.0,0.0,0.0,0.0,0.0,0.0,0.0,0.0,0.0,0.0,0.0,0.0,0.0,0.0,0.0,0.0,0.0,0.0,0.0,0.0,0.0,0.0,0.0,0.0,0.0,0.0,0.0,0.0,0.0,0.0,0.0,0.0,0.0,0.0,0.0,0.0,0.0,0.0,0.0,0.0,0.0,0.0,0.0,0.0,0.0,0.0,0.0,0.0,0.0,0.0,0.0,0.0,0.0,0.0,0.0,0.0,0.0,0.0,0.0,0.0,0.0,0.0,0.0,0.0,0.0,0.0,0.0,0.0,0.0,0.0,0.0,0.0,0.0,0.0,0.0,0.0,0.0,0.0,0.0,0.0,0.0,0.0,0.0,0.0,0.0,0.0,0.0,0.0,0.0,0.0,0.0,0.0,-4.6296,0.0,-4.6288,0.0,-4.6293,-4.6294,0.0,0.0,0.0,0.0,0.0,0.0,0.0,0.0,0.0,0.0,0.0,0.0,0.0,0.0,0.0,0.0,0.0,0.0,0.0,0.0,0.0,0.0,0.0,0.0,0.0,0.0,0.0,0.0,0.0,0.0,0.0,0.0,0.0,0.0,0.0,0.0,0.0,0.0,0.0,0.0,0.0,0.0,0.0,0.0,0.0,0.0,0.0,0.0,0.0,0.0,0.0,0.0,0.0,0.0,0.0,0.0,0.0,0.0,0.0,0.0,0.0,0.0,0.0,0.0,0.0,0.0,0.0,0.0,0.0,0.0,0.0,0.0,0.0,0.0,0.0,0.0,0.0,0.0,0.0,0.0,0.0,0.0,0.0,0.0,0.0,0.0,0.0,0.0,0.0,0.0,0.0,0.0,0.0,0.0,0.0,0.0,0.0,0.0,0.0,0.0,0.0,0.0,0.0,0.0,0.0,0.0,0.0,0.0,-4.6296,-4.6289,-4.6288,-4.6301,-4.6302,-4.63,-4.626,0.0,0.0,0.0,0.0,0.0,0.0,0.0,0.0,0.0,0.0,0.0,0.0,0.0,0.0,0.0,0.0,0.0,0.0,0.0,0.0,0.0,0.0,0.0,0.0,0.0,0.0,0.0,0.0,0.0,0.0,0.0,0.0,0.0,0.0,0.0,0.0,0.0,0.0,0.0,0.0,0.0,0.0,0.0,0.0,0.0,0.0,0.0,0.0,0.0,0.0,0.0,0.0,0.0,0.0,0.0,0.0,0.0,0.0,0.0,0.0,0.0,0.0,0.0,0.0,0.0,0.0,0.0,0.0,0.0,0.0,0.0,0.0,0.0,0.0,0.0,0.0,0.0,0.0,0.0,0.0,0.0,0.0,0.0,0.0,0.0,0.0,0.0,0.0,0.0,0.0,0.0,0.0,0.0,0.0,0.0,0.0,0.0,0.0,0.0,0.0,0.0,0.0,0.0,0.0,0.0,0.0,0.0,0.0,0.0,-4.6288,-4.6303,-4.6294,-4.6302,-4.6247,-4.6203,0.0,0.0,0.0,0.0,0.0,0.0,0.0,0.0,0.0,0.0,0.0,0.0,0.0,0.0,0.0,0.0,0.0,0.0,0.0,0.0,0.0,0.0,0.0,0.0,0.0,0.0,0.0,0.0,0.0,0.0,0.0,0.0,0.0,0.0,0.0,0.0,0.0,0.0,0.0,0.0,0.0,0.0,0.0,0.0,0.0,0.0,0.0,0.0,0.0,0.0,0.0,0.0,0.0,0.0,0.0,0.0,0.0,0.0,0.0,0.0,0.0,0.0,0.0,0.0,0.0,0.0,0.0,0.0,0.0,0.0,0.0,0.0,0.0,0.0,0.0,0.0,0.0,0.0,0.0,0.0,0.0,0.0,0.0,0.0,0.0,0.0,0.0,0.0,0.0,0.0,0.0,0.0,0.0,0.0,0.0,0.0,0.0,0.0,0.0,0.0,0.0,0.0,0.0,0.0,0.0,0.0,0.0,0.0,0.0,-4.6303,-4.6295,-4.6303,-4.6271,-4.6206,-4.6196,-4.6177,0.0,0.0,0.0,0.0,0.0,0.0,0.0,0.0,0.0,0.0,0.0,0.0,0.0,0.0,0.0,0.0,0.0,0.0,0.0,0.0,0.0,0.0,0.0,0.0,0.0,0.0,0.0,0.0,0.0,0.0,0.0,0.0,0.0,0.0,0.0,0.0,0.0,0.0,0.0,0.0,0.0,0.0,0.0,0.0,0.0,0.0,0.0,0.0,0.0,0.0,0.0,0.0,0.0,0.0,0.0,0.0,0.0,0.0,0.0,0.0,0.0,0.0,0.0,0.0,0.0,0.0,0.0,0.0,0.0,0.0,0.0,0.0,0.0,0.0,0.0,0.0,0.0,0.0,0.0,0.0,0.0,0.0,0.0,0.0,0.0,0.0,0.0,0.0,0.0,0.0,0.0,0.0,0.0,0.0,0.0,0.0,0.0,0.0,0.0,0.0,0.0,0.0,0.0,0.0,0.0,0.0,0.0,0.0,-4.6291,-4.6303,-4.6271,-4.6209,-4.6196,-4.6181,0.0,0.0,0.0,0.0,0.0,0.0,0.0,0.0,0.0,0.0,0.0,0.0,0.0,0.0,0.0,0.0,0.0,0.0,0.0,0.0,0.0,0.0,0.0,0.0,0.0,0.0,0.0,0.0,0.0,0.0,0.0,0.0,0.0,0.0,0.0,0.0,0.0,0.0,0.0,0.0,0.0,0.0,0.0,0.0,0.0,0.0,0.0,0.0,0.0,0.0,0.0,0.0,0.0,0.0,0.0,0.0,0.0,0.0,0.0,0.0,0.0,0.0,0.0,0.0,0.0,0.0,0.0,0.0,0.0,0.0,0.0,0.0,0.0,0.0,0.0,0.0,0.0,0.0,0.0,0.0,0.0,0.0,0.0,0.0,0.0,0.0,0.0,0.0,0.0,0.0,0.0,0.0,0.0,0.0,0.0,0.0,0.0,0.0,0.0,0.0,0.0,0.0,0.0,0.0,0.0,0.0,0.0,0.0,0.0,-4.6294,-4.6262,-4.6214,-4.6206,-4.6196,-4.6181,0.0,0.0,0.0,0.0,0.0,0.0,0.0,0.0,0.0,0.0,0.0,0.0,0.0,0.0,0.0,0.0,0.0,0.0,0.0,0.0,0.0,0.0,0.0,0.0,0.0,0.0,0.0,0.0,0.0,0.0,0.0,0.0,0.0,0.0,0.0,0.0,0.0,0.0,0.0,0.0,0.0,0.0,0.0,0.0,0.0,0.0,0.0,0.0,0.0,0.0,0.0,0.0,0.0,0.0,0.0,0.0,0.0,0.0,0.0,0.0,0.0,0.0,0.0,0.0,0.0,0.0,0.0,0.0,0.0,0.0,0.0,0.0,0.0,0.0,0.0,0.0,0.0,0.0,0.0,0.0,0.0,0.0,0.0,0.0,0.0,0.0,0.0,0.0,0.0,0.0,0.0,0.0,0.0,0.0,0.0,0.0,0.0,0.0,0.0,0.0,0.0,0.0,0.0,0.0,0.0,0.0,0.0,0.0,-4.6296,-4.6303,-4.6233,-4.6203,-4.6198,-4.618,-4.6142,0.0,0.0,0.0,0.0,0.0,0.0,0.0,0.0,0.0,0.0,0.0,0.0,0.0,0.0,0.0,0.0,0.0,0.0,0.0,0.0,0.0,0.0,0.0,0.0,0.0,0.0,0.0,0.0,0.0,0.0,0.0,0.0,0.0,0.0,0.0,0.0,0.0,0.0,0.0,0.0,0.0,0.0,0.0,0.0,0.0,0.0,0.0,0.0,0.0,0.0,0.0,0.0,0.0,0.0,0.0,0.0,0.0,0.0,0.0,0.0,0.0,0.0,0.0,0.0,0.0,0.0,0.0,0.0,0.0,0.0,0.0,0.0,0.0,0.0,0.0,0.0,0.0,0.0,0.0,0.0,0.0,0.0,0.0,0.0,0.0,0.0,0.0,0.0,0.0,0.0,0.0,0.0,0.0,0.0,0.0,0.0,0.0,0.0,0.0,0.0,0.0,0.0,0.0,0.0,0.0,0.0,0.0,0.0,-4.6296,-4.6303,-4.6233,-4.6198,-4.62,-4.615,-4.6113,0.0,0.0,0.0,0.0,0.0,0.0,0.0,0.0,0.0,0.0,0.0,0.0,0.0,0.0,0.0,0.0,0.0,0.0,0.0,0.0,0.0,0.0,0.0,0.0,0.0,0.0,0.0,0.0,0.0,0.0,0.0,0.0,0.0,0.0,0.0,0.0,0.0,0.0,0.0,0.0,0.0,0.0,0.0,0.0,0.0,0.0,0.0,0.0,0.0,0.0,0.0,0.0,0.0,0.0,0.0,0.0,0.0,0.0,0.0,0.0,0.0,0.0,0.0,0.0,0.0,0.0,0.0,0.0,0.0,0.0,0.0,0.0,0.0,0.0,0.0,0.0,0.0,0.0,0.0,0.0,0.0,0.0,0.0,0.0,0.0,0.0,0.0,0.0,0.0,0.0,0.0,0.0,0.0,0.0,0.0,0.0,0.0,0.0,0.0,0.0,0.0,0.0,0.0,0.0,0.0,0.0,0.0,0.0,-4.6273,-4.6214,-4.6209,-4.6209,-4.6204,-4.6134,-4.6108,0.0,0.0,0.0,0.0,0.0,0.0,0.0,0.0,0.0,0.0,0.0,0.0,0.0,0.0,0.0,0.0,0.0,0.0,0.0,0.0,0.0,0.0,0.0,0.0,0.0,0.0,0.0,0.0,0.0,0.0,0.0,0.0,0.0,0.0,0.0,0.0,0.0,0.0,0.0,0.0,0.0,0.0,0.0,0.0,0.0,0.0,0.0,0.0,-4.5866,0.0,0.0,0.0,0.0,0.0,0.0,0.0,0.0,0.0,0.0,0.0,0.0,0.0,0.0,0.0,0.0,0.0,0.0,0.0,0.0,0.0,0.0,0.0,0.0,0.0,0.0,0.0,0.0,0.0,0.0,0.0,0.0,0.0,0.0,0.0,0.0,0.0,0.0,0.0,0.0,0.0,0.0,0.0,0.0,0.0,0.0,0.0,0.0,0.0,0.0,0.0,0.0,0.0,0.0,0.0,0.0,0.0,0.0,0.0,-4.6271,-4.6209,-4.6206,-4.6206,-4.6209,-4.6145,-4.608,0.0,0.0,0.0,0.0,0.0,0.0,0.0,0.0,0.0,0.0,0.0,0.0,0.0,0.0,0.0,0.0,0.0,0.0,0.0,0.0,0.0,0.0,0.0,0.0,0.0,0.0,0.0,0.0,0.0,0.0,0.0,0.0,0.0,0.0,0.0,0.0,0.0,0.0,0.0,0.0,0.0,0.0,0.0,0.0,0.0,0.0,0.0,0.0,0.0,0.0,0.0,0.0,0.0,0.0,0.0,0.0,0.0,0.0,0.0,0.0,0.0,0.0,0.0,0.0,0.0,0.0,0.0,0.0,0.0,0.0,0.0,0.0,0.0,0.0,0.0,0.0,0.0,0.0,0.0,0.0,0.0,0.0,0.0,0.0,0.0,0.0,0.0,0.0,0.0,0.0,0.0,0.0,0.0,0.0,0.0,0.0,0.0,0.0,0.0,0.0,0.0,0.0,0.0,0.0,0.0,0.0,0.0,-4.6302,-4.6271,-4.6209,-4.6206,-4.6206,-4.6209,-4.6145,-4.6075,-4.5997,0.0,0.0,0.0,0.0,0.0,0.0,0.0,0.0,0.0,0.0,0.0,0.0,0.0,0.0,0.0,0.0,0.0,0.0,0.0,0.0,0.0,0.0,0.0,0.0,0.0,0.0,0.0,0.0,0.0,0.0,0.0,0.0,0.0,0.0,0.0,0.0,0.0,0.0,-4.6199,-4.6258,0.0,0.0,0.0,0.0,0.0,0.0,0.0,0.0,-4.5472,0.0,0.0,0.0,0.0,0.0,0.0,0.0,0.0,0.0,0.0,0.0,0.0,0.0,0.0,0.0,0.0,0.0,0.0,0.0,0.0,0.0,0.0,0.0,0.0,0.0,0.0,0.0,0.0,0.0,0.0,0.0,0.0,0.0,0.0,0.0,0.0,0.0,0.0,0.0,0.0,0.0,0.0,0.0,0.0,0.0,0.0,0.0,0.0,0.0,0.0,0.0,0.0,0.0,0.0,0.0,0.0,-4.6302,-4.6302,-4.6271,-4.6209,-4.6206,-4.6206,-4.6209,-4.6126,-4.6085,-4.6008,0.0,0.0,0.0,0.0,0.0,0.0,0.0,0.0,0.0,0.0,0.0,0.0,0.0,0.0,0.0,0.0,0.0,0.0,0.0,0.0,0.0,0.0,0.0,0.0,0.0,0.0,0.0,0.0,0.0,0.0,0.0,0.0,0.0,0.0,0.0,0.0,0.0,0.0,0.0,-4.6253,-4.6294,0.0,0.0,0.0,0.0,0.0,0.0,0.0,0.0,-4.5565,0.0,0.0,0.0,0.0,0.0,0.0,0.0,0.0,0.0,0.0,0.0,0.0,0.0,0.0,0.0,0.0,0.0,0.0,0.0,0.0,0.0,0.0,0.0,0.0,0.0,0.0,0.0,0.0,0.0,0.0,0.0,0.0,0.0,0.0,0.0,0.0,0.0,0.0,0.0,0.0,0.0,0.0,0.0,0.0,0.0,0.0,0.0,0.0,0.0,0.0,0.0,0.0,0.0,0.0,0.0,-4.6302,-4.6302,-4.6271,-4.6209,-4.6206,-4.6206,-4.6209,-4.6145,-4.6085,0.0,0.0,0.0,0.0,0.0,0.0,0.0,0.0,0.0,0.0,0.0,0.0,0.0,0.0,0.0,0.0,0.0,0.0,0.0,0.0,0.0,0.0,0.0,0.0,0.0,0.0,0.0,0.0,0.0,0.0,0.0,0.0,0.0,0.0,0.0,0.0,0.0,0.0,0.0,0.0,-4.6264,-4.6299,-4.6301,0.0,0.0,0.0,0.0,0.0,0.0,-4.6108,-4.5779,0.0,0.0,0.0,0.0,0.0,0.0,0.0,0.0,0.0,0.0,0.0,0.0,0.0,0.0,0.0,0.0,0.0,0.0,0.0,0.0,0.0,0.0,0.0,0.0,0.0,0.0,0.0,0.0,0.0,0.0,0.0,0.0,0.0,0.0,0.0,0.0,0.0,0.0,0.0,0.0,0.0,0.0,0.0,0.0,0.0,0.0,0.0,0.0,0.0,0.0,0.0,0.0,0.0,0.0,0.0,-4.6302,-4.6302,-4.6271,-4.6209,-4.6206,-4.6206,-4.6216,-4.6149,-4.6075,0.0,0.0,0.0,0.0,0.0,0.0,0.0,0.0,0.0,0.0,0.0,0.0,0.0,0.0,0.0,0.0,0.0,0.0,0.0,0.0,0.0,0.0,0.0,0.0,0.0,0.0,0.0,0.0,0.0,0.0,0.0,0.0,0.0,0.0,0.0,0.0,0.0,0.0,0.0,0.0,0.0,-4.6301,-4.6301,-4.6289,0.0,0.0,0.0,0.0,-4.6134,-4.6122,0.0,0.0,0.0,0.0,0.0,0.0,0.0,0.0,0.0,0.0,0.0,0.0,0.0,0.0,0.0,0.0,0.0,0.0,0.0,0.0,0.0,0.0,0.0,0.0,0.0,0.0,0.0,0.0,0.0,0.0,0.0,0.0,0.0,0.0,0.0,0.0,0.0,0.0,0.0,0.0,0.0,0.0,0.0,0.0,0.0,0.0,0.0,0.0,0.0,0.0,0.0,0.0,0.0,0.0,0.0,0.0,-4.6302,-4.6302,-4.6271,-4.6209,-4.6206,-4.6212,-4.6196,-4.6138,-4.6084,0.0,0.0,0.0,0.0,0.0,0.0,0.0,0.0,0.0,0.0,0.0,0.0,0.0,0.0,0.0,0.0,0.0,0.0,0.0,0.0,0.0,0.0,0.0,0.0,0.0,0.0,0.0,0.0,0.0,0.0,0.0,0.0,0.0,0.0,0.0,0.0,0.0,0.0,0.0,0.0,0.0,-4.6301,-4.6301,-4.6289,-4.6279,0.0,0.0,-4.6212,-4.6193,-4.6149,0.0,0.0,0.0,0.0,0.0,0.0,0.0,0.0,0.0,0.0,0.0,0.0,0.0,0.0,0.0,0.0,0.0,0.0,0.0,0.0,0.0,0.0,0.0,0.0,0.0,0.0,0.0,0.0,0.0,0.0,0.0,0.0,0.0,0.0,0.0,0.0,0.0,0.0,0.0,0.0,0.0,0.0,0.0,0.0,0.0,0.0,0.0,0.0,0.0,0.0,0.0,0.0,0.0,0.0,0.0,-4.6302,-4.6302,-4.6302,-4.6294,-4.6258,-4.6231,-4.6198,-4.6213,-4.6177,-4.6145,0.0,0.0,0.0,0.0,0.0,0.0,0.0,0.0,0.0,0.0,0.0,0.0,0.0,0.0,0.0,0.0,0.0,0.0,0.0,0.0,0.0,0.0,0.0,0.0,0.0,0.0,0.0,0.0,0.0,0.0,0.0,0.0,0.0,0.0,0.0,0.0,0.0,0.0,0.0,0.0,0.0,0.0,-4.6301,-4.6289,0.0,0.0,0.0,-4.6215,-4.6212,0.0,0.0,0.0,0.0,0.0,0.0,0.0,0.0,0.0,0.0,0.0,0.0,0.0,0.0,0.0,0.0,0.0,0.0,0.0,0.0,0.0,0.0,0.0,0.0,0.0,0.0,0.0,0.0,0.0,0.0,0.0,0.0,0.0,0.0,0.0,0.0,0.0,0.0,0.0,0.0,0.0,0.0,0.0,0.0,0.0,0.0,0.0,0.0,0.0,0.0,0.0,0.0,0.0,0.0,0.0,0.0,0.0,-4.6302,-4.6302,-4.6296,-4.6303,-4.6238,-4.6203,-4.6206,-4.6212,0.0,0.0,0.0,0.0,0.0,0.0,0.0,0.0,0.0,0.0,0.0,0.0,0.0,0.0,0.0,0.0,0.0,0.0,0.0,0.0,0.0,0.0,0.0,0.0,0.0,0.0,0.0,-4.6289,0.0,0.0,0.0,0.0,0.0,0.0,0.0,0.0,0.0,0.0,0.0,0.0,0.0,0.0,-4.6301,-4.6301,-4.6289,-4.63,0.0,0.0,-4.6198,-4.6209,-4.6154,-4.6117,0.0,0.0,0.0,0.0,0.0,0.0,0.0,0.0,0.0,0.0,0.0,0.0,0.0,0.0,0.0,0.0,0.0,0.0,0.0,0.0,0.0,0.0,0.0,0.0,0.0,0.0,0.0,0.0,0.0,0.0,0.0,0.0,0.0,0.0,0.0,0.0,0.0,0.0,0.0,0.0,0.0,0.0,0.0,0.0,0.0,0.0,0.0,0.0,0.0,0.0,0.0,0.0,0.0,0.0,0.0,-4.6302,-4.6302,-4.6296,-4.6303,-4.6303,-4.6272,-4.6206,-4.6206,-4.6208,0.0,0.0,0.0,0.0,0.0,0.0,0.0,0.0,0.0,0.0,0.0,0.0,0.0,0.0,0.0,0.0,0.0,0.0,0.0,0.0,0.0,0.0,0.0,0.0,0.0,0.0,0.0,0.0,0.0,0.0,0.0,0.0,0.0,0.0,0.0,0.0,0.0,0.0,0.0,0.0,0.0,-4.6301,-4.6301,-4.6289,-4.63,0.0,0.0,-4.6203,-4.6206,-4.6212,-4.6177,-4.6117,0.0,0.0,0.0,0.0,0.0,0.0,0.0,0.0,0.0,0.0,0.0,0.0,0.0,0.0,0.0,0.0,0.0,0.0,0.0,0.0,0.0,0.0,0.0,0.0,0.0,0.0,0.0,0.0,0.0,0.0,0.0,0.0,0.0,0.0,0.0,0.0,0.0,0.0,0.0,0.0,0.0,0.0,0.0,0.0,0.0,0.0,0.0,0.0,0.0,0.0,0.0,0.0,0.0,-4.6302,-4.6302,-4.6302,-4.6298,-4.6294,-4.6288,-4.6299,-4.6272,-4.6228,-4.6206,0.0,0.0,0.0,0.0,0.0,0.0,0.0,0.0,0.0,0.0,0.0,0.0,0.0,0.0,0.0,0.0,0.0,0.0,0.0,0.0,0.0,0.0,0.0,0.0,0.0,0.0,0.0,0.0,-4.6299,-4.6293,-4.6302,0.0,0.0,0.0,0.0,0.0,0.0,0.0,0.0,0.0,0.0,-4.6301,-4.6301,-4.6289,0.0,0.0,-4.6236,-4.6206,-4.6201,-4.6203,-4.6205,-4.6158,-4.6137,0.0,0.0,0.0,0.0,0.0,0.0,0.0,0.0,0.0,0.0,0.0,0.0,0.0,0.0,0.0,0.0,0.0,0.0,0.0,0.0,0.0,0.0,0.0,0.0,0.0,0.0,0.0,0.0,0.0,0.0,0.0,0.0,0.0,0.0,0.0,0.0,0.0,0.0,0.0,0.0,0.0,0.0,0.0,0.0,0.0,0.0,0.0,0.0,0.0,0.0,0.0,0.0,-4.6302,-4.6302,-4.6302,-4.6302,-4.6302,-4.6294,-4.6288,-4.6303,-4.6248,-4.6212,0.0,0.0,0.0,0.0,0.0,0.0,0.0,0.0,0.0,0.0,0.0,0.0,0.0,0.0,0.0,0.0,0.0,0.0,0.0,0.0,0.0,0.0,0.0,0.0,0.0,0.0,0.0,0.0,-4.6293,-4.6303,-4.6296,0.0,0.0,0.0,0.0,0.0,0.0,0.0,0.0,0.0,0.0,-4.6301,-4.6301,-4.6289,-4.6305,-4.6302,-4.6262,-4.6236,-4.6209,-4.6196,-4.6204,-4.6209,0.0,0.0,0.0,0.0,0.0,0.0,0.0,0.0,0.0,0.0,0.0,0.0,0.0,0.0,0.0,0.0,0.0,0.0,0.0,0.0,0.0,0.0,0.0,0.0,0.0,0.0,0.0,0.0,0.0,0.0,0.0,0.0,0.0,0.0,0.0,0.0,0.0,0.0,0.0,0.0,0.0,0.0,0.0,0.0,0.0,0.0,0.0,0.0,0.0,0.0,0.0,0.0,0.0,0.0,-4.6302,-4.6302,-4.6302,-4.6302,-4.63,-4.6296,-4.6306,-4.6303,-4.626,-4.6206,0.0,0.0,0.0,0.0,0.0,0.0,0.0,0.0,0.0,0.0,0.0,0.0,0.0,0.0,0.0,0.0,0.0,0.0,0.0,0.0,0.0,0.0,0.0,0.0,0.0,0.0,-4.6301,-4.6303,-4.6306,0.0,0.0,0.0,0.0,0.0,0.0,0.0,0.0,0.0,0.0,-4.6288,-4.6295,-4.6301,-4.6288,-4.6289,-4.6303,-4.6291,-4.6273,-4.6211,-4.6215,-4.6213,0.0,0.0,0.0,0.0,0.0,0.0,0.0,0.0,0.0,0.0,0.0,0.0,0.0,0.0,0.0,0.0,0.0,0.0,0.0,0.0,0.0,0.0,0.0,0.0,0.0,0.0,0.0,0.0,-4.6289,0.0,0.0,0.0,0.0,0.0,0.0,0.0,0.0,0.0,0.0,0.0,-4.6301,-4.6301,0.0,0.0,0.0,0.0,0.0,0.0,0.0,0.0,0.0,0.0,0.0,0.0,-4.6296,-4.6296,-4.6296,-4.6296,-4.6296,-4.6296,-4.6293,-4.6305,-4.63,-4.6269,-4.6209,0.0,0.0,0.0,0.0,0.0,0.0,0.0,0.0,0.0,0.0,0.0,0.0,0.0,0.0,0.0,0.0,0.0,0.0,0.0,0.0,0.0,0.0,0.0,0.0,0.0,-4.63,0.0,0.0,0.0,0.0,0.0,0.0,0.0,0.0,0.0,0.0,0.0,-4.629,-4.629,-4.6305,-4.6295,-4.6301,-4.6288,-4.6289,0.0,0.0,0.0,0.0,0.0,0.0,0.0,0.0,0.0,0.0,0.0,0.0,0.0,0.0,-4.4618,-4.3137,-4.2833,-4.25,-4.154,0.0,0.0,0.0,0.0,0.0,0.0,0.0,0.0,0.0,0.0,0.0,0.0,0.0,0.0,0.0,0.0,-4.6288,0.0,0.0,0.0,0.0,0.0,0.0,0.0,0.0,-4.6306,-4.6305,-4.6306,-4.6306,-4.6306,0.0,-4.6306,-4.6306,0.0,0.0,0.0,0.0,0.0,0.0,0.0,0.0,-4.6301,-4.6301,-4.6301,-4.6301,-4.6301,-4.6301,-4.63,-4.6296,-4.6293,-4.6284,-4.6228,-4.6236,-4.6226,0.0,0.0,0.0,0.0,0.0,0.0,0.0,0.0,0.0,0.0,0.0,0.0,0.0,0.0,0.0,0.0,0.0,0.0,0.0,0.0,0.0,0.0,0.0,-4.6288,0.0,0.0,0.0,0.0,0.0,0.0,0.0,0.0,0.0,-4.6206,-4.6233,-4.626,-4.626,-4.6294,-4.6288,-4.6295,0.0,0.0,0.0,0.0,0.0,0.0,0.0,-4.6236,-4.6203,-4.6198,-4.6203,-4.6215,-4.6174,-4.613,-4.6147,0.0,0.0,-4.4065,-4.3763,-4.3459,-4.2517,-4.2275,-4.2022,-4.1346,-4.116,-4.0979,0.0,0.0,0.0,0.0,0.0,0.0,0.0,0.0,-4.634,-4.634,0.0,-4.6301,0.0,0.0,0.0,0.0,0.0,0.0,0.0,0.0,-4.6289,-4.6289,-4.6289,-4.6289,-4.6289,-4.6289,-4.6289,-4.6289,-4.6288,-4.6288,0.0,0.0,0.0,0.0,0.0,0.0,-4.6302,-4.6303,-4.6303,-4.6302,-4.6303,-4.6302,-4.6302,-4.6301,-4.6301,-4.6299,-4.6293,-4.6305,-4.6257,-4.6208,-4.6197,0.0,0.0,0.0,0.0,0.0,0.0,0.0,0.0,0.0,0.0,0.0,0.0,0.0,0.0,0.0,0.0,0.0,0.0,0.0,0.0,-4.6294,0.0,0.0,0.0,0.0,0.0,0.0,0.0,0.0,0.0,0.0,-4.6198,-4.6206,-4.6206,-4.6206,0.0,0.0,0.0,0.0,-4.63,-4.6289,-4.6289,-4.6288,-4.6297,-4.6288,-4.6259,-4.621,0.0,0.0,-4.6206,-4.6213,-4.6212,-4.6212,-4.613,-4.5822,-4.4907,-4.4704,-4.435,-4.3524,-4.3219,-4.3156,-4.3055,-4.2763,-4.2431,-4.9798,0.0,0.0,0.0,0.0,-4.8187,-4.7723,-4.7164,-4.716,-4.6834,-4.6288,-4.6299,0.0,0.0,0.0,0.0,0.0,0.0,-4.6305,-4.6305,-4.6305,-4.6305,-4.6305,-4.6305,-4.6305,-4.6305,-4.6305,-4.6305,-4.6304,-4.6306,-4.6288,-4.6288,0.0,0.0,0.0,0.0,-4.6288,-4.6288,-4.6288,-4.6288,-4.6288,-4.6289,-4.6289,-4.6306,-4.6303,-4.6301,-4.63,-4.6299,-4.6296,-4.6274,-4.6273,0.0,0.0,0.0,0.0,0.0,0.0,0.0,0.0,0.0,0.0,0.0,0.0,0.0,0.0,0.0,0.0,0.0,0.0,0.0,-4.6293,-4.6253,-4.6209,0.0,0.0,0.0,0.0,0.0,0.0,0.0,0.0,0.0,-4.6135,-4.617,-4.6212,0.0,0.0,-4.624,-4.6298,-4.6303,-4.6291,-4.6304,0.0,0.0,0.0,-4.6303,-4.6295,-4.6269,-4.6234,-4.6197,-4.6203,-4.6198,-4.6206,-4.6196,-4.6165,-4.6049,-4.5784,-4.5647,-4.5283,-4.446,-4.4193,-4.3909,-4.3261,-4.3015,-4.286,-5.0567,-4.9624,-4.9387,-4.9278,-4.9237,-4.8912,-4.849,-4.7992,-4.7643,-4.7223,-4.6757,-4.6399,-4.6267,-4.6267,-4.627,0.0,0.0,0.0,-4.6276,-4.6276,-4.6256,-4.6276,-4.6256,-4.6276,-4.6276,-4.6276,-4.6276,-4.6274,-4.6272,-4.6272,-4.627,-4.6267,0.0,0.0,-4.6301,-4.6301,-4.6301,-4.6301,-4.6301,-4.6301,-4.6301,-4.6304,-4.6287,-4.6289,-4.6289,-4.6289,-4.6289,-4.6288,-4.6288,-4.6288,-4.6307,-4.6305,0.0,0.0,0.0,0.0,0.0,0.0,0.0,0.0,0.0,0.0,0.0,-4.6296,-4.6306,0.0,0.0,0.0,-4.6301,-4.6288,-4.6264,-4.6223,0.0,0.0,0.0,0.0,0.0,0.0,0.0,-4.6119,-4.6075,-4.6071,-4.6104,-4.6138,-4.6169,-4.6203,-4.62,-4.6217,-4.626,0.0,-4.6257,-4.6293,-4.6301,-4.6305,-4.6288,-4.6289,-4.6306,-4.6301,-4.6273,-4.6239,-4.6245,-4.6243,-4.6214,-4.6209,-4.62,-4.619,-4.615,-4.6102,-4.5915,-4.5297,-4.5112,-4.4851,-4.428,-4.4108,-4.391,-5.1088,-5.1022,-5.0358,-5.0087,-5.0017,-4.9235,-4.8904,-4.8828,-4.8044,-4.7624,-4.7449,-4.6652,-4.6265,-4.6209,-4.6201,0.0,0.0,-4.62,-4.62,-4.62,-4.62,-4.62,-4.62,-4.62,-4.62,-4.62,-4.62,-4.6195,-4.6204,-4.6204,-4.6197,-4.6206,-4.6266,-4.6299,-4.63,-4.6299,-4.63,-4.63,-4.6299,-4.63,-4.63,-4.63,-4.63,-4.6301,-4.6301,-4.6301,-4.6301,-4.6305,-4.6306,-4.6307,-4.6289,-4.6289,-4.6288,0.0,0.0,0.0,0.0,0.0,0.0,0.0,0.0,0.0,0.0,0.0,0.0,0.0,0.0,0.0,-4.6288,0.0,-4.6206,-4.6206,0.0,0.0,0.0,-4.6089,-4.6084,-4.6085,-4.6071,-4.6071,0.0,0.0,0.0,0.0,-4.611,-4.6173,-4.6197,-4.6199,-4.62,-4.6215,-4.6233,-4.6275,-4.6298,-4.6305,-4.6278,-4.6304,-4.6288,-4.6288,-4.6305,-4.63,-4.6288,-4.6303,-4.6277,-4.6236,-4.6211,-4.6203,-4.6209,-4.6199,-4.6158,-4.6013,-4.5885,-4.5782,-4.5677,-4.5565,-4.522,-5.1095,-5.1082,-5.0908,-5.0858,-5.0904,-5.0699,-5.0256,-4.9701,-4.9484,-4.8686,-4.7492,-4.7291,-4.6816,-4.6206,-4.6211,-4.6214,-4.6197,-4.6197,-4.6197,-4.6197,-4.6197,-4.6197,-4.6197,-4.6197,-4.6197,-4.6197,-4.6197,-4.6209,-4.6195,-4.6195,-4.6209,-4.6213,-4.6206,-4.6245,-4.6225,-4.6225,-4.6225,-4.6225,-4.6225,-4.623,-4.6238,-4.6238,-4.6241,-4.6228,-4.6273,-4.6295,-4.6295,-4.6301,-4.6303,-4.6303,-4.6304,-4.6305,-4.6305,-4.6306,0.0,0.0,0.0,0.0,0.0,0.0,0.0,0.0,0.0,-4.6288,-4.6305,0.0,-4.6272,0.0,-4.6214,-4.6219,-4.6206,-4.6154,0.0,0.0,-4.6042,-4.6002,-4.5958,-4.5947,-4.5941,-4.5941,-4.5935,-4.5935,-4.5941,-4.5941,-4.5958,-4.6035,-4.6095,-4.6119,-4.6123,-4.618,-4.6219,-4.624,-4.6219,-4.6212,-4.6238,-4.627,-4.6301,-4.6288,-4.6289,-4.6288,-4.6305,-4.6301,-4.6294,-4.6278,-4.6292,-4.6247,-4.6203,-4.6196,-4.6196,-4.615,-4.6037,-4.5929,-4.5827,-4.5746,-4.5585,-5.1053,-5.106,-5.1094,-5.1121,-5.1156,-5.1139,-5.0927,-5.0515,-5.0145,-4.9249,-4.7996,-4.721,-4.6601,-4.6164,-4.6148,-4.6144,-4.6144,-4.6164,-4.6144,-4.6144,-4.6144,-4.6144,-4.6164,-4.6144,-4.6144,-4.6164,-4.6144,-4.6141,-4.615,-4.615,-4.6142,-4.615,-4.6154,-4.6165,-4.6164,-4.618,-4.6206,-4.6206,-4.6215,-4.6201,-4.6209,-4.6194,-4.6201,-4.6208,-4.6234,-4.6257,-4.6257,-4.6261,-4.6264,-4.6264,-4.6264,-4.6266,-4.6249,-4.627,-4.6252,0.0,0.0,0.0,0.0,0.0,0.0,0.0,0.0,0.0,0.0,0.0,-4.623,0.0,-4.6174,0.0,-4.6158,-4.6084,-4.6047,-4.5986,-4.5978,-4.5929,-4.5893,-4.5874,-4.5861,-4.586,-4.5834,-4.5834,-4.586,-4.586,-4.588,-4.595,-4.5983,-4.6037,-4.6089,-4.6138,-4.6158,-4.616,-4.6157,-4.6176,-4.6187,-4.623,-4.6267,-4.6297,-4.6303,-4.6287,-4.6289,-4.6289,-4.6306,-4.6299,-4.6296,-4.6291,-4.6249,-4.6253,-4.6237,-4.619,-4.6131,-4.6037,-4.5929,-4.5814,-4.5627,-5.099,-5.0998,-5.1053,-5.1087,-5.1094,-5.1082,-5.1125,-5.1139,-5.0441,-4.9596,-4.8589,-4.6848,-4.6113,-4.6117,-4.6117,-4.6117,-4.6117,-4.6117,-4.6113,-4.6113,-4.6113,-4.6089,-4.6089,-4.6084,-4.6089,-4.6084,-4.6084,-4.6084,-4.6084,-4.6084,-4.608,-4.6075,-4.608,-4.6075,-4.606,-4.6138,-4.6162,-4.6192,-4.6167,-4.6174,-4.6193,-4.6189,-4.6195,-4.6176,-4.6178,-4.6178,-4.6178,-4.6201,-4.6201,-4.6203,-4.6203,-4.6209,-4.6199,-4.6199,-4.6204,0.0,-4.6214,0.0,0.0,0.0,0.0,0.0,0.0,0.0,0.0,-4.6199,-4.6181,-4.6192,-4.615,-4.6078,-4.6076,-4.6021,-4.5989,-4.598,-4.5906,-4.5886,-4.588,-4.5807,-4.5771,-4.5773,-4.5731,-4.5723,-4.5765,-4.5773,-4.5803,-4.5866,-4.5906,-4.5912,-4.6025,-4.6076,-4.6089,-4.6076,-4.6084,-4.6126,-4.6174,-4.6203,-4.6223,-4.6273,-4.6285,-4.6274,-4.6264,-4.6305,-4.6288,-4.6289,-4.6288,-4.6305,-4.629,-4.6305,-4.6275,-4.6223,-4.62,-4.6158,-4.6003,-4.5731,-4.5367,-5.0924,-5.0932,-5.0925,-5.0963,-5.102,-5.1034,-5.1055,-5.1108,-5.0959,-5.0021,-4.8513,-4.6829,-4.6114,-4.6117,-4.6117,-4.6117,-4.6117,-4.6117,-4.6108,-4.6105,-4.6105,-4.6056,-4.6017,-4.6017,-4.6017,-4.6017,-4.6017,-4.6026,-4.6019,-4.6025,-4.5989,-4.5927,-4.5947,-4.5947,0.0,0.0,0.0,0.0,-4.6115,-4.6115,-4.6115,-4.6119,-4.6123,-4.6123,-4.6119,0.0,-4.6107,-4.618,-4.6209,-4.6209,-4.6209,0.0,0.0,0.0,0.0,0.0,0.0,0.0,0.0,0.0,0.0,0.0,-4.6137,-4.6151,-4.6212,-4.6148,-4.6115,-4.6123,-4.6056,-4.6032,-4.6019,-4.5962,-4.5912,-4.5841,-4.5838,-4.5795,-4.5746,-4.568,-4.5637,-4.5629,-4.5627,-4.5618,-4.564,-4.5629,-4.5665,-4.5731,-4.5788,-4.5836,-4.5852,-4.5956,-4.6011,-4.6037,-4.6056,-4.6111,-4.6115,-4.616,-4.62,-4.6217,-4.6219,-4.6212,-4.6239,-4.627,-4.6299,-4.6305,-4.6287,-4.6289,-4.6306,-4.6301,-4.6295,-4.6296,-4.6236,-4.6177,-4.608,-4.5395,-4.477,-5.0846,0.0,-5.0852,-5.0858,0.0,-5.0901,-5.0937,-5.0995,-5.1053,-5.0145,-4.843,-4.6746,-4.6005,-4.6002,-4.6002,-4.6002,-4.6021,-4.6002,-4.5991,-4.6019,-4.6,-4.5989,-4.5958,-4.5958,-4.5958,-4.5958,-4.5958,-4.596,-4.5969,-4.595,-4.5932,-4.5841,-4.5861,-4.5861,-4.5861,-4.5841,-4.5911,-4.6002,-4.6037,-4.6061,-4.6061,-4.6052,-4.6061,-4.6061,0.0,0.0,0.0,0.0,0.0,0.0,0.0,0.0,0.0,0.0,0.0,-4.6117,-4.6098,-4.6098,-4.6098,-4.6098,-4.6093,-4.606,-4.6051,-4.608,-4.6127,-4.6089,-4.6052,-4.6041,-4.6003,-4.5943,-4.5906,-4.586,-4.5824,-4.5727,-4.57,-4.566,-4.5618,-4.5537,-4.551,-4.5493,-4.5504,-4.5495,-4.5493,-4.5502,-4.5519,-4.5582,-4.5627,-4.566,-4.5715,-4.584,-4.5943,-4.5953,-4.5991,-4.6066,-4.6061,-4.6113,-4.6142,-4.6162,-4.6148,-4.617,-4.6206,-4.6238,-4.6251,-4.6246,-4.6274,-4.6301,-4.6288,-4.6289,-4.6288,-4.6241,-4.5917,-4.5603,-4.5504,-4.5068,-4.4395,-5.0775,-5.0756,-5.0793,-5.0821,-5.0821,-5.0821,-5.0741,-5.0648,0.0,0.0,0.0,-4.6655,-4.5905,-4.5905,-4.5905,-4.5899,-4.5899,-4.5899,-4.5867,-4.588,-4.5886,-4.588,-4.5854,-4.5874,-4.5874,-4.5854,-4.5854,-4.5861,-4.5873,-4.5854,-4.5852,-4.5786,-4.5778,-4.5771,-4.5764,-4.5764,-4.58,-4.5835,-4.5944,-4.5949,-4.5974,-4.5958,-4.5969,-4.595,-4.595,-4.5969,-4.5969,-4.5969,-4.5969,-4.5969,-4.595,-4.5969,-4.5969,-4.5969,-4.5969,-4.5969,-4.5969,-4.5969,-4.5969,-4.5969,-4.5969,-4.595,-4.596,-4.5991,-4.6065,-4.6008,-4.5974,-4.5962,-4.5906,-4.5833,-4.5759,-4.5754,-4.5719,-4.5588,-4.5566,-4.5541,-4.5505,-4.54,-4.5362,-4.5361,-4.5341,-4.536,-4.5361,-4.5361,-4.54,-4.5448,-4.5467,-4.5495,-4.5563,-4.5742,-4.5886,-4.5893,-4.5931,-4.5974,-4.5986,-4.6025,-4.6047,-4.6075,-4.6102,-4.6131,-4.6157,-4.617,-4.6186,-4.6189,-4.6245,-4.6278,-4.6273,-4.6125,-4.6071,-4.6074,-4.5369,-4.4699,-4.4518,-4.4419,-4.3858,-5.0625,-5.0644,-5.0747,-5.0821,-5.0821,-5.0821,-5.0377,-4.9661,-4.9046,-4.8641,-4.8294,-4.6642,-4.5906,-4.5905,-4.5899,-4.5906,-4.59,-4.5834,-4.5807,0.0,-4.581,-4.5795,-4.5719,-4.5739,-4.5739,-4.5719,-4.5739,-4.5739,-4.5712,-4.5731,-4.5731,-4.5696,-4.5645,-4.5632,-4.5637,-4.5629,-4.5637,-4.5654,-4.5776,-4.5827,-4.5827,-4.5834,-4.5815,-4.5834,-4.5834,-4.5834,-4.5815,-4.5815,-4.5815,-4.5815,-4.5815,-4.5815,-4.5834,-4.5815,-4.5815,-4.5815,-4.5834,-4.5834,-4.5834,-4.5834,-4.5815,-4.5815,-4.5838,-4.5852,-4.5919,-4.5919,-4.5886,-4.5824,-4.5761,-4.5696,-4.5629,-4.5573,-4.5521,-4.5513,-4.5458,-4.5438,-4.5399,-4.5298,-4.5216,-4.5235,-4.5162,-4.517,-4.5205,-4.5235,-4.5237,-4.5298,-4.5319,-4.536,-4.5438,-4.566,-4.5815,-4.5817,-4.5826,-4.586,-4.588,-4.5925,-4.596,-4.5989,-4.6056,-4.6085,-4.6099,-4.6111,-4.6096,-4.6107,-4.6115,-4.6139,-4.6138,-4.5623,-4.5251,-4.5149,-4.449,-4.3711,-4.3098,-4.2877,-4.2652,-5.0545,-5.0545,-5.0615,-5.0635,-5.0596,-5.0211,-4.9815,-4.9342,-4.8155,-4.7623,-4.7523,-4.6324,-4.5798,-4.5793,-4.5798,-4.5791,-4.5791,-4.5769,-4.5754,-4.5731,-4.575,-4.5723,-4.5708,-4.5665,-4.5657,-4.5648,-4.5643,-4.5618,-4.5601,-4.5601,-4.5565,-4.5538,-4.5521,-4.5485,-4.5496,-4.5496,-4.5477,-4.5438,-4.5601,-4.5692,-4.5692,-4.5692,-4.57,-4.5673,-4.5692,-4.5692,-4.5673,-4.5692,-4.5692,-4.5692,-4.568,-4.5692,-4.5692,-4.5692,-4.5692,-4.57,-4.5692,-4.5692,-4.5692,-4.5692,-4.5692,-4.5692,-4.5676,-4.5679,-4.5632,-4.5696,-4.5731,-4.5695,-4.5646,-4.5556,-4.5493,-4.5486,-4.5419,-4.533,-4.5277,-4.5224,-4.5181,-4.5103,-4.5045,-4.5026,-4.5003,-4.4991,-4.5026,-4.5026,-4.5038,-4.5091,-4.5136,-4.5213,-4.5229,-4.5381,-4.5558,-4.5662,-4.5684,-4.5696,-4.5734,-4.5771,-4.5807,-4.5886,-4.5944,-4.5972,-4.5989,-4.6007,-4.6032,-4.6017,-4.576,-4.5476,-4.5413,-4.4782,-4.4343,-4.4167,-4.3576,-4.2845,-4.2461,-4.2062,-4.1664,-5.0427,-5.0427,-5.0448,-5.0374,-5.0146,-4.9403,-4.8971,-4.8654,-4.7439,-4.6818,-4.6557,-4.5962,-4.568,-4.5673,-4.5665,-4.5648,-4.564,-4.5651,-4.5643,-4.5624,-4.5643,-4.5651,-4.5643,-4.559,-4.5554,-4.5554,-4.5568,-4.5523,-4.5467,-4.5477,-4.5419,-4.5361,-4.5351,-4.5341,-4.5328,-4.5328,-4.5307,-4.5256,-4.539,-4.5505,-4.5523,-4.5523,-4.5551,-4.5523,-4.5523,-4.5532,-4.5523,-4.5532,-4.5532,-4.5532,-4.5542,-4.5523,-4.5523,-4.5523,-4.5532,-4.5532,-4.5532,-4.5551,-4.5542,-4.5532,-4.5532,-4.5523,-4.5532,-4.5486,-4.5361,-4.5428,-4.5484,-4.5523,-4.5457,-4.541,-4.5331,-4.5319,-4.5275,-4.5148,-4.508,-4.5022,-4.4931,-4.487,-4.4821,-4.4808,-4.4827,-4.4796,-4.4827,-4.4808,-4.4815,-4.484,-4.4926,-4.4998,-4.5033,-4.5114,-4.5267,-4.539,-4.5495,-4.555,-4.5545,-4.5588,-4.5648,-4.5735,-4.5817,-4.5847,-4.5841,-4.5776,-4.5658,-4.5556,-4.4997,-4.4564,-4.4418,-4.3845,-4.3377,-4.3245,-4.2663,-4.2082,-4.2005,-4.1581,-4.1099,-5.0243,-5.0236,-5.0348,-4.9997,-4.9254,-4.8459,-4.7702,-4.7021,-4.6791,-4.6254,-4.563,-4.5654,-4.5657,-4.5605,-4.562,-4.5586,-4.5522,-4.5457,-4.5438,-4.5438,-4.5438,-4.541,-4.5419,-4.541,-4.541,-4.5381,-4.5333,-4.5275,-4.5246,-4.5253,-4.5239,-4.5224,-4.5205,-4.5135,-4.5117,-4.5117,-4.5106,-4.5125,-4.5148,-4.5203,-4.5309,-4.5338,-4.5319,-4.5328,-4.5319,-4.5338,-4.5319,-4.5309,-4.5338,-4.5328,-4.5328,-4.5328,-4.5319,-4.5328,-4.5338,-4.5328,-4.5319,-4.5319,-4.5338,-4.5319,-4.5319,-4.5328,-4.5309,-4.5275,-4.5129,-4.5129,-4.5213,-4.5267,-4.5256,-4.5203,-4.5129,-4.508,-4.5003,-4.4919,-4.4877,-4.4796,-4.4719,-4.4672,-4.4605,-4.4537,-4.4537,-4.4524,-4.4524,-4.4519,-4.4524,-4.4524,-4.4605,-4.4667,-4.47,-4.4777,-4.487,-4.4972,-4.514,-4.532,-4.5371,-4.541,-4.5475,-4.5594,-4.5648,-4.5611,-4.5488,-4.5095,-4.4724,-4.4634,-4.4071,-4.3569,-4.3352,-4.2913,-4.2388,-4.2315,-4.1812,-4.1196,-4.1198,-4.1171,-4.1065,-5.0095,-5.0038,-4.9668,-4.9022,-4.8208,-4.739,-4.6846,-4.6502,-4.6037,-4.5656,-4.5379,-4.5429,-4.5457,-4.5494,-4.5475,-4.5476,-4.5438,-4.5419,-4.541,-4.5419,-4.5419,-4.538,-4.5292,-4.4745,-4.4525,-4.4457,-4.4005,-4.3755,-4.3725,-4.3683,-4.361,-4.3555,-4.3544,-4.3757,-4.4185,-4.4211,-4.4433,-4.4858,-4.4858,-4.4883,-4.4955,-4.5084,-4.5159,-4.5136,-4.5125,-4.5084,-4.508,-4.5068,-4.5049,-4.5068,-4.5068,-4.5049,-4.5068,-4.5068,-4.5068,-4.5049,-4.5068,-4.5068,-4.5068,-4.5068,-4.5049,-4.5068,-4.5033,-4.4974,-4.4889,-4.484,-4.4808,-4.4833,-4.4931,-4.4998,-4.487,-4.4833,-4.477,-4.4685,-4.4605,-4.4565,-4.4537,-4.4393,-4.4288,-4.4258,-4.4233,-4.4203,-4.4222,-4.4203,-4.4203,-4.4203,-4.4262,-4.4317,-4.4327,-4.4426,-4.4522,-4.4562,-4.4713,-4.4919,-4.5109,-4.5216,-4.525,-4.5264,-4.4997,-4.4764,-4.4703,-4.4157,-4.3674,-4.3717,-4.3031,-4.2557,-4.2525,-4.1941,-4.1387,-4.1369,-4.1396,-4.1016,-4.1094,-4.1115,-4.1073,-4.9551,-4.9394,-4.8549,-4.7782,-4.7141,-4.6363,-4.6024,-4.5967,-4.5451,-4.5254,-4.5235,-4.5235,-4.5267,-4.5291,-4.5341,-4.5331,-4.5321,-4.5321,-4.532,-4.5298,-4.5107,-4.4953,-4.4804,-4.3961,-4.3509,-4.3393,-4.2862,-4.2525,-4.2484,-4.2428,-4.2363,-4.2316,-4.2293,-4.259,-4.3089,-4.3165,-4.3423,-4.3905,-4.4188,-4.432,-4.4365,-4.472,-4.4938,-4.4926,-4.4895,-4.4858,-4.4808,-4.4796,-4.4783,-4.4783,-4.4783,-4.4802,-4.4783,-4.4802,-4.4783,-4.4802,-4.4783,-4.4783,-4.4783,-4.4802,-4.477,-4.4739,-4.4706,-4.4621,-4.4541,-4.4491,-4.4421,-4.4397,-4.4513,-4.4581,-4.4581,-4.4573,-4.4505,-4.4383,-4.4325,-4.4277,-4.4248,-4.4113,-4.3983,-4.3952,-4.3908,-4.3844,-4.3844,-4.3844,-4.3862,-4.3878,-4.3926,-4.3955,-4.3968,-4.4042,-4.4099,-4.4147,-4.4244,-4.4477,-4.4808,-4.4919,-4.4953,-4.4665,-4.4268,-4.3978,-4.3761,-4.3043,-4.2572,-4.252,-4.1893,-4.1555,-4.1501,-4.1001,-4.0784,-4.0804,-4.0859,-4.0964,-4.1013,-4.105,-4.1083,-4.8466,-4.8249,-4.6862,-4.6316,-4.6209,-4.5423,-4.5098,-4.5124,-4.5099,-4.5095,-4.5103,-4.5084,-4.508,-4.5026,-4.5129,-4.5151,-4.5136,-4.5068,-4.503,-4.4973,-4.4306,-4.3942,-4.3791,-4.2992,-4.2522,-4.2435,-4.2207,-4.2099,-4.2095,-4.2084,-4.2121,-4.2052,-4.1895,-4.1987,-4.2063,-4.2063,-4.2081,-4.2337,-4.2975,-4.3351,-4.3407,-4.4078,-4.4465,-4.4578,-4.464,-4.4619,-4.4592,-4.4537,-4.451,-4.4528,-4.451,-4.4528,-4.4528,-4.451,-4.4528,-4.451,-4.451,-4.451,-4.4496,-4.4496,-4.4449,-4.4351,-4.4322,-4.4265,-4.4151,-4.4106,-4.4079,-4.4002,-4.3974,-4.4017,-4.4132,-4.4177,-4.4151,-4.4051,-4.402,-4.3974,-4.391,-4.3795,-4.3714,-4.3631,-4.3546,-4.3513,-4.3513,-4.3532,-4.3513,-4.3513,-4.3513,-4.3529,-4.3579,-4.3612,-4.3644,-4.371,-4.3844,-4.4085,-4.4458,-4.4406,-4.4171,-4.3844,-4.3521,-4.3266,-4.2623,-4.2051,-4.1702,-4.137,-4.093,-4.063,-4.0528,-4.0523,-4.0591,-4.0642,-4.073,-4.0805,-4.0876,-4.0964,-4.1,-4.7141,-4.6699,-4.6142,-4.5668,-4.5224,-4.4928,-4.4796,-4.4796,-4.484,-4.4833,-4.4833,-4.4833,-4.4821,-4.4808,-4.4808,-4.487,-4.4917,-4.4448,-4.4177,-4.4047,-4.327,-4.2837,-4.2702,-4.1891,-4.1458,-4.1359,-4.0796,-4.0471,-4.0416,-4.0333,-4.03,-4.0248,-4.0162,-4.0383,-4.0868,-4.0961,-4.1204,-4.1722,-4.2076,-4.2192,-4.2172,-4.2433,-4.2787,-4.3308,-4.3993,-4.4302,-4.4218,-4.4188,-4.4173,-4.4192,-4.4173,-4.4173,-4.4173,-4.4173,-4.4192,-4.4192,-4.4173,-4.4158,-4.4131,-4.4116,-4.4051,-4.3918,-4.3871,-4.3839,-4.3758,-4.3679,-4.3579,-4.3563,-4.3496,-4.3478,-4.3475,-4.366,-4.3777,-4.3681,-4.3682,-4.3632,-4.3548,-4.3426,-4.3339,-4.3232,-4.316,-4.3105,-4.3123,-4.3123,-4.3105,-4.3105,-4.3105,-4.3124,-4.316,-4.3178,-4.3214,-4.3249,-4.3338,-4.3311,-4.2887,-4.3293,-4.3325,-4.2917,-4.253,-4.1864,-4.1228,-4.0736,-4.0348,-4.0468,-4.0062,-4.0077,-4.0128,-4.0271,-4.0336,-4.045,-4.0535,-4.0649,-4.0746,-4.0805,-4.0881,-4.6,-4.5359,-4.5336,-4.5045,-4.4616,-4.4605,-4.4605,-4.4619,-4.4632,-4.4613,-4.4632,-4.4632,-4.4632,-4.4549,-4.4283,-4.4183,-4.4208,-4.3763,-4.3397,-4.3001,-4.2208,-4.1775,-4.1588,-4.0798,-4.0365,-4.0284,-3.9714,-3.935,-3.9285,-3.9224,-3.9156,-3.9138,-3.9003,-3.9238,-3.9756,-3.983,-4.0122,-4.0567,-4.0848,-4.0951,-4.0945,-4.1151,-4.1472,-4.1942,-4.267,-4.337,-4.3804,-4.3844,-4.3828,-4.3846,-4.3846,-4.3846,-4.3846,-4.3846,-4.3812,-4.3795,-4.3779,-4.3747,-4.3682,-4.3684,-4.3597,-4.3477,-4.3408,-4.3355,-4.332,-4.316,-4.3105,-4.3069,-4.2995,-4.2901,-4.2864,-4.2995,-4.316,-4.325,-4.3268,-4.3214,-4.3105,-4.2995,-4.2901,-4.2787,-4.2691,-4.2652,-4.2632,-4.2595,-4.2575,-4.2575,-4.2557,-4.2575,-4.2595,-4.2671,-4.2711,-4.2693,-4.2573,-4.234,-4.1832,-4.176,-4.1675,-4.1322,-4.1345,-4.0645,-4.0093,-3.9591,-3.9395,-3.9471,-3.958,-3.9682,-3.9818,-3.9979,-4.0091,-4.0213,-4.0336,-4.0431,-4.0535,-4.0643,-4.0696,-4.5032,-4.4397,-4.43,-4.4356,-4.4329,-4.4368,-4.4397,-4.4397,-4.4454,-4.4454,-4.4473,-4.4487,-4.4402,-4.421,-4.3578,-4.3128,-4.2851,-4.2917,-4.2624,-4.1942,-4.1167,-4.0734,-4.0632,-3.9842,-3.9408,-3.9327,-3.9147,-3.9082,-3.9069,-3.8946,-3.8877,-3.8862,-3.8676,-3.8655,-3.8728,-3.8747,-3.8692,-3.8915,-3.9415,-3.9678,-3.9772,-4.0255,-4.0589,-4.0667,-4.0775,-4.1623,-4.3361,-4.342,-4.3386,-4.3387,-4.3461,-4.3479,-4.3462,-4.3461,-4.3409,-4.3303,-4.3285,-4.3249,-4.3196,-4.3178,-4.3105,-4.2995,-4.292,-4.2826,-4.2713,-4.2632,-4.2571,-4.2552,-4.2436,-4.2376,-4.2318,-4.2234,-4.2335,-4.2768,-4.2769,-4.2692,-4.2635,-4.2498,-4.2356,-4.2272,-4.2148,-4.2103,-4.2082,-4.2005,-4.1945,-4.1927,-4.1945,-4.1945,-4.1945,-4.2026,-4.2065,-4.2003,-4.1714,-4.1316,-4.0732,-4.0146,-3.9856,-3.9615,-3.9827,-3.9636,-3.9287,-3.8884,-3.8956,-3.9031,-3.9146,-3.9253,-3.9477,-3.964,-3.9766,-3.9889,-4.0042,-4.0195,-4.0283,-4.0391,-4.0526,-4.4202,-4.4042,-4.4023,-4.4036,-4.4101,-4.4113,-4.4128,-4.4128,-4.4162,-4.4143,-4.4158,-4.4158,-4.3864,-4.3331,-4.2947,-4.2166,-4.1037,-4.1015,-4.0954,-4.0752,-4.0034,-3.9647,-3.9551,-3.9245,-3.905,-3.8921,-3.8796,-3.877,-3.8792,-3.8652,-3.8541,-3.851,-3.8366,-3.8267,-3.8285,-3.8285,-3.8234,-3.8239,-3.8404,-3.8464,-3.8345,-3.8562,-3.8887,-3.9337,-3.9409,-3.9949,-4.107,-4.1833,-4.2232,-4.2268,-4.2796,-4.305,-4.2958,-4.2958,-4.292,-4.2825,-4.2824,-4.2768,-4.2653,-4.2575,-4.2476,-4.2394,-4.2274,-4.2195,-4.2133,-4.2029,-4.1941,-4.1913,-4.1788,-4.1683,-4.1578,-4.1529,-4.1727,-4.229,-4.2234,-4.2113,-4.199,-4.1839,-4.1709,-4.1661,-4.1569,-4.1503,-4.148,-4.1401,-4.1356,-4.1338,-4.1378,-4.1396,-4.1418,-4.1396,-4.148,-4.1432,-4.0893,-4.0162,-3.9482,-3.8818,-3.8346,-3.8294,-3.849,-3.8782,-3.8482,-3.8362,-3.8442,-3.8566,-3.8688,-3.8851,-3.9064,-3.924,-3.9351,-3.952,-3.9637,-3.9794,-3.9972,-4.011,-4.0202,-4.3719,-4.3751,-4.3751,-4.3765,-4.3814,-4.3814,-4.3814,-4.3758,-4.3497,-4.3368,-4.3331,-4.3035,-4.2646,-4.2168,-4.1822,-4.1024,-3.9939,-3.9583,-3.9448,-3.9503,-3.9198,-3.8931,-3.8898,-3.8815,-3.8728,-3.8606,-3.8494,-3.843,-3.8449,-3.8322,-3.8221,-3.8188,-3.8001,-3.7915,-3.7915,-3.7862,-3.7809,-3.7792,-3.7703,-3.7595,-3.7504,-3.7449,-3.766,-3.8067,-3.8099,-3.8311,-3.8844,-3.9752,-4.0499,-4.1009,-4.173,-4.2067,-4.2006,-4.2201,-4.2376,-4.2292,-4.2231,-4.2169,-4.2029,-4.1903,-4.1817,-4.1749,-4.16,-4.149,-4.145,-4.1338,-4.118,-4.1146,-4.1059,-4.099,-4.0937,-4.0802,-4.0966,-4.1248,-4.149,-4.1468,-4.1333,-4.1151,-4.1036,-4.099,-4.0873,-4.0761,-4.0754,-4.0642,-4.0618,-4.0594,-4.0594,-4.0594,-4.0618,-4.0635,-4.058,-4.0259,-3.9572,-3.8853,-3.8163,-3.7512,-3.6899,-3.6998,-3.72,-3.7592,-3.7703,-3.7738,-3.7826,-3.8015,-3.8147,-3.8328,-3.8545,-3.8715,-3.8843,-3.9027,-3.9176,-3.9358,-3.9512,-3.9702,-3.9808,-4.3462,-4.348,-4.3407,-4.3333,-4.3315,-4.3242,-4.315,-4.3132,-4.2543,-4.2194,-4.2047,-4.1589,-4.1113,-4.0857,-4.038,-3.9843,-3.9402,-3.8804,-3.8396,-3.8343,-3.8364,-3.8507,-3.8538,-3.8446,-3.8336,-3.8238,-3.8136,-3.8068,-3.8051,-3.7915,-3.7864,-3.781,-3.7649,-3.7558,-3.7504,-3.7431,-3.7357,-3.73,-3.7167,-3.7071,-3.7013,-3.6972,-3.6948,-3.7001,-3.6884,-3.6878,-3.7053,-3.7588,-3.8477,-3.9642,-4.0423,-4.0719,-4.0801,-4.1382,-4.1615,-4.1464,-4.1499,-4.1458,-4.1328,-4.1197,-4.1105,-4.1082,-4.0855,-4.0713,-4.0689,-4.0546,-4.04,-4.0351,-4.0326,-4.0302,-4.0228,-4.0078,-3.9961,-3.9986,-4.048,-4.0731,-4.058,-4.0417,-4.0326,-4.0277,-4.0103,-3.9927,-3.9927,-3.9706,-3.9603,-3.9594,-3.9594,-3.9577,-3.9594,-3.9571,-3.932,-3.8849,-3.8276,-3.7593,-3.6929,-3.6205,-3.5638,-3.5718,-3.5989,-3.6446,-3.6921,-3.7057,-3.7208,-3.7396,-3.7524,-3.7755,-3.7964,-3.8079,-3.8227,-3.8353,-3.8554,-3.8828,-3.9027,-3.9171,-3.9339,-4.305,-4.2996,-4.2414,-4.2178,-4.2086,-4.1614,-4.1377,-4.1341,-4.1159,-4.1031,-4.0959,-4.0831,-4.0286,-3.9777,-3.9558,-3.9075,-3.845,-3.8145,-3.7933,-3.7775,-3.781,-3.7966,-3.8103,-3.807,-3.7967,-3.7845,-3.7757,-3.7685,-3.7595,-3.7503,-3.7392,-3.7317,-3.7203,-3.7106,-3.7031,-3.6974,-3.6856,-3.6771,-3.669,-3.655,-3.6392,-3.6367,-3.6287,-3.6203,-3.6165,-3.6143,-3.6122,-3.6242,-3.7254,-3.9003,-3.9364,-3.9359,-3.926,-3.9859,-4.0186,-4.0055,-4.0416,-4.0672,-4.0583,-4.0414,-4.0309,-4.0277,-4.0061,-3.9927,-3.9927,-3.9851,-3.9697,-3.9584,-3.9506,-3.9428,-3.9286,-3.9152,-3.9038,-3.9011,-3.9456,-3.9876,-3.9825,-3.9662,-3.9532,-3.948,-3.9286,-3.9152,-3.9055,-3.893,-3.8794,-3.875,-3.8695,-3.8613,-3.8613,-3.8564,-3.8374,-3.774,-3.7111,-3.6416,-3.5685,-3.4923,-3.448,-3.4513,-3.4814,-3.5307,-3.586,-3.634,-3.6563,-3.6783,-3.6786,-3.6944,-3.7136,-3.7323,-3.7488,-3.7631,-3.7875,-3.8092,-3.8355,-3.8539,-3.8719,-4.1679,-4.1643,-4.1175,-4.0977,-4.0923,-4.0527,-4.0365,-4.0293,-3.9986,-3.9824,-3.977,-3.9446,-3.9049,-3.8617,-3.851,-3.8205,-3.7703,-3.7594,-3.7503,-3.7354,-3.7299,-3.7449,-3.765,-3.7613,-3.7522,-3.7449,-3.7337,-3.7225,-3.7148,-3.7029,-3.693,-3.6834,-3.6693,-3.6574,-3.6495,-3.6409,-3.6326,-3.6195,-3.611,-3.5958,-3.5815,-3.5749,-3.5683,-3.5616,-3.5571,-3.5526,-3.5413,-3.5316,-3.6028,-3.7276,-3.7799,-3.7894,-3.7763,-3.8389,-3.867,-3.8495,-3.8828,-3.91,-3.9278,-3.9151,-3.9198,-3.9354,-3.9226,-3.9065,-3.9011,-3.8957,-3.881,-3.8673,-3.8662,-3.8535,-3.8339,-3.8169,-3.801,-3.7908,-3.8177,-3.8541,-3.8887,-3.8783,-3.8629,-3.8518,-3.8339,-3.8157,-3.8112,-3.7937,-3.7851,-3.7793,-3.7677,-3.7648,-3.7602,-3.7541,-3.7134,-3.6324,-3.5749,-3.507,-3.4324,-3.3567,-3.3345,-3.3365,-3.354,-3.4054,-3.4733,-3.5358,-3.5681,-3.5878,-3.5959,-3.6088,-3.6281,-3.649,-3.6671,-3.6869,-3.7117,-3.7323,-3.7542,-3.7754,-3.794,-3.993,-3.993,-3.9841,-3.9805,-3.9788,-3.9716,-3.9502,-3.9502,-3.8896,-3.8628,-3.8485,-3.7879,-3.7718,-3.7522,-3.7518,-3.7317,-3.7201,-3.7106,-3.6992,-3.6873,-3.6794,-3.6838,-3.7092,-3.7091,-3.7013,-3.6954,-3.6779,-3.6698,-3.6635,-3.6506,-3.6402,-3.6301,-3.6114,-3.6028,-3.5924,-3.5788,-3.57,-3.5611,-3.543,-3.531,-3.5224,-3.5131,-3.5038,-3.4991,-3.4897,-3.4794,-3.4626,-3.4505,-3.4789,-3.5339,-3.6011,-3.6266,-3.6281,-3.6859,-3.7136,-3.7095,-3.7119,-3.7347,-3.7561,-3.756,-3.7763,-3.8204,-3.8132,-3.8108,-3.8035,-3.794,-3.7796,-3.7679,-3.774,-3.7562,-3.7354,-3.7115,-3.6905,-3.6753,-3.6646,-3.6981,-3.7488,-3.7709,-3.765,-3.7472,-3.7342,-3.7147,-3.6981,-3.6814,-3.6692,-3.6661,-3.6554,-3.6461,-3.6384,-3.626,-3.5554,-3.4513,-3.4053,-3.3701,-3.2966,-3.2203,-3.2185,-3.2198,-3.2333,-3.2775,-3.356,-3.417,-3.4624,-3.4878,-3.4938,-3.5101,-3.5329,-3.5554,-3.5735,-3.5925,-3.6061,-3.635,-3.6594,-3.6794,-3.6991,-3.9453,-3.94,-3.8763,-3.8498,-3.841,-3.7884,-3.7674,-3.7655,-3.7496,-3.7443,-3.7355,-3.7196,-3.7068,-3.6992,-3.6935,-3.6834,-3.669,-3.6629,-3.6527,-3.6284,-3.611,-3.6049,-3.6224,-3.6406,-3.6489,-3.6367,-3.6287,-3.6178,-3.6028,-3.5958,-3.5849,-3.565,-3.5566,-3.5453,-3.5287,-3.5131,-3.4991,-3.4913,-3.4787,-3.4626,-3.4529,-3.4407,-3.4284,-3.4184,-3.4059,-3.3958,-3.3899,-3.3755,-3.3672,-3.3908,-3.4423,-3.4775,-3.4823,-3.5304,-3.5528,-3.5487,-3.578,-3.604,-3.6054,-3.6014,-3.6119,-3.6642,-3.6595,-3.658,-3.701,-3.695,-3.6799,-3.6646,-3.6569,-3.6446,-3.615,-3.6071,-3.5834,-3.5563,-3.5452,-3.5387,-3.5516,-3.6118,-3.6477,-3.643,-3.6243,-3.6054,-3.5976,-3.5644,-3.5516,-3.5499,-3.537,-3.5207,-3.5109,-3.5029,-3.41,-3.3061,-3.2704,-3.2367,-3.144,-3.0881,-3.0881,-3.094,-3.1071,-3.1246,-3.2035,-3.2759,-3.3114,-3.3508,-3.3846,-3.4046,-3.4186,-3.4422,-3.4558,-3.4781,-3.4985,-3.5227,-3.5464,-3.5722,-3.5959,-3.7875,-3.7857,-3.7419,-3.7244,-3.7192,-3.6844,-3.6673,-3.6652,-3.667,-3.6673,-3.6652,-3.6612,-3.6533,-3.6471,-3.6388,-3.628,-3.6152,-3.6041,-3.5849,-3.5633,-3.5515,-3.5418,-3.5293,-3.5521,-3.5655,-3.57,-3.5655,-3.556,-3.5487,-3.5356,-3.5201,-3.5055,-3.4961,-3.4794,-3.4643,-3.444,-3.4317,-3.4184,-3.4009,-3.3841,-3.3764,-3.3585,-3.3429,-3.3298,-3.3156,-3.3049,-3.2953,-3.2776,-3.2668,-3.2707,-3.296,-3.3319,-3.3455,-3.3789,-3.3836,-3.3813,-3.385,-3.4234,-3.4266,-3.4353,-3.4503,-3.5039,-3.4907,-3.5095,-3.5354,-3.5458,-3.5466,-3.5424,-3.5432,-3.5335,-3.499,-3.4728,-3.4547,-3.438,-3.4211,-3.4133,-3.4273,-3.4902,-3.5367,-3.5237,-3.5026,-3.4828,-3.4662,-3.4399,-3.4283,-3.4182,-3.4061,-3.3939,-3.3851,-3.3619,-3.2809,-3.1994,-3.1599,-3.1002,-3.0003,-2.9552,-2.9538,-2.9614,-2.9723,-2.983,-3.0212,-3.091,-3.156,-3.2066,-3.2586,-3.2752,-3.2908,-3.3135,-3.3302,-3.3441,-3.3629,-3.3964,-3.4219,-3.4388,-3.4667,-3.6195,-3.6195,-3.6195,-3.6195,-3.6195,-3.6195,-3.6178,-3.6178,-3.6156,-3.6152,-3.6152,-3.6011,-3.5946,-3.592,-3.5783,-3.5694,-3.556,-3.5339,-3.5125,-3.5024,-3.4906,-3.4787,-3.465,-3.4626,-3.4682,-3.5021,-3.5031,-3.4954,-3.4835,-3.4707,-3.4554,-3.4472,-3.4259,-3.4059,-3.3949,-3.3755,-3.3585,-3.3471,-3.3219,-3.3018,-3.2964,-3.2749,-3.2516,-3.2339,-3.2228,-3.2089,-3.1934,-3.1792,-3.1665,-3.1637,-3.1522,-3.1792,-3.2142,-3.2434,-3.2327,-3.2219,-3.217,-3.23,-3.2562,-3.2641,-3.2795,-3.3336,-3.3183,-3.3311,-3.3627,-3.3689,-3.3758,-3.4016,-3.4114,-3.4056,-3.3796,-3.3422,-3.3199,-3.3073,-3.284,-3.2866,-3.3127,-3.366,-3.363,-3.3871,-3.3685,-3.3512,-3.3318,-3.3094,-3.2989,-3.2883,-3.2733,-3.264,-3.2533,-3.2212,-3.1425,-3.0653,-3.015,-2.945,-2.849,-2.8141,-2.8174,-2.8206,-2.8285,-2.8382,-2.846,-2.8884,-2.9608,-3.0778,-3.1318,-3.1419,-3.1562,-3.173,-3.1883,-3.201,-3.2216,-3.2486,-3.2754,-3.3024,-3.3312,-3.5734,-3.5734,-3.5734,-3.5694,-3.5694,-3.5734,-3.5717,-3.5694,-3.5605,-3.556,-3.5521,-3.5407,-3.5316,-3.5258,-3.5251,-3.5095,-3.4842,-3.4586,-3.4456,-3.4374,-3.4209,-3.4034,-3.3958,-3.3797,-3.3688,-3.3748,-3.4018,-3.4209,-3.4151,-3.405,-3.3857,-3.3694,-3.3481,-3.3298,-3.3113,-3.2953,-3.2765,-3.2602,-3.2367,-3.2228,-3.2089,-3.1821,-3.1564,-3.132,-3.1248,-3.116,-3.0999,-3.0807,-3.0673,-3.0569,-3.0418,-3.0374,-3.0495,-3.0999,-3.1218,-3.1204,-3.1058,-3.0999,-3.0997,-3.0877,-3.1016,-3.1267,-3.1346,-3.1489,-3.1785,-3.1787,-3.1903,-3.2171,-3.2465,-3.2536,-3.2218,-3.1906,-3.1733,-3.1563,-3.1415,-3.1244,-3.1182,-3.1193,-3.1469,-3.1816,-3.1956,-3.211,-3.1842,-3.1659,-3.1499,-3.1339,-3.1191,-3.1093,-3.0994,-3.0624,-3.0064,-2.9299,-2.8567,-2.7793,-2.6947,-2.6794,-2.6718,-2.6705,-2.6773,-2.6815,-2.6883,-2.695,-2.7644,-2.8652,-2.9603,-3.0015,-3.0181,-3.0301,-3.0437,-3.0542,-3.0749,-3.0998,-3.1215,-3.1443,-3.1756,-3.5218,-3.5234,-3.5234,-3.5218,-3.5234,-3.5165,-3.5142,-3.5102,-3.4984,-3.4937,-3.489,-3.4794,-3.4675,-3.4594,-3.4497,-3.4349,-3.4075,-3.3841,-3.3688,-3.3585,-3.3429,-3.3298,-3.3219,-3.3022,-3.2861,-3.2792,-3.2964,-3.323,-3.3282,-3.3166,-3.3076,-3.29,-3.2668,-3.2422,-3.2256,-3.2089,-3.1908,-3.1709,-3.148,-3.1291,-3.1175,-3.0911,-3.0614,-3.0374,-3.0237,-3.0146,-2.9931,-2.9732,-2.9594,-2.9484,-2.931,-2.9153,-2.9125,-2.9268,-2.9673,-2.9934,-2.9948,-2.9825,-2.967,-2.956,-2.9589,-2.9563,-2.955,-2.9678,-2.9939,-3.0004,-3.0031,-3.0274,-3.0272,-3.0418,-3.0409,-3.0179,-3.0072,-3.0088,-2.9897,-2.9692,-2.9498,-2.9225,-2.9347,-2.9682,-3.0125,-3.0316,-3.0291,-3.0101,-2.9948,-2.9782,-2.9615,-2.9538,-2.9422,-2.9079,-2.8586,-2.759,-2.6759,-2.6021,-2.5385,-2.5288,-2.5216,-2.5228,-2.5228,-2.524,-2.5298,-2.5356,-2.5636,-2.6255,-2.7167,-2.8074,-2.8625,-2.8693,-2.8898,-2.9024,-2.9153,-2.9296,-2.9588,-2.9909,-3.0153,-3.4739,-3.4756,-3.4715,-3.4691,-3.4683,-3.4562,-3.4497,-3.4472,-3.4349,-3.43,-3.4275,-3.4126,-3.3958,-3.3857,-3.3704,-3.3497,-3.3261,-3.3087,-3.2926,-3.2776,-3.2614,-3.2477,-3.2367,-3.2173,-3.1977,-3.1779,-3.1751,-3.1949,-3.2394,-3.2355,-3.2216,-3.202,-3.1794,-3.1522,-3.1349,-3.1233,-3.1014,-3.0748,-3.0494,-3.0313,-3.007,-2.9901,-2.9623,-2.9296,-2.9247,-2.9089,-2.8803,-2.8597,-2.8454,-2.8325,-2.8176,-2.796,-2.7848,-2.763,-2.7815,-2.8454,-2.8643,-2.861,-2.8546,-2.8357,-2.8241,-2.8125,-2.7941,-2.8006,-2.8127,-2.8217,-2.8278,-2.8321,-2.8375,-2.8309,-2.8462,-2.8275,-2.8229,-2.8324,-2.8246,-2.8052,-2.7924,-2.7614,-2.7169,-2.7566,-2.8223,-2.8485,-2.8469,-2.8533,-2.8323,-2.8084,-2.7952,-2.786,-2.7752,-2.751,-2.6961,-2.5807,-2.4918,-2.416,-2.3737,-2.3669,-2.3624,-2.3624,-2.3624,-2.3649,-2.3686,-2.3759,-2.4038,-2.4267,-2.4791,-2.5689,-2.637,-2.7064,-2.7193,-2.7313,-2.7419,-2.7584,-2.7841,-2.8107,-2.8324,-3.4201,-3.4176,-3.4075,-3.4025,-3.4,-3.3873,-3.3822,-3.3797,-3.3668,-3.3633,-3.3565,-3.3314,-3.314,-3.306,-3.2846,-3.2683,-3.2492,-3.2342,-3.216,-3.1977,-3.1779,-3.1637,-3.1566,-3.1306,-3.1028,-3.0807,-3.0733,-3.1058,-3.1363,-3.1465,-3.1393,-3.116,-3.0852,-3.0599,-3.048,-3.0313,-3.0085,-2.9808,-2.9701,-2.939,-2.8885,-2.8693,-2.8514,-2.8254,-2.8059,-2.7894,-2.7683,-2.7451,-2.7317,-2.7183,-2.6968,-2.6812,-2.662,-2.6436,-2.6264,-2.6526,-2.69,-2.7397,-2.7317,-2.7136,-2.6955,-2.6786,-2.6595,-2.6427,-2.6442,-2.6494,-2.6479,-2.6214,-2.6502,-2.6666,-2.651,-2.6253,-2.6275,-2.6306,-2.6206,-2.6213,-2.6181,-2.5859,-2.5413,-2.5314,-2.5898,-2.6333,-2.6562,-2.6666,-2.673,-2.6494,-2.6287,-2.6182,-2.6003,-2.571,-2.5278,-2.4183,-2.3278,-2.2566,-2.2157,-2.2084,-2.2027,-2.2038,-2.2027,-2.2027,-2.2054,-2.2081,-2.213,-2.2446,-2.287,-2.3411,-2.4268,-2.4885,-2.5309,-2.5601,-2.5728,-2.5891,-2.6042,-2.628,-2.6523,-3.3071,-3.3361,-3.3308,-3.3256,-3.3256,-3.314,-3.3087,-3.3033,-3.2877,-3.2769,-3.2699,-3.2492,-3.2299,-3.216,-3.1936,-3.1766,-3.1595,-3.148,-3.1306,-3.1102,-3.0896,-3.0763,-3.0628,-3.0388,-3.0101,-2.9862,-2.9763,-2.9608,-2.9964,-3.021,-3.0313,-3.0192,-2.987,-2.9546,-2.947,-2.9265,-2.9026,-2.8725,-2.8487,-2.8143,-2.7749,-2.7517,-2.7351,-2.7082,-2.6947,-2.6697,-2.6458,-2.623,-2.6022,-2.5884,-2.5662,-2.5475,-2.5264,-2.5087,-2.4957,-2.4814,-2.4957,-2.5417,-2.5953,-2.5814,-2.5697,-2.5545,-2.5299,-2.5099,-2.4897,-2.4715,-2.4634,-2.445,-2.4399,-2.4461,-2.4518,-2.4293,-2.4357,-2.4331,-2.4213,-2.4185,-2.419,-2.3959,-2.3705,-2.3599,-2.3554,-2.3955,-2.4373,-2.4639,-2.4734,-2.4755,-2.4542,-2.4404,-2.4089,-2.3713,-2.3203,-2.2535,-2.1762,-2.1054,-2.0711,-2.0527,-2.0421,-2.0391,-2.0372,-2.0372,-2.0382,-2.042,-2.0488,-2.0537,-2.0787,-2.1418,-2.22,-2.2992,-2.3688,-2.3929,-2.4097,-2.4194,-2.429,-2.4494,-2.4791,-3.1864,-3.2269,-3.2449,-3.2516,-3.2489,-3.2339,-3.2272,-3.2244,-3.2007,-3.1894,-3.1838,-3.1652,-3.1407,-3.119,-3.1014,-3.0866,-3.0658,-3.0539,-3.0343,-3.0147,-2.9836,-2.9584,-2.9273,-2.9058,-2.866,-2.8709,-2.8236,-2.8012,-2.7967,-2.8243,-2.8638,-2.9125,-2.8867,-2.8578,-2.832,-2.8111,-2.7868,-2.7504,-2.7204,-2.6867,-2.6607,-2.6368,-2.6148,-2.5906,-2.5697,-2.5487,-2.5205,-2.4981,-2.4802,-2.4576,-2.4384,-2.4204,-2.4022,-2.3841,-2.3658,-2.3511,-2.3438,-2.3548,-2.4084,-2.4264,-2.4348,-2.4204,-2.3938,-2.3672,-2.339,-2.3054,-2.2729,-2.2698,-2.252,-2.2512,-2.244,-2.2312,-2.2364,-2.2361,-2.2301,-2.2223,-2.2146,-2.2048,-2.1921,-2.1808,-2.1669,-2.148,-2.195,-2.24,-2.2673,-2.2921,-2.2833,-2.2648,-2.2339,-2.1889,-2.1479,-2.0941,-2.047,-1.9808,-1.9389,-1.9129,-1.8959,-1.8843,-1.8794,-1.8838,-1.8886,-1.8908,-1.897,-1.8988,-1.8957,-1.9335,-2.0023,-2.1084,-2.2075,-2.2253,-2.2392,-2.244,-2.2542,-2.2744,-2.304,-3.0807,-3.0807,-3.1495,-3.1737,-3.1752,-3.1509,-3.1394,-3.1379,-3.1175,-3.1043,-3.097,-3.0704,-3.0377,-3.0151,-2.9959,-2.9807,-2.9645,-2.967,-2.9299,-2.8837,-2.8377,-2.8009,-2.7703,-2.7215,-2.664,-2.641,-2.6403,-2.6143,-2.5787,-2.609,-2.6915,-2.7848,-2.7591,-2.7591,-2.7371,-2.6955,-2.6616,-2.6252,-2.5928,-2.5674,-2.5441,-2.5194,-2.4933,-2.4636,-2.442,-2.4215,-2.4034,-2.379,-2.3582,-2.3386,-2.3202,-2.2968,-2.2745,-2.2606,-2.2408,-2.2172,-2.201,-2.1973,-2.2113,-2.2734,-2.299,-2.2793,-2.2521,-2.2199,-2.1935,-2.1756,-2.1461,-2.1106,-2.0952,-2.0779,-2.0615,-2.042,-2.0493,-2.0455,-2.0401,-2.031,-2.0271,-2.0289,-2.0165,-1.9973,-1.9869,-1.9765,-1.9596,-2.0079,-2.08,-2.1042,-2.1006,-2.0818,-2.0638,-2.0274,-1.9922,-1.9527,-1.9187,-1.8692,-1.8136,-1.787,-1.7679,-1.7532,-1.7483,-1.7482,-1.7506,-1.7481,-1.7342,-1.7423,-1.7423,-1.7634,-1.7876,-1.8872,-1.9769,-2.0401,-2.0682,-2.073,-2.0883,-2.11,-2.1397,-2.9976,-2.9839,-3.0101,-3.0478,-3.0836,-3.0732,-3.0643,-3.0553,-3.0358,-3.0146,-2.9891,-2.9351,-2.8923,-2.8639,-2.823,-2.7953,-2.7663,-2.7633,-2.7457,-2.7144,-2.6738,-2.6489,-2.6151,-2.5777,-2.5421,-2.5186,-2.502,-2.4757,-2.4488,-2.4394,-2.4516,-2.5207,-2.5907,-2.6236,-2.6079,-2.5742,-2.5334,-2.5028,-2.4779,-2.4587,-2.4238,-2.3948,-2.368,-2.357,-2.3202,-2.2931,-2.266,-2.2547,-2.2295,-2.2069,-2.1928,-2.17,-2.1423,-2.127,-2.1078,-2.0827,-2.0672,-2.0479,-2.0411,-2.1155,-2.17,-2.1346,-2.1078,-2.0808,-2.0489,-2.0255,-2.0021,-1.9795,-1.959,-1.9353,-1.9134,-1.8935,-1.8816,-1.8632,-1.8518,-1.8394,-1.8389,-1.8452,-1.8409,-1.8285,-1.8206,-1.8126,-1.7917,-1.7777,-1.8557,-1.9201,-1.9117,-1.8988,-1.8788,-1.8642,-1.8378,-1.8094,-1.7811,-1.744,-1.6919,-1.6658,-1.6408,-1.6279,-1.6192,-1.6181,-1.619,-1.5756,-1.5677,-1.576,-1.5925,-1.6083,-1.6363,-1.6805,-1.7568,-1.8532,-1.8939,-1.9067,-1.9249,-1.9429,-1.9731,-2.8921,-2.8754,-2.8557,-2.9052,-2.987,-2.9884,-2.9664,-2.9386,-2.9173,-2.8799,-2.8336,-2.7742,-2.7362,-2.701,-2.6675,-2.6321,-2.6126,-2.602,-2.5762,-2.5464,-2.5198,-2.4943,-2.4583,-2.4159,-2.3651,-2.3759,-2.3547,-2.3163,-2.2746,-2.2883,-2.2856,-2.3137,-2.3767,-2.4225,-2.4743,-2.441,-2.4022,-2.3827,-2.3607,-2.3449,-2.3027,-2.2729,-2.2344,-2.2268,-2.1918,-2.1642,-2.1364,-2.1211,-2.1029,-2.0769,-2.0586,-2.0382,-2.0148,-1.9904,-1.9747,-1.9511,-1.9265,-1.9146,-1.9155,-1.9638,-2.0226,-1.9913,-1.9659,-1.9353,-1.9085,-1.8847,-1.8638,-1.831,-1.8158,-1.8006,-1.7723,-1.7432,-1.7229,-1.7073,-1.6778,-1.6664,-1.6622,-1.6627,-1.6631,-1.6534,-1.6525,-1.6513,-1.6082,-1.594,-1.6492,-1.7235,-1.7475,-1.7296,-1.707,-1.6922,-1.6821,-1.6596,-1.6385,-1.6021,-1.5672,-1.5534,-1.5432,-1.5218,-1.5138,-1.503,-1.4884,-1.45,-1.4358,-1.4654,-1.4754,-1.4643,-1.4803,-1.5164,-1.5992,-1.6935,-1.7212,-1.7407,-1.7666,-1.7857,-1.8026,-2.7646,-2.7471,-2.691,-2.7608,-2.8843,-2.8871,-2.8388,-2.7785,-2.7602,-2.7082,-2.6401,-2.6074,-2.5847,-2.5589,-2.5309,-2.4942,-2.4747,-2.4716,-2.4537,-2.408,-2.3536,-2.3159,-2.2767,-2.2341,-2.1948,-2.1343,-2.1374,-2.1305,-2.0836,-2.1063,-2.1052,-2.1027,-2.1477,-2.2181,-2.3243,-2.3164,-2.2942,-2.2703,-2.2317,-2.2069,-2.1842,-2.1558,-2.1175,-2.0857,-2.0605,-2.0372,-2.0099,-1.9972,-1.9747,-1.949,-1.9332,-1.9125,-1.8758,-1.8727,-1.8479,-1.8118,-1.8029,-1.7827,-1.7553,-1.8327,-1.8447,-1.8407,-1.8238,-1.7957,-1.7732,-1.7529,-1.7229,-1.6895,-1.6731,-1.6535,-1.6247,-1.5959,-1.5752,-1.5462,-1.522,-1.5006,-1.4951,-1.495,-1.498,-1.4955,-1.4973,-1.4956,-1.443,-1.4184,-1.4603,-1.5121,-1.565,-1.5656,-1.5425,-1.5283,-1.5276,-1.5067,-1.4861,-1.4609,-1.4356,-1.4468,-1.4404,-1.4203,-1.3993,-1.3794,-1.3707,-1.349,-1.3479,-1.3605,-1.3436,-1.3188,-1.3284,-1.344,-1.4168,-1.481,-1.5489,-1.582,-1.609,-1.6304,-1.6453,-2.623,-2.6091,-2.5756,-2.5881,-2.636,-2.6741,-2.6653,-2.6319,-2.6015,-2.5676,-2.5236,-2.474,-2.4299,-2.4004,-2.3511,-2.3199,-2.2999,-2.2749,-2.2528,-2.2221,-2.1865,-2.1603,-2.1275,-2.0941,-2.0537,-2.042,-2.0237,-1.9933,-1.9659,-1.9661,-1.9484,-1.9409,-1.9592,-2.0384,-2.1464,-2.1759,-2.1652,-2.1318,-2.1078,-2.0885,-2.0566,-2.0235,-1.9932,-1.9648,-1.9441,-1.9164,-1.8838,-1.8718,-1.8527,-1.8215,-1.8126,-1.7836,-1.7472,-1.7391,-1.7188,-1.6862,-1.6739,-1.6535,-1.6131,-1.6247,-1.6419,-1.6624,-1.6829,-1.6576,-1.6255,-1.6139,-1.5842,-1.5511,-1.5379,-1.5179,-1.4845,-1.472,-1.451,-1.4097,-1.3808,-1.3548,-1.3433,-1.3492,-1.3497,-1.3353,-1.3338,-1.3239,-1.2845,-1.2597,-1.2877,-1.3108,-1.3536,-1.4076,-1.4034,-1.3842,-1.374,-1.3553,-1.3338,-1.3123,-1.3025,-1.3096,-1.3079,-1.2878,-1.2609,-1.2352,-1.23,-1.2363,-1.219,-1.2169,-1.1948,-1.1745,-1.186,-1.201,-1.2086,-1.2595,-1.3347,-1.4154,-1.458,-1.4761,-1.4943,-2.4829,-2.4659,-2.4312,-2.4047,-2.4059,-2.4976,-2.5223,-2.4754,-2.4249,-2.3927,-2.3702,-2.3154,-2.2769,-2.242,-2.1985,-2.1553,-2.1376,-2.1187,-2.1008,-2.0677,-2.0516,-2.0356,-2.0074,-1.9781,-1.9584,-1.9452,-1.921,-1.8888,-1.862,-1.8486,-1.8236,-1.8003,-1.797,-1.8569,-1.945,-1.9801,-2.0265,-2.0062,-1.9991,-1.9668,-1.9313,-1.9006,-1.8727,-1.8487,-1.8207,-1.7965,-1.7691,-1.7489,-1.7318,-1.7033,-1.6788,-1.6542,-1.6247,-1.6049,-1.5842,-1.5594,-1.5304,-1.5054,-1.4601,-1.43,-1.451,-1.4796,-1.5179,-1.5179,-1.4803,-1.4727,-1.4433,-1.4181,-1.4055,-1.3753,-1.3457,-1.3415,-1.3118,-1.2662,-1.24,-1.2143,-1.1971,-1.1999,-1.201,-1.1832,-1.1767,-1.1569,-1.1394,-1.1198,-1.114,-1.1277,-1.1468,-1.1955,-1.2495,-1.2393,-1.2242,-1.2004,-1.1863,-1.1702,-1.1599,-1.159,-1.1541,-1.1482,-1.1279,-1.1048,-1.1149,-1.1236,-1.097,-1.0734,-1.0719,-1.0664,-1.0508,-1.0553,-1.0739,-1.0909,-1.1359,-1.2126,-1.2899,-1.3288,-1.347,-2.3478,-2.3177,-2.2608,-2.2197,-2.2236,-2.3602,-2.3845,-2.3169,-2.2327,-2.1949,-2.1882,-2.1607,-2.1354,-2.1106,-2.0924,-2.0667,-2.0387,-2.0161,-1.9977,-1.9748,-1.9507,-1.9253,-1.9054,-1.8831,-1.8586,-1.8327,-1.808,-1.7867,-1.7604,-1.7329,-1.6985,-1.6666,-1.6626,-1.6931,-1.7391,-1.7858,-1.856,-1.8752,-1.8767,-1.8439,-1.8078,-1.7917,-1.7561,-1.7277,-1.6992,-1.6755,-1.6517,-1.6345,-1.6057,-1.5767,-1.5477,-1.5235,-1.5026,-1.4824,-1.4566,-1.4314,-1.3935,-1.347,-1.3124,-1.2826,-1.2571,-1.282,-1.3324,-1.3457,-1.3464,-1.3294,-1.3039,-1.2778,-1.2607,-1.2308,-1.2052,-1.1837,-1.1623,-1.1322,-1.102,-1.0791,-1.0581,-1.0518,-1.0502,-1.0426,-1.0355,-1.0217,-0.9903,-0.9719,-0.9562,-0.9509,-0.9604,-0.9797,-1.0288,-1.0841,-1.069,-1.0498,-1.0404,-1.0359,-1.0261,-1.0158,-1.0109,-1.006,-1.0113,-1.0028,-1.0099,-1.0061,-0.9839,-0.9685,-0.9652,-0.9575,-0.935,-0.9298,-0.9405,-0.9642,-0.9858,-1.0526,-1.1435,-1.1886,-1.21,-2.2158,-2.1914,-2.1501,-2.1273,-2.1213,-2.1337,-2.1436,-2.1502,-2.1256,-2.1071,-2.0805,-2.0592,-2.0366,-2.0215,-1.9911,-1.9682,-1.9452,-1.9253,-1.8998,-1.8764,-1.8509,-1.8307,-1.807,-1.7808,-1.7569,-1.7329,-1.7088,-1.6837,-1.6542,-1.6202,-1.5798,-1.5443,-1.5328,-1.5421,-1.5659,-1.5838,-1.6665,-1.7322,-1.7432,-1.7237,-1.6911,-1.6714,-1.6386,-1.6098,-1.5816,-1.5616,-1.5443,-1.5144,-1.4852,-1.4601,-1.4314,-1.4019,-1.3633,-1.3512,-1.3385,-1.2954,-1.2534,-1.2149,-1.1843,-1.1585,-1.1327,-1.0939,-1.1144,-1.1488,-1.1666,-1.1794,-1.1623,-1.1445,-1.1192,-1.0977,-1.0674,-1.0458,-1.0193,-0.9932,-0.9676,-0.9446,-0.9257,-0.9145,-0.909,-0.9005,-0.8942,-0.8742,-0.8474,-0.8276,-0.8124,-0.7928,-0.7829,-0.7975,-0.8322,-0.892,-0.9221,-0.9023,-0.8973,-0.8973,-0.8779,-0.868,-0.868,-0.868,-0.8779,-0.8829,-0.8749,-0.8667,-0.861,-0.8544,-0.8483,-0.8306,-0.8081,-0.8108,-0.826,-0.831,-0.8534,-0.9242,-0.9867,-1.0328,-1.0733,-2.1135,-2.088,-2.0635,-2.041,-2.0204,-1.9781,-1.9748,-1.9966,-2.0161,-2.0139,-1.9868,-1.9682,-1.9495,-1.9231,-1.8944,-1.8677,-1.8519,-1.825,-1.8022,-1.7765,-1.7535,-1.7295,-1.7054,-1.6811,-1.6559,-1.6324,-1.607,-1.5745,-1.5444,-1.5062,-1.4625,-1.4366,-1.4142,-1.4276,-1.4491,-1.454,-1.4801,-1.5494,-1.5933,-1.5974,-1.5775,-1.5526,-1.5235,-1.4943,-1.4664,-1.4489,-1.4279,-1.3928,-1.3717,-1.3421,-1.3173,-1.2869,-1.2485,-1.2357,-1.2015,-1.1585,-1.1241,-1.0895,-1.0636,-1.0332,-0.9985,-0.9637,-0.9331,-0.9414,-0.9802,-1.0058,-1.0058,-1.0019,-0.985,-0.9637,-0.9375,-0.9113,-0.8846,-0.858,-0.838,-0.8136,-0.7971,-0.7816,-0.7701,-0.7574,-0.7452,-0.7298,-0.7083,-0.6933,-0.6734,-0.6534,-0.6387,-0.6334,-0.6781,-0.7378,-0.7677,-0.763,-0.7633,-0.7584,-0.7437,-0.7388,-0.7434,-0.7434,-0.7484,-0.7484,-0.7388,-0.7381,-0.7406,-0.7387,-0.731,-0.7149,-0.7034,-0.7111,-0.7178,-0.7227,-0.7219,-0.7678,-0.8309,-0.889,-0.9253,-2.0302,-1.9977,-1.9857,-1.9518,-1.9144,-1.8831,-1.8596,-1.8442,-1.8867,-1.9044,-1.8921,-1.8764,-1.8539,-1.8293,-1.8003,-1.7765,-1.7535,-1.727,-1.7019,-1.6759,-1.6515,-1.6289,-1.6009,-1.5762,-1.5551,-1.5303,-1.501,-1.4681,-1.4358,-1.4006,-1.3688,-1.339,-1.322,-1.3285,-1.3413,-1.3458,-1.3635,-1.3941,-1.4391,-1.4601,-1.4559,-1.4356,-1.4062,-1.373,-1.3519,-1.3385,-1.3045,-1.2833,-1.2656,-1.2314,-1.2015,-1.1757,-1.1413,-1.102,-1.0593,-1.0289,-0.9941,-0.9637,-0.9375,-0.9026,-0.8715,-0.8408,-0.8149,-0.7925,-0.8141,-0.8711,-0.893,-0.8707,-0.8492,-0.8277,-0.8017,-0.7841,-0.7617,-0.7353,-0.7098,-0.684,-0.6636,-0.6526,-0.6421,-0.6295,-0.6168,-0.5984,-0.5784,-0.5582,-0.5331,-0.5138,-0.5039,-0.4937,-0.5135,-0.5782,-0.6082,-0.6234,-0.6384,-0.6384,-0.6334,-0.6284,-0.6284,-0.6284,-0.6287,-0.6287,-0.6287,-0.6284,-0.6284,-0.6268,-0.6252,-0.622,-0.6157,-0.6135,-0.6149,-0.6099,-0.6151,-0.6203,-0.6665,-0.736,-0.7934,-1.9408,-1.9098,-1.8798,-1.8462,-1.807,-1.7818,-1.7647,-1.7501,-1.7285,-1.756,-1.791,-1.7818,-1.7613,-1.7398,-1.7079,-1.6846,-1.6612,-1.6289,-1.6053,-1.5754,-1.5507,-1.5251,-1.4974,-1.4724,-1.4482,-1.423,-1.3934,-1.3564,-1.32,-1.2922,-1.2716,-1.2399,-1.2285,-1.2402,-1.25,-1.2531,-1.2609,-1.2687,-1.2784,-1.3124,-1.3252,-1.3294,-1.313,-1.2747,-1.2534,-1.2314,-1.1972,-1.1677,-1.137,-1.1068,-1.0809,-1.0511,-1.0125,-0.9637,-0.9283,-0.8938,-0.8719,-0.8412,-0.8105,-0.7753,-0.7445,-0.7132,-0.6871,-0.6653,-0.6786,-0.7489,-0.7705,-0.7397,-0.7177,-0.6959,-0.6741,-0.6564,-0.6343,-0.6121,-0.5827,-0.5589,-0.53,-0.5232,-0.5152,-0.5066,-0.492,-0.4732,-0.4533,-0.4282,-0.3982,-0.3833,-0.3734,-0.3633,-0.3682,-0.4081,-0.4529,-0.4782,-0.5135,-0.5186,-0.5183,-0.5183,-0.5183,-0.5183,-0.5186,-0.5186,-0.5183,-0.5183,-0.5183,-0.5186,-0.5175,-0.5153,-0.5146,-0.5155,-0.5122,-0.5074,-0.5043,-0.5109,-0.5273,-0.5852,-0.6555,-1.8654,-1.8293,-1.7964,-1.7579,-1.7226,-1.6994,-1.683,-1.6656,-1.6298,-1.6289,-1.6629,-1.6716,-1.6691,-1.6429,-1.6114,-1.586,-1.5657,-1.5294,-1.5054,-1.4804,-1.4474,-1.4222,-1.397,-1.3716,-1.3426,-1.3142,-1.2732,-1.2328,-1.207,-1.1818,-1.1608,-1.139,-1.1389,-1.1465,-1.1525,-1.1611,-1.1654,-1.1574,-1.1451,-1.1542,-1.1843,-1.1966,-1.1966,-1.1671,-1.1456,-1.1235,-1.0895,-1.0598,-1.0294,-0.9946,-0.9593,-0.9205,-0.8855,-0.85,-0.8145,-0.7793,-0.7529,-0.7272,-0.6918,-0.6564,-0.6254,-0.5985,-0.5716,-0.5494,-0.5277,-0.5849,-0.6115,-0.5894,-0.5847,-0.5672,-0.5494,-0.5317,-0.5095,-0.4875,-0.4587,-0.4294,-0.4167,-0.4101,-0.4074,-0.4055,-0.388,-0.3681,-0.3479,-0.3327,-0.3077,-0.2823,-0.2675,-0.2573,-0.2573,-0.2523,-0.2924,-0.3277,-0.3627,-0.3981,-0.4083,-0.4083,-0.4083,-0.4083,-0.4081,-0.4083,-0.4081,-0.4083,-0.4083,-0.4081,-0.4081,-0.4079,-0.4079,-0.4083,-0.4083,-0.405,-0.4033,-0.4069,-0.4243,-0.4417,-0.5021,-1.7842,-1.7467,-1.7123,-1.6786,-1.6429,-1.6193,-1.6017,-1.585,-1.5497,-1.524,-1.5161,-1.5524,-1.5497,-1.539,-1.5133,-1.4947,-1.4653,-1.4294,-1.4086,-1.3833,-1.3462,-1.3208,-1.2959,-1.2673,-1.2372,-1.1996,-1.1558,-1.1366,-1.118,-1.0887,-1.0654,-1.0404,-1.0385,-1.0433,-1.0508,-1.0658,-1.0772,-1.0552,-1.0381,-1.0202,-1.0376,-1.0636,-1.0722,-1.0636,-1.0376,-1.0207,-0.9903,-0.9559,-0.9297,-0.8903,-0.8416,-0.8021,-0.7665,-0.7397,-0.7,-0.6647,-0.6381,-0.6163,-0.5811,-0.5413,-0.5099,-0.483,-0.4605,-0.4383,-0.4164,-0.4164,-0.4387,-0.4474,-0.4427,-0.4469,-0.4293,-0.416,-0.3939,-0.3607,-0.331,-0.3054,-0.3003,-0.2936,-0.2958,-0.2976,-0.2826,-0.2624,-0.2523,-0.2371,-0.217,-0.1917,-0.1765,-0.1664,-0.1563,-0.1564,-0.1715,-0.1866,-0.2068,-0.2421,-0.2875,-0.2976,-0.3026,-0.3026,-0.3025,-0.3026,-0.3027,-0.2976,-0.2975,-0.2976,-0.3026,-0.3026,-0.3026,-0.3026,-0.3026,-0.3027,-0.3016,-0.3002,-0.3103,-0.3292,-0.3607,-1.6716,-1.6377,-1.5991,-1.57,-1.5444,-1.5259,-1.5054,-1.4848,-1.4533,-1.4346,-1.4238,-1.3912,-1.3949,-1.4525,-1.4374,-1.4114,-1.3709,-1.3353,-1.3069,-1.2856,-1.2475,-1.2224,-1.1929,-1.1632,-1.1298,-1.0925,-1.055,-1.0363,-1.0191,-0.997,-0.9828,-0.971,-0.9752,-0.9774,-0.9824,-0.9923,-0.9971,-0.9689,-0.9467,-0.9336,-0.9244,-0.9506,-0.982,-0.9733,-0.9515,-0.9253,-0.8903,-0.8416,-0.8201,-0.7848,-0.7316,-0.6874,-0.6561,-0.6293,-0.5849,-0.5542,-0.5319,-0.5053,-0.4699,-0.43,-0.3987,-0.3851,-0.3626,-0.3312,-0.3047,-0.2823,-0.2957,-0.2957,-0.3001,-0.3267,-0.3224,-0.3178,-0.2959,-0.2507,-0.2136,-0.1954,-0.1863,-0.1892,-0.1913,-0.1816,-0.1716,-0.1615,-0.1515,-0.1363,-0.1212,-0.106,-0.1009,-0.0908,-0.0656,-0.0606,-0.0555,-0.0606,-0.0707,-0.116,-0.1714,-0.1866,-0.1917,-0.1917,-0.1917,-0.1917,-0.1917,-0.1917,-0.1917,-0.1917,-0.1917,-0.1916,-0.1917,-0.1917,-0.1917,-0.1917,-0.1917,-0.1914,-0.2017,-0.217,-0.2471]},{"header":{"parameterUnit":"m.s-1","parameterCategory":1,"la1":31.0,"la2":29.5877,"lo1":-88.7671,"lo2":-86.6584,"dy":0.0162,"dx":0.0185,"nx":115,"ny":88,"refTime":"2023-09-21T00:00:00:Z","depth":0,"parameterNumber":3,"parameterNumberName":"V-component_of_WINDS"},"data":[0.0,0.0,0.0,0.0,0.0,0.0,0.0,0.0,0.0,0.0,0.0,0.0,0.0,0.0,0.0,0.0,0.0,0.0,0.0,0.0,0.0,0.0,0.0,0.0,0.0,0.0,0.0,0.0,0.0,0.0,0.0,0.0,0.0,0.0,0.0,0.0,0.0,0.0,0.0,0.0,0.0,0.0,0.0,0.0,0.0,0.0,0.0,0.0,0.0,0.0,0.0,0.0,0.0,0.0,0.0,0.0,0.0,0.0,0.0,0.0,0.0,0.0,0.0,0.0,0.0,0.0,0.0,0.0,0.0,0.0,0.0,0.0,0.0,0.0,0.0,0.0,0.0,0.0,0.0,0.0,0.0,0.0,0.0,0.0,0.0,0.0,0.0,0.0,0.0,0.0,0.0,0.0,0.0,0.0,0.0,0.0,0.0,0.0,0.0,0.0,0.0,0.0,0.0,0.0,0.0,0.0,0.0,0.0,0.0,0.0,0.0,0.0,0.0,0.0,0.0,0.0,0.0,0.0,0.0,0.0,0.0,0.0,0.0,0.0,0.0,0.0,0.0,0.0,0.0,0.0,0.0,0.0,0.0,0.0,0.0,0.0,0.0,0.0,0.0,0.0,0.0,0.0,0.0,0.0,0.0,0.0,0.0,0.0,0.0,0.0,0.0,0.0,0.0,0.0,0.0,0.0,0.0,0.0,0.0,0.0,0.0,0.0,0.0,0.0,0.0,0.0,0.0,0.0,0.0,0.0,0.0,0.0,0.0,0.0,0.0,0.0,0.0,0.0,0.0,0.0,0.0,0.0,0.0,0.0,0.0,0.0,0.0,0.0,0.0,0.0,0.0,0.0,0.0,0.0,0.0,0.0,0.0,0.0,0.0,0.0,0.0,0.0,0.0,0.0,0.0,0.0,0.0,0.0,0.0,0.0,0.0,0.0,0.0,0.0,0.0,0.0,0.0,0.0,0.0,0.0,0.0,0.0,0.0,0.0,0.0,0.0,0.0,0.0,0.0,0.0,0.0,0.0,0.0,0.0,0.0,0.0,0.0,0.0,0.0,0.0,0.0,0.0,0.0,0.0,0.0,0.0,0.0,0.0,0.0,0.0,0.0,0.0,0.0,0.0,0.0,0.0,0.0,0.0,0.0,0.0,0.0,0.0,0.0,0.0,0.0,0.0,0.0,0.0,0.0,0.0,0.0,0.0,0.0,0.0,0.0,0.0,0.0,0.0,0.0,0.0,0.0,0.0,0.0,0.0,0.0,0.0,0.0,0.0,0.0,0.0,0.0,0.0,0.0,0.0,0.0,0.0,0.0,0.0,0.0,0.0,0.0,0.0,0.0,0.0,0.0,0.0,0.0,0.0,0.0,0.0,0.0,0.0,0.0,0.0,0.0,0.0,0.0,0.0,0.0,0.0,0.0,0.0,0.0,0.0,0.0,0.0,0.0,0.0,0.0,0.0,0.0,0.0,0.0,0.0,0.0,0.0,0.0,0.0,0.0,0.0,0.0,0.0,0.0,0.0,0.0,0.0,0.0,0.0,0.0,0.0,0.0,0.0,0.0,0.0,0.0,0.0,0.0,0.0,0.0,0.0,0.0,0.0,0.0,0.0,0.0,0.0,0.0,0.0,0.0,0.0,0.0,0.0,0.0,0.0,0.0,0.0,0.0,0.0,0.0,0.0,0.0,0.0,0.0,0.0,0.0,0.0,0.0,0.0,0.0,0.0,0.0,0.0,0.0,0.0,0.0,0.0,0.0,0.0,0.0,0.0,0.0,0.0,0.0,0.0,0.0,0.0,0.0,0.0,0.0,0.0,0.0,0.0,0.0,0.0,0.0,0.0,0.0,0.0,0.0,0.0,0.0,0.0,0.0,0.0,0.0,0.0,0.0,0.0,0.0,0.0,0.0,0.0,0.0,0.0,0.0,0.0,0.0,0.0,0.0,0.0,0.0,0.0,0.0,0.0,0.0,0.0,0.0,0.0,0.0,0.0,0.0,0.0,0.0,0.0,0.0,0.0,0.0,0.0,0.0,0.0,0.0,0.0,0.0,0.0,0.0,0.0,0.0,0.0,0.0,0.0,0.0,0.0,0.0,0.0,0.0,0.0,0.0,0.0,0.0,0.0,0.0,0.0,0.0,0.0,0.0,0.0,0.0,0.0,0.0,0.0,0.0,0.0,0.0,0.0,0.0,0.0,0.0,0.0,0.0,0.0,0.0,0.0,0.0,0.0,0.0,0.0,0.0,0.0,0.0,0.0,0.0,0.0,0.0,0.0,0.0,0.0,0.0,0.0,0.0,0.0,0.0,0.0,0.0,0.0,0.0,0.0,0.0,0.0,0.0,0.0,0.0,0.0,0.0,0.0,0.0,0.0,0.0,0.0,0.0,0.0,0.0,0.0,0.0,0.0,0.0,0.0,0.0,0.0,0.0,0.0,0.0,0.0,0.0,0.0,0.0,0.0,0.0,0.0,0.0,0.0,0.0,0.0,0.0,0.0,0.0,0.0,0.0,0.0,0.0,0.0,0.0,0.0,0.0,0.0,0.0,0.0,0.0,0.0,0.0,0.0,0.0,0.0,0.0,0.0,0.0,0.0,0.0,0.0,0.0,0.0,0.0,0.0,0.0,0.0,0.0,0.0,0.0,0.0,0.0,0.0,0.0,0.0,0.0,0.0,0.0,0.0,0.0,0.0,0.0,0.0,0.0,0.0,0.0,0.0,0.0,0.0,0.0,0.0,0.0,0.0,0.0,0.0,0.0,0.0,0.0,0.0,0.0,0.0,0.0,0.0,0.0,0.0,0.0,0.0,0.0,0.0,0.0,0.0,0.0,0.0,0.0,0.0,0.0,0.0,0.0,0.0,0.0,0.0,0.0,0.0,0.0,0.0,0.0,0.0,0.0,0.0,0.0,0.0,0.0,0.0,0.0,0.0,0.0,0.0,0.0,0.0,0.0,0.0,0.0,0.0,0.0,0.0,0.0,0.0,0.0,0.0,0.0,0.0,0.0,0.0,0.0,0.0,0.0,0.0,0.0,0.0,0.0,0.0,0.0,0.0,0.0,0.0,0.0,0.0,0.0,0.0,0.0,0.0,0.0,0.0,0.0,0.0,0.0,0.0,0.0,0.0,0.0,0.0,0.0,0.0,0.0,0.0,0.0,0.0,0.0,0.0,0.0,0.0,0.0,0.0,0.0,0.0,0.0,0.0,0.0,0.0,0.0,0.0,0.0,0.0,0.0,0.0,0.0,0.0,0.0,0.0,0.0,0.0,0.0,0.0,0.0,0.0,0.0,0.0,0.0,0.0,0.0,0.0,0.0,0.0,0.0,0.0,0.0,0.0,0.0,0.0,0.0,0.0,0.0,0.0,0.0,0.0,0.0,0.0,0.0,0.0,0.0,0.0,0.0,0.0,0.0,0.0,0.0,0.0,0.0,0.0,0.0,0.0,0.0,0.0,0.0,0.0,0.0,0.0,0.0,0.0,0.0,0.0,0.0,0.0,0.0,0.0,0.0,0.0,0.0,0.0,0.0,0.0,0.0,0.0,0.0,0.0,0.0,0.0,0.0,0.0,0.0,0.0,0.0,0.0,0.0,0.0,0.0,0.0,0.0,0.0,0.0,0.0,0.0,0.0,0.0,0.0,0.0,0.0,0.0,0.0,0.0,0.0,0.0,0.0,0.0,0.0,0.0,0.0,0.0,0.0,0.0,0.0,0.0,0.0,0.0,0.0,0.0,0.0,0.0,0.0,0.0,0.0,0.0,0.0,0.0,0.0,0.0,0.0,0.0,0.0,0.0,0.0,0.0,0.0,0.0,0.0,0.0,0.0,0.0,0.0,0.0,0.0,0.0,0.0,0.0,0.0,0.0,0.0,0.0,0.0,0.0,0.0,0.0,0.0,0.0,0.0,0.0,0.0,0.0,0.0,0.0,0.0,0.0,0.0,0.0,0.0,0.0,0.0,0.0,0.0,0.0,0.0,0.0,0.0,0.0,0.0,0.0,0.0,0.0,0.0,0.0,0.0,0.0,0.0,0.0,0.0,0.0,0.0,0.0,0.0,0.0,0.0,0.0,0.0,0.0,0.0,0.0,0.0,0.0,0.0,0.0,0.0,0.0,0.0,0.0,0.0,0.0,0.0,0.0,0.0,0.0,0.0,0.0,0.0,0.0,0.0,0.0,0.0,0.0,0.0,0.0,0.0,0.0,0.0,0.0,0.0,0.0,0.0,0.0,0.0,0.0,0.0,0.0,0.0,0.0,0.0,0.0,0.0,0.0,0.0,0.4053,0.0,0.0,0.0,0.0,0.0,0.0,0.0,0.0,0.0,0.0,0.0,0.0,0.0,0.0,0.0,0.0,0.0,0.0,0.0,0.0,0.0,0.0,0.0,0.0,0.0,0.0,0.0,0.0,0.0,0.0,0.0,0.0,0.0,0.0,0.0,0.0,0.0,0.0,0.0,0.0,0.0,0.0,0.0,0.0,0.0,0.0,0.0,0.0,0.0,0.0,0.0,0.0,0.0,0.0,0.0,0.0,0.0,0.0,0.0,0.0,0.0,0.0,0.0,0.0,0.0,0.0,0.0,0.0,0.0,0.0,0.0,0.0,0.0,0.0,0.0,0.0,0.0,0.0,0.0,0.0,0.0,0.0,0.0,0.0,0.0,0.0,0.0,0.0,0.0,0.0,0.0,0.0,0.0,0.0,0.0,0.0,0.0,0.0,0.0,0.0,0.0,0.0,0.0,0.0,0.0,0.0,0.0,0.0,0.0,0.0,0.4985,0.4537,0.3934,0.3416,0.3087,0.0,0.0,0.0,0.0,0.0,0.0,0.0,0.0,0.0,0.0,0.0,0.0,0.0,0.0,0.0,0.0,0.0,0.0,0.0,0.0,0.0,0.0,0.0,0.0,0.0,0.0,0.0,0.0,0.0,0.0,0.0,0.0,0.0,0.0,0.0,0.0,0.0,0.0,0.0,0.0,0.0,0.0,0.0,0.0,0.0,0.0,0.0,0.0,0.0,0.0,0.0,0.0,0.0,0.0,0.0,0.0,0.0,0.0,0.0,0.0,0.0,0.0,0.0,0.0,0.0,0.0,0.0,0.0,0.0,0.0,0.0,0.0,0.0,0.0,0.0,0.0,0.0,0.0,0.0,0.0,0.0,0.0,0.0,0.0,0.0,0.0,0.0,0.0,0.0,0.0,0.0,0.0,0.0,0.0,0.0,0.0,0.0,0.0,0.0,0.0,0.0,0.0,0.0,0.0,0.0,0.0,0.0,0.0,0.0,0.0,0.0,0.0,0.3179,0.2523,0.1865,0.0,0.0,0.0,0.0,0.0,0.0,0.0,0.0,0.0,0.0,0.0,0.0,0.0,0.0,0.0,0.0,0.0,0.0,0.0,0.0,0.0,0.0,0.0,0.0,0.0,0.0,0.0,0.0,0.0,0.0,0.0,0.0,0.0,0.0,0.0,0.0,0.0,0.0,0.0,0.0,0.0,0.0,0.0,0.0,0.0,0.0,0.0,0.0,0.0,0.0,0.0,0.0,0.0,0.0,0.0,0.0,0.0,0.0,0.0,0.0,0.0,0.0,0.0,0.0,0.0,0.0,0.0,0.0,0.0,0.0,0.0,0.0,0.0,0.0,0.0,0.0,0.0,0.0,0.0,0.0,0.0,0.0,0.0,0.0,0.0,0.0,0.0,0.0,0.0,0.0,0.0,0.0,0.0,0.0,0.0,0.0,0.0,0.0,0.0,0.0,0.0,0.0,0.0,0.0,0.0,0.0,0.0,0.0,0.0,0.0,0.3331,0.3281,0.2272,0.0,0.0303,0.0,0.0,0.0,0.0,0.0,0.0,0.0,0.0,0.0,0.0,0.0,0.0,0.0,0.0,0.0,0.0,0.0,0.0,0.0,0.0,0.0,0.0,0.0,0.0,0.0,0.0,0.0,0.0,0.0,0.0,0.0,0.0,0.0,0.0,0.0,0.0,0.0,0.0,0.0,0.0,0.0,0.0,0.0,0.0,0.0,0.0,0.0,0.0,0.0,0.0,0.0,0.0,0.0,0.0,0.0,0.0,0.0,0.0,0.0,0.0,0.0,0.0,0.0,0.0,0.0,0.0,0.0,0.0,0.0,0.0,0.0,0.0,0.0,0.0,0.0,0.0,0.0,0.0,0.0,0.0,0.0,0.0,0.0,0.0,0.0,0.0,0.0,0.0,0.0,0.0,0.0,0.0,0.0,0.0,0.0,0.0,0.0,0.0,0.0,0.0,0.0,0.0,0.0,0.0,0.0,0.0,0.0,0.0,0.0,0.0,0.2725,0.2273,0.1212,0.0455,0.0,0.0,0.0,0.0,0.0,0.0,0.0,0.0,0.0,0.0,0.0,0.0,0.0,0.0,0.0,0.0,0.0,0.0,0.0,0.0,0.0,0.0,0.0,0.0,0.0,0.0,0.0,0.0,0.0,0.0,0.0,0.0,0.0,0.0,0.0,0.0,0.0,0.0,0.0,0.0,0.0,0.0,0.0,0.0,0.0,0.0,0.0,0.0,0.0,0.0,0.0,0.0,0.0,0.0,0.0,0.0,0.0,0.0,0.0,0.0,0.0,0.0,0.0,0.0,0.0,0.0,0.0,0.0,0.0,0.0,0.0,0.0,0.0,0.0,0.0,0.0,0.0,0.0,0.0,0.0,0.0,0.0,0.0,0.0,0.0,0.0,0.0,0.0,0.0,0.0,0.0,0.0,0.0,0.0,0.0,0.0,0.0,0.0,0.0,0.0,0.0,0.0,0.0,0.0,0.0,0.0,0.0,0.0,0.0,0.0,0.2624,0.207,0.1162,0.0404,-0.0151,-0.0455,0.0,0.0,0.0,0.0,0.0,0.0,0.0,0.0,0.0,0.0,0.0,0.0,0.0,0.0,0.0,0.0,0.0,0.0,0.0,0.0,0.0,0.0,0.0,0.0,0.0,0.0,0.0,0.0,0.0,0.0,0.0,0.0,0.0,0.0,0.0,0.0,0.0,0.0,0.0,0.0,0.0,0.0,0.0,0.0,0.0,0.0,0.0,0.0,0.0,0.0,0.0,0.0,0.0,0.0,0.0,0.0,0.0,0.0,0.0,0.0,0.0,0.0,0.0,0.0,0.0,0.0,0.0,0.0,0.0,0.0,0.0,0.0,0.0,0.0,0.0,0.0,0.0,0.0,0.0,0.0,0.0,0.0,0.0,0.0,0.0,0.0,0.0,0.0,0.0,0.0,0.0,0.0,0.0,0.0,0.0,0.0,0.0,0.0,0.0,0.0,0.0,0.0,0.0,0.0,0.0,0.0,0.0,0.0,0.2118,0.1768,0.1162,0.0151,0.0,-0.0455,0.0,0.0,0.0,0.0,0.0,0.0,0.0,0.0,0.0,0.0,0.0,0.0,0.0,0.0,0.0,0.0,0.0,0.0,0.0,0.0,0.0,0.0,0.0,0.0,0.0,0.0,0.0,0.0,0.0,0.0,0.0,0.0,0.0,0.0,0.0,0.0,0.0,0.0,0.0,0.0,0.0,0.0,0.0,0.0,0.0,0.0,0.0,0.0,0.0,0.0,0.0,0.0,0.0,0.0,0.0,0.0,0.0,0.0,0.0,0.0,0.0,0.0,0.0,0.0,0.0,0.0,0.0,0.0,0.0,0.0,0.0,0.0,0.0,0.0,0.0,0.0,0.0,0.0,0.0,0.0,0.0,0.0,0.0,0.0,0.0,0.0,0.0,0.0,0.0,0.0,0.0,0.0,0.0,0.0,0.0,0.0,0.0,0.0,0.0,0.0,0.0,0.0,0.0,0.0,0.0,0.0,0.0,0.0,0.0,0.1716,0.096,0.0404,0.0,-0.0657,-0.1212,0.0,0.0,0.0,0.0,0.0,0.0,0.0,0.0,0.0,0.0,0.0,0.0,0.0,0.0,0.0,0.0,0.0,0.0,0.0,0.0,0.0,0.0,0.0,0.0,0.0,0.0,0.0,0.0,0.0,0.0,0.0,0.0,0.0,0.0,0.0,0.0,0.0,0.0,0.0,0.0,0.0,0.0,0.0,0.0,0.0,0.0,0.0,0.0,0.0,0.0,0.0,0.0,0.0,0.0,0.0,0.0,0.0,0.0,0.0,0.0,0.0,0.0,0.0,0.0,0.0,0.0,0.0,0.0,0.0,0.0,0.0,0.0,0.0,0.0,0.0,0.0,0.0,0.0,0.0,0.0,0.0,0.0,0.0,0.0,0.0,0.0,0.0,0.0,0.0,0.0,0.0,0.0,0.0,0.0,0.0,0.0,0.0,0.0,0.0,0.0,0.0,0.0,0.0,0.0,0.0,0.0,0.0,0.0,0.0,0.1061,0.0,-0.0252,0.0,-0.1212,-0.1768,0.0,0.0,0.0,0.0,0.0,0.0,0.0,0.0,0.0,0.0,0.0,0.0,0.0,0.0,0.0,0.0,0.0,0.0,0.0,0.0,0.0,0.0,0.0,0.0,0.0,0.0,0.0,0.0,0.0,0.0,0.0,0.0,0.0,0.0,0.0,0.0,0.0,0.0,0.0,0.0,0.0,0.0,0.0,0.0,0.0,0.0,0.0,0.0,0.0,0.0,0.0,0.0,0.0,0.0,0.0,0.0,0.0,0.0,0.0,0.0,0.0,0.0,0.0,0.0,0.0,0.0,0.0,0.0,0.0,0.0,0.0,0.0,0.0,0.0,0.0,0.0,0.0,0.0,0.0,0.0,0.0,0.0,0.0,0.0,0.0,0.0,0.0,0.0,0.0,0.0,0.0,0.0,0.0,0.0,0.0,0.0,0.0,0.0,0.0,0.0,0.0,0.0,0.0,0.0,0.0,0.0,0.0,0.0,0.1061,0.005,-0.0252,-0.0808,-0.1566,-0.1617,-0.2121,0.0,0.0,0.0,0.0,0.0,0.0,0.0,0.0,0.0,0.0,0.0,0.0,0.0,0.0,0.0,0.0,0.0,0.0,0.0,0.0,0.0,0.0,0.0,0.0,0.0,0.0,0.0,0.0,0.0,0.0,0.0,0.0,0.0,0.0,0.0,0.0,0.0,0.0,0.0,0.0,0.0,0.0,0.0,0.0,0.0,0.0,0.0,0.0,0.0,0.0,0.0,0.0,0.0,0.0,0.0,0.0,0.0,0.0,0.0,0.0,0.0,0.0,0.0,0.0,0.0,0.0,0.0,0.0,0.0,0.0,0.0,0.0,0.0,0.0,0.0,0.0,0.0,0.0,0.0,0.0,0.0,0.0,0.0,0.0,0.0,0.0,0.0,0.0,0.0,0.0,0.0,0.0,0.0,0.0,0.0,0.0,0.0,0.0,0.0,0.0,0.0,0.0,0.0,0.0,0.0,0.0,0.0,0.0,0.0,-0.0252,-0.0707,-0.1162,-0.1566,-0.1969,-0.2472,0.0,0.0,0.0,0.0,0.0,0.0,0.0,0.0,0.0,0.0,0.0,0.0,0.0,0.0,0.0,0.0,0.0,0.0,0.0,0.0,0.0,0.0,0.0,0.0,0.0,0.0,0.0,0.0,0.0,0.0,0.0,0.0,0.0,0.0,0.0,0.0,0.0,0.0,0.0,0.0,0.0,0.0,0.0,0.0,0.0,0.0,0.0,0.0,0.0,0.0,0.0,0.0,0.0,0.0,0.0,0.0,0.0,0.0,0.0,0.0,0.0,0.0,0.0,0.0,0.0,0.0,0.0,0.0,0.0,0.0,0.0,0.0,0.0,0.0,0.0,0.0,0.0,0.0,0.0,0.0,0.0,0.0,0.0,0.0,0.0,0.0,0.0,0.0,0.0,0.0,0.0,0.0,0.0,0.0,0.0,0.0,0.0,0.0,0.0,0.0,0.0,0.0,0.0,0.0,0.0,0.0,0.0,0.0,0.0,-0.0707,-0.1111,-0.1516,-0.1869,-0.2422,-0.2927,-0.3482,0.0,0.0,0.0,0.0,0.0,0.0,0.0,0.0,0.0,0.0,0.0,0.0,0.0,0.0,0.0,0.0,0.0,0.0,0.0,0.0,0.0,0.0,0.0,0.0,0.0,0.0,0.0,0.0,0.0,0.0,0.0,0.0,0.0,0.0,0.0,0.0,0.0,0.0,0.0,0.0,0.0,0.0,0.0,0.0,0.0,0.0,0.0,0.0,0.0,0.0,0.0,0.0,0.0,0.0,0.0,0.0,0.0,0.0,0.0,0.0,0.0,0.0,0.0,0.0,0.0,0.0,0.0,0.0,0.0,0.0,0.0,0.0,0.0,0.0,0.0,0.0,0.0,0.0,0.0,0.0,0.0,0.0,0.0,0.0,0.0,0.0,0.0,0.0,0.0,0.0,0.0,0.0,0.0,0.0,0.0,0.0,0.0,0.0,0.0,0.0,0.0,0.0,0.0,0.0,0.0,0.0,0.0,0.0,-0.1263,-0.1516,-0.1869,-0.2371,-0.2927,-0.3432,0.0,0.0,0.0,0.0,0.0,0.0,0.0,0.0,0.0,0.0,0.0,0.0,0.0,0.0,0.0,0.0,0.0,0.0,0.0,0.0,0.0,0.0,0.0,0.0,0.0,0.0,0.0,0.0,0.0,0.0,0.0,0.0,0.0,0.0,0.0,0.0,0.0,0.0,0.0,0.0,0.0,0.0,0.0,0.0,0.0,0.0,0.0,0.0,0.0,0.0,0.0,0.0,0.0,0.0,0.0,0.0,0.0,0.0,0.0,0.0,0.0,0.0,0.0,0.0,0.0,0.0,0.0,0.0,0.0,0.0,0.0,0.0,0.0,0.0,0.0,0.0,0.0,0.0,0.0,0.0,0.0,0.0,0.0,0.0,0.0,0.0,0.0,0.0,0.0,0.0,0.0,0.0,0.0,0.0,0.0,0.0,0.0,0.0,0.0,0.0,0.0,0.0,0.0,0.0,0.0,0.0,0.0,0.0,0.0,-0.1768,-0.207,-0.227,-0.2422,-0.2927,-0.3432,0.0,0.0,0.0,0.0,0.0,0.0,0.0,0.0,0.0,0.0,0.0,0.0,0.0,0.0,0.0,0.0,0.0,0.0,0.0,0.0,0.0,0.0,0.0,0.0,0.0,0.0,0.0,0.0,0.0,0.0,0.0,0.0,0.0,0.0,0.0,0.0,0.0,0.0,0.0,0.0,0.0,0.0,0.0,0.0,0.0,0.0,0.0,0.0,0.0,0.0,0.0,0.0,0.0,0.0,0.0,0.0,0.0,0.0,0.0,0.0,0.0,0.0,0.0,0.0,0.0,0.0,0.0,0.0,0.0,0.0,0.0,0.0,0.0,0.0,0.0,0.0,0.0,0.0,0.0,0.0,0.0,0.0,0.0,0.0,0.0,0.0,0.0,0.0,0.0,0.0,0.0,0.0,0.0,0.0,0.0,0.0,0.0,0.0,0.0,0.0,0.0,0.0,0.0,0.0,0.0,0.0,0.0,0.0,-0.1718,-0.2022,-0.2271,-0.2472,-0.2573,-0.3179,-0.3682,0.0,0.0,0.0,0.0,0.0,0.0,0.0,0.0,0.0,0.0,0.0,0.0,0.0,0.0,0.0,0.0,0.0,0.0,0.0,0.0,0.0,0.0,0.0,0.0,0.0,0.0,0.0,0.0,0.0,0.0,0.0,0.0,0.0,0.0,0.0,0.0,0.0,0.0,0.0,0.0,0.0,0.0,0.0,0.0,0.0,0.0,0.0,0.0,0.0,0.0,0.0,0.0,0.0,0.0,0.0,0.0,0.0,0.0,0.0,0.0,0.0,0.0,0.0,0.0,0.0,0.0,0.0,0.0,0.0,0.0,0.0,0.0,0.0,0.0,0.0,0.0,0.0,0.0,0.0,0.0,0.0,0.0,0.0,0.0,0.0,0.0,0.0,0.0,0.0,0.0,0.0,0.0,0.0,0.0,0.0,0.0,0.0,0.0,0.0,0.0,0.0,0.0,0.0,0.0,0.0,0.0,0.0,0.0,-0.1718,-0.2022,-0.2271,-0.2573,-0.2876,-0.3581,-0.4034,0.0,0.0,0.0,0.0,0.0,0.0,0.0,0.0,0.0,0.0,0.0,0.0,0.0,0.0,0.0,0.0,0.0,0.0,0.0,0.0,0.0,0.0,0.0,0.0,0.0,0.0,0.0,0.0,0.0,0.0,0.0,0.0,0.0,0.0,0.0,0.0,0.0,0.0,0.0,0.0,0.0,0.0,0.0,0.0,0.0,0.0,0.0,0.0,0.0,0.0,0.0,0.0,0.0,0.0,0.0,0.0,0.0,0.0,0.0,0.0,0.0,0.0,0.0,0.0,0.0,0.0,0.0,0.0,0.0,0.0,0.0,0.0,0.0,0.0,0.0,0.0,0.0,0.0,0.0,0.0,0.0,0.0,0.0,0.0,0.0,0.0,0.0,0.0,0.0,0.0,0.0,0.0,0.0,0.0,0.0,0.0,0.0,0.0,0.0,0.0,0.0,0.0,0.0,0.0,0.0,0.0,0.0,0.0,-0.1818,-0.227,-0.2371,-0.2725,-0.3383,-0.3783,-0.4085,0.0,0.0,0.0,0.0,0.0,0.0,0.0,0.0,0.0,0.0,0.0,0.0,0.0,0.0,0.0,0.0,0.0,0.0,0.0,0.0,0.0,0.0,0.0,0.0,0.0,0.0,0.0,0.0,0.0,0.0,0.0,0.0,0.0,0.0,0.0,0.0,0.0,0.0,0.0,0.0,0.0,0.0,0.0,0.0,0.0,0.0,0.0,0.0,-0.371,0.0,0.0,0.0,0.0,0.0,0.0,0.0,0.0,0.0,0.0,0.0,0.0,0.0,0.0,0.0,0.0,0.0,0.0,0.0,0.0,0.0,0.0,0.0,0.0,0.0,0.0,0.0,0.0,0.0,0.0,0.0,0.0,0.0,0.0,0.0,0.0,0.0,0.0,0.0,0.0,0.0,0.0,0.0,0.0,0.0,0.0,0.0,0.0,0.0,0.0,0.0,0.0,0.0,0.0,0.0,0.0,0.0,0.0,0.0,-0.1869,-0.2371,-0.2422,-0.2775,-0.3586,-0.3885,-0.4183,0.0,0.0,0.0,0.0,0.0,0.0,0.0,0.0,0.0,0.0,0.0,0.0,0.0,0.0,0.0,0.0,0.0,0.0,0.0,0.0,0.0,0.0,0.0,0.0,0.0,0.0,0.0,0.0,0.0,0.0,0.0,0.0,0.0,0.0,0.0,0.0,0.0,0.0,0.0,0.0,0.0,0.0,0.0,0.0,0.0,0.0,0.0,0.0,0.0,0.0,0.0,0.0,0.0,0.0,0.0,0.0,0.0,0.0,0.0,0.0,0.0,0.0,0.0,0.0,0.0,0.0,0.0,0.0,0.0,0.0,0.0,0.0,0.0,0.0,0.0,0.0,0.0,0.0,0.0,0.0,0.0,0.0,0.0,0.0,0.0,0.0,0.0,0.0,0.0,0.0,0.0,0.0,0.0,0.0,0.0,0.0,0.0,0.0,0.0,0.0,0.0,0.0,0.0,0.0,0.0,0.0,0.0,-0.1566,-0.1869,-0.2371,-0.2422,-0.2775,-0.3586,-0.3885,-0.4234,-0.4834,0.0,0.0,0.0,0.0,0.0,0.0,0.0,0.0,0.0,0.0,0.0,0.0,0.0,0.0,0.0,0.0,0.0,0.0,0.0,0.0,0.0,0.0,0.0,0.0,0.0,0.0,0.0,0.0,0.0,0.0,0.0,0.0,0.0,0.0,0.0,0.0,0.0,0.0,0.318,0.2171,0.0,0.0,0.0,0.0,0.0,0.0,0.0,0.0,-0.4178,0.0,0.0,0.0,0.0,0.0,0.0,0.0,0.0,0.0,0.0,0.0,0.0,0.0,0.0,0.0,0.0,0.0,0.0,0.0,0.0,0.0,0.0,0.0,0.0,0.0,0.0,0.0,0.0,0.0,0.0,0.0,0.0,0.0,0.0,0.0,0.0,0.0,0.0,0.0,0.0,0.0,0.0,0.0,0.0,0.0,0.0,0.0,0.0,0.0,0.0,0.0,0.0,0.0,0.0,0.0,0.0,-0.1566,-0.1566,-0.1869,-0.2371,-0.2422,-0.2775,-0.3586,-0.3883,-0.4336,-0.509,0.0,0.0,0.0,0.0,0.0,0.0,0.0,0.0,0.0,0.0,0.0,0.0,0.0,0.0,0.0,0.0,0.0,0.0,0.0,0.0,0.0,0.0,0.0,0.0,0.0,0.0,0.0,0.0,0.0,0.0,0.0,0.0,0.0,0.0,0.0,0.0,0.0,0.0,0.0,0.1817,0.1162,0.0,0.0,0.0,0.0,0.0,0.0,0.0,0.0,-0.4638,0.0,0.0,0.0,0.0,0.0,0.0,0.0,0.0,0.0,0.0,0.0,0.0,0.0,0.0,0.0,0.0,0.0,0.0,0.0,0.0,0.0,0.0,0.0,0.0,0.0,0.0,0.0,0.0,0.0,0.0,0.0,0.0,0.0,0.0,0.0,0.0,0.0,0.0,0.0,0.0,0.0,0.0,0.0,0.0,0.0,0.0,0.0,0.0,0.0,0.0,0.0,0.0,0.0,0.0,0.0,-0.1566,-0.1566,-0.1869,-0.2371,-0.2422,-0.2775,-0.3586,-0.3885,-0.4336,0.0,0.0,0.0,0.0,0.0,0.0,0.0,0.0,0.0,0.0,0.0,0.0,0.0,0.0,0.0,0.0,0.0,0.0,0.0,0.0,0.0,0.0,0.0,0.0,0.0,0.0,0.0,0.0,0.0,0.0,0.0,0.0,0.0,0.0,0.0,0.0,0.0,0.0,0.0,0.0,0.1515,0.096,0.0808,0.0,0.0,0.0,0.0,0.0,0.0,-0.4085,-0.4458,0.0,0.0,0.0,0.0,0.0,0.0,0.0,0.0,0.0,0.0,0.0,0.0,0.0,0.0,0.0,0.0,0.0,0.0,0.0,0.0,0.0,0.0,0.0,0.0,0.0,0.0,0.0,0.0,0.0,0.0,0.0,0.0,0.0,0.0,0.0,0.0,0.0,0.0,0.0,0.0,0.0,0.0,0.0,0.0,0.0,0.0,0.0,0.0,0.0,0.0,0.0,0.0,0.0,0.0,0.0,-0.1566,-0.1566,-0.1869,-0.2371,-0.2422,-0.2775,-0.3485,-0.3835,-0.4234,0.0,0.0,0.0,0.0,0.0,0.0,0.0,0.0,0.0,0.0,0.0,0.0,0.0,0.0,0.0,0.0,0.0,0.0,0.0,0.0,0.0,0.0,0.0,0.0,0.0,0.0,0.0,0.0,0.0,0.0,0.0,0.0,0.0,0.0,0.0,0.0,0.0,0.0,0.0,0.0,0.0,0.0808,0.0808,-0.0101,0.0,0.0,0.0,0.0,-0.3783,-0.3934,0.0,0.0,0.0,0.0,0.0,0.0,0.0,0.0,0.0,0.0,0.0,0.0,0.0,0.0,0.0,0.0,0.0,0.0,0.0,0.0,0.0,0.0,0.0,0.0,0.0,0.0,0.0,0.0,0.0,0.0,0.0,0.0,0.0,0.0,0.0,0.0,0.0,0.0,0.0,0.0,0.0,0.0,0.0,0.0,0.0,0.0,0.0,0.0,0.0,0.0,0.0,0.0,0.0,0.0,0.0,0.0,-0.1566,-0.1566,-0.1869,-0.2371,-0.2422,-0.2675,-0.323,-0.3732,-0.4133,0.0,0.0,0.0,0.0,0.0,0.0,0.0,0.0,0.0,0.0,0.0,0.0,0.0,0.0,0.0,0.0,0.0,0.0,0.0,0.0,0.0,0.0,0.0,0.0,0.0,0.0,0.0,0.0,0.0,0.0,0.0,0.0,0.0,0.0,0.0,0.0,0.0,0.0,0.0,0.0,0.0,0.0808,0.0808,-0.0101,-0.0959,0.0,0.0,-0.2675,-0.3534,-0.3835,0.0,0.0,0.0,0.0,0.0,0.0,0.0,0.0,0.0,0.0,0.0,0.0,0.0,0.0,0.0,0.0,0.0,0.0,0.0,0.0,0.0,0.0,0.0,0.0,0.0,0.0,0.0,0.0,0.0,0.0,0.0,0.0,0.0,0.0,0.0,0.0,0.0,0.0,0.0,0.0,0.0,0.0,0.0,0.0,0.0,0.0,0.0,0.0,0.0,0.0,0.0,0.0,0.0,0.0,0.0,-0.1566,-0.1566,-0.1566,-0.1768,-0.2171,-0.2322,-0.2573,-0.2978,-0.3482,-0.3885,0.0,0.0,0.0,0.0,0.0,0.0,0.0,0.0,0.0,0.0,0.0,0.0,0.0,0.0,0.0,0.0,0.0,0.0,0.0,0.0,0.0,0.0,0.0,0.0,0.0,0.0,0.0,0.0,0.0,0.0,0.0,0.0,0.0,0.0,0.0,0.0,0.0,0.0,0.0,0.0,0.0,0.0,0.0808,-0.0101,0.0,0.0,0.0,-0.2624,-0.3282,0.0,0.0,0.0,0.0,0.0,0.0,0.0,0.0,0.0,0.0,0.0,0.0,0.0,0.0,0.0,0.0,0.0,0.0,0.0,0.0,0.0,0.0,0.0,0.0,0.0,0.0,0.0,0.0,0.0,0.0,0.0,0.0,0.0,0.0,0.0,0.0,0.0,0.0,0.0,0.0,0.0,0.0,0.0,0.0,0.0,0.0,0.0,0.0,0.0,0.0,0.0,0.0,0.0,0.0,0.0,0.0,0.0,-0.1566,-0.1566,-0.1718,-0.2022,-0.217,-0.2472,-0.2775,-0.3282,0.0,0.0,0.0,0.0,0.0,0.0,0.0,0.0,0.0,0.0,0.0,0.0,0.0,0.0,0.0,0.0,0.0,0.0,0.0,0.0,0.0,0.0,0.0,0.0,0.0,0.0,0.0,0.0151,0.0,0.0,0.0,0.0,0.0,0.0,0.0,0.0,0.0,0.0,0.0,0.0,0.0,0.0,0.0808,0.0808,-0.0101,-0.0909,0.0,0.0,-0.2573,-0.3029,-0.3531,-0.3984,0.0,0.0,0.0,0.0,0.0,0.0,0.0,0.0,0.0,0.0,0.0,0.0,0.0,0.0,0.0,0.0,0.0,0.0,0.0,0.0,0.0,0.0,0.0,0.0,0.0,0.0,0.0,0.0,0.0,0.0,0.0,0.0,0.0,0.0,0.0,0.0,0.0,0.0,0.0,0.0,0.0,0.0,0.0,0.0,0.0,0.0,0.0,0.0,0.0,0.0,0.0,0.0,0.0,0.0,0.0,-0.1566,-0.1566,-0.1718,-0.2022,-0.2022,-0.2273,-0.2775,-0.3079,-0.3332,0.0,0.0,0.0,0.0,0.0,0.0,0.0,0.0,0.0,0.0,0.0,0.0,0.0,0.0,0.0,0.0,0.0,0.0,0.0,0.0,0.0,0.0,0.0,0.0,0.0,0.0,0.0,0.0,0.0,0.0,0.0,0.0,0.0,0.0,0.0,0.0,0.0,0.0,0.0,0.0,0.0,0.0808,0.0808,-0.0101,-0.0909,0.0,0.0,-0.2472,-0.2775,-0.3282,-0.3736,-0.3984,0.0,0.0,0.0,0.0,0.0,0.0,0.0,0.0,0.0,0.0,0.0,0.0,0.0,0.0,0.0,0.0,0.0,0.0,0.0,0.0,0.0,0.0,0.0,0.0,0.0,0.0,0.0,0.0,0.0,0.0,0.0,0.0,0.0,0.0,0.0,0.0,0.0,0.0,0.0,0.0,0.0,0.0,0.0,0.0,0.0,0.0,0.0,0.0,0.0,0.0,0.0,0.0,0.0,-0.1566,-0.1566,-0.1566,-0.1667,-0.1768,-0.192,-0.2123,-0.2273,-0.2726,-0.3079,0.0,0.0,0.0,0.0,0.0,0.0,0.0,0.0,0.0,0.0,0.0,0.0,0.0,0.0,0.0,0.0,0.0,0.0,0.0,0.0,0.0,0.0,0.0,0.0,0.0,0.0,0.0,0.0,0.096,0.1212,0.1566,0.0,0.0,0.0,0.0,0.0,0.0,0.0,0.0,0.0,0.0,0.0808,0.0808,-0.0101,0.0,0.0,-0.1766,-0.2422,-0.2522,-0.313,-0.3636,-0.3734,-0.3986,0.0,0.0,0.0,0.0,0.0,0.0,0.0,0.0,0.0,0.0,0.0,0.0,0.0,0.0,0.0,0.0,0.0,0.0,0.0,0.0,0.0,0.0,0.0,0.0,0.0,0.0,0.0,0.0,0.0,0.0,0.0,0.0,0.0,0.0,0.0,0.0,0.0,0.0,0.0,0.0,0.0,0.0,0.0,0.0,0.0,0.0,0.0,0.0,0.0,0.0,0.0,0.0,-0.1566,-0.1566,-0.1566,-0.1566,-0.1566,-0.1768,-0.192,-0.2022,-0.2373,-0.2675,0.0,0.0,0.0,0.0,0.0,0.0,0.0,0.0,0.0,0.0,0.0,0.0,0.0,0.0,0.0,0.0,0.0,0.0,0.0,0.0,0.0,0.0,0.0,0.0,0.0,0.0,0.0,0.0,0.1212,0.1516,0.1718,0.0,0.0,0.0,0.0,0.0,0.0,0.0,0.0,0.0,0.0,0.0859,0.0808,0.0,-0.0606,-0.0758,-0.1565,-0.2221,-0.2371,-0.2927,-0.3383,-0.3586,0.0,0.0,0.0,0.0,0.0,0.0,0.0,0.0,0.0,0.0,0.0,0.0,0.0,0.0,0.0,0.0,0.0,0.0,0.0,0.0,0.0,0.0,0.0,0.0,0.0,0.0,0.0,0.0,0.0,0.0,0.0,0.0,0.0,0.0,0.0,0.0,0.0,0.0,0.0,0.0,0.0,0.0,0.0,0.0,0.0,0.0,0.0,0.0,0.0,0.0,0.0,0.0,0.0,0.0,-0.1566,-0.1566,-0.1566,-0.1566,-0.1617,-0.1718,-0.1971,-0.2022,-0.2121,-0.2422,0.0,0.0,0.0,0.0,0.0,0.0,0.0,0.0,0.0,0.0,0.0,0.0,0.0,0.0,0.0,0.0,0.0,0.0,0.0,0.0,0.0,0.0,0.0,0.0,0.0,0.0,0.0808,0.1516,0.1971,0.0,0.0,0.0,0.0,0.0,0.0,0.0,0.0,0.0,0.0,0.1364,0.1111,0.0808,0.0353,-0.0202,-0.0707,-0.1263,-0.1818,-0.2321,-0.2624,-0.2978,0.0,0.0,0.0,0.0,0.0,0.0,0.0,0.0,0.0,0.0,0.0,0.0,0.0,0.0,0.0,0.0,0.0,0.0,0.0,0.0,0.0,0.0,0.0,0.0,0.0,0.0,0.0,0.0,0.0101,0.0,0.0,0.0,0.0,0.0,0.0,0.0,0.0,0.0,0.0,0.0,-0.0808,-0.0808,0.0,0.0,0.0,0.0,0.0,0.0,0.0,0.0,0.0,0.0,0.0,0.0,-0.1061,-0.1061,-0.1061,-0.1061,-0.1061,-0.1061,-0.1212,-0.1465,-0.1617,-0.1919,-0.2371,0.0,0.0,0.0,0.0,0.0,0.0,0.0,0.0,0.0,0.0,0.0,0.0,0.0,0.0,0.0,0.0,0.0,0.0,0.0,0.0,0.0,0.0,0.0,0.0,0.0,0.0909,0.0,0.0,0.0,0.0,0.0,0.0,0.0,0.0,0.0,0.0,0.0,0.1869,0.1869,0.1465,0.1111,0.0859,0.0353,-0.0151,0.0,0.0,0.0,0.0,0.0,0.0,0.0,0.0,0.0,0.0,0.0,0.0,0.0,0.0,-0.538,-0.5871,-0.6211,-0.6589,-0.7138,0.0,0.0,0.0,0.0,0.0,0.0,0.0,0.0,0.0,0.0,0.0,0.0,0.0,0.0,0.0,0.0,0.0353,0.0,0.0,0.0,0.0,0.0,0.0,0.0,0.0,-0.0505,-0.0556,-0.0505,-0.0505,-0.0505,0.0,-0.0505,-0.0455,0.0,0.0,0.0,0.0,0.0,0.0,0.0,0.0,-0.0808,-0.0808,-0.0808,-0.0808,-0.0808,-0.0808,-0.0909,-0.1061,-0.1212,-0.1515,-0.1968,-0.2221,-0.2423,0.0,0.0,0.0,0.0,0.0,0.0,0.0,0.0,0.0,0.0,0.0,0.0,0.0,0.0,0.0,0.0,0.0,0.0,0.0,0.0,0.0,0.0,0.0,0.1364,0.0,0.0,0.0,0.0,0.0,0.0,0.0,0.0,0.0,0.2422,0.2271,0.2121,0.2121,0.1768,0.1364,0.1111,0.0,0.0,0.0,0.0,0.0,0.0,0.0,-0.2221,-0.2472,-0.2573,-0.2826,-0.3232,-0.3533,-0.3833,-0.4088,0.0,0.0,-0.5557,-0.5907,-0.6253,-0.6734,-0.7122,-0.7552,-0.8084,-0.8514,-0.8897,0.0,0.0,0.0,0.0,0.0,0.0,0.0,0.0,0.0859,0.0809,0.0,0.0808,0.0,0.0,0.0,0.0,0.0,0.0,0.0,0.0,0.0,0.005,0.005,0.005,0.005,0.0,0.005,0.0151,0.0353,-0.0353,0.0,0.0,0.0,0.0,0.0,0.0,-0.0758,-0.0707,-0.0707,-0.0758,-0.0707,-0.0758,-0.0758,-0.0808,-0.0808,-0.096,-0.1212,-0.1465,-0.1716,-0.1967,-0.2219,0.0,0.0,0.0,0.0,0.0,0.0,0.0,0.0,0.0,0.0,0.0,0.0,0.0,0.0,0.0,0.0,0.0,0.0,0.0,0.0,0.1162,0.0,0.0,0.0,0.0,0.0,0.0,0.0,0.0,0.0,0.0,0.2573,0.2422,0.2422,0.2422,0.0,0.0,0.0,0.0,0.0909,0.0151,0.0,-0.0303,-0.101,-0.1364,-0.1666,-0.1917,0.0,0.0,-0.2775,-0.2978,-0.3282,-0.3536,-0.3833,-0.421,-0.4918,-0.5638,-0.6085,-0.6069,-0.6797,-0.7416,-0.7543,-0.8264,-0.8922,0.4029,0.0,0.0,0.0,0.0,0.2315,0.2188,0.2008,0.1595,0.1431,0.1364,0.096,0.0,0.0,0.0,0.0,0.0,0.0,0.0556,0.0556,0.0556,0.0556,0.0556,0.0556,0.0556,0.0556,0.0556,0.0606,0.0657,0.0455,0.0353,0.0353,0.0,0.0,0.0,0.0,0.0353,0.0353,0.0353,0.0353,0.0303,0.0151,-0.0151,-0.0505,-0.0707,-0.0808,-0.0909,-0.096,-0.1061,-0.1161,-0.1212,0.0,0.0,0.0,0.0,0.0,0.0,0.0,0.0,0.0,0.0,0.0,0.0,0.0,0.0,0.0,0.0,0.0,0.0,0.0,0.1212,0.1817,0.2371,0.0,0.0,0.0,0.0,0.0,0.0,0.0,0.0,0.0,0.353,0.3026,0.2675,0.0,0.0,0.212,0.1667,0.1516,0.1263,0.0657,0.0,0.0,0.0,-0.0707,-0.1111,-0.1363,-0.1817,-0.2219,-0.2472,-0.2573,-0.2775,-0.323,-0.338,-0.3624,-0.4207,-0.4798,-0.541,-0.6001,-0.6359,-0.6807,-0.7385,-0.7875,-0.838,0.4869,0.4233,0.3778,0.3392,0.3119,0.2992,0.286,0.2673,0.2236,0.201,0.1939,0.157,0.1414,0.1414,0.1313,0.0,0.0,0.0,0.1111,0.1111,0.111,0.1111,0.111,0.1111,0.1111,0.1111,0.1111,0.1161,0.1262,0.1262,0.1313,0.1414,0.0,0.0,0.0808,0.0808,0.0808,0.0808,0.0808,0.0808,0.0808,0.0657,0.0404,0.0101,-0.0101,-0.0151,-0.0151,-0.0252,-0.0303,-0.0303,-0.0404,-0.0556,0.0,0.0,0.0,0.0,0.0,0.0,0.0,0.0,0.0,0.0,0.0,-0.1061,-0.0505,0.0,0.0,0.0,0.0808,0.1364,0.202,0.2473,0.0,0.0,0.0,0.0,0.0,0.0,0.0,0.4187,0.4234,0.4284,0.4135,0.3732,0.333,0.313,0.2876,0.2574,0.2121,0.0,0.1716,0.1212,0.0859,0.0556,0.0353,-0.005,-0.0455,-0.0808,-0.1212,-0.1665,-0.2019,-0.207,-0.227,-0.2725,-0.2876,-0.3027,-0.3581,-0.3932,-0.4472,-0.5461,-0.5989,-0.6453,-0.6964,-0.753,-0.8089,0.5708,0.5419,0.4794,0.4327,0.3991,0.3713,0.342,0.3093,0.2781,0.26,0.259,0.2496,0.2425,0.2371,0.2118,0.0,0.0,0.1664,0.1664,0.1664,0.1664,0.1664,0.1664,0.1664,0.1664,0.1664,0.1664,0.1815,0.2068,0.2068,0.2219,0.2422,0.1464,0.096,0.0909,0.096,0.0909,0.0909,0.096,0.0909,0.0909,0.0909,0.0909,0.0859,0.0859,0.0808,0.0808,0.0556,0.0455,0.0404,0.0202,-0.005,-0.0303,0.0,0.0,0.0,0.0,0.0,0.0,0.0,0.0,0.0,0.0,0.0,0.0,0.0,0.0,0.0,0.1364,0.0,0.2775,0.3079,0.0,0.0,0.0,0.4083,0.4133,0.4336,0.4487,0.4487,0.0,0.0,0.0,0.0,0.4288,0.3786,0.3484,0.318,0.2876,0.2624,0.2271,0.1768,0.1667,0.1465,0.101,0.0657,0.0252,-0.0252,-0.0556,-0.0909,-0.1364,-0.1516,-0.1717,-0.2221,-0.2321,-0.2472,-0.3029,-0.318,-0.3481,-0.4481,-0.5482,-0.6282,-0.647,-0.7217,-0.7974,0.6161,0.6102,0.5913,0.5289,0.4398,0.4268,0.4176,0.4021,0.3786,0.3458,0.3165,0.2944,0.271,0.2422,0.2321,0.227,0.2219,0.2219,0.2219,0.2219,0.2219,0.2219,0.2219,0.2219,0.2219,0.2219,0.2219,0.2371,0.2623,0.2623,0.2725,0.2978,0.2775,0.2424,0.2018,0.2018,0.2018,0.2018,0.2018,0.1917,0.1716,0.1716,0.1615,0.1412,0.1212,0.1111,0.1111,0.0859,0.0707,0.0707,0.0657,0.0606,0.0556,0.0505,0.0,0.0,0.0,0.0,0.0,0.0,0.0,0.0,0.0,0.0252,0.0606,0.0,0.1262,0.0,0.227,0.2877,0.3079,0.3531,0.0,0.0,0.4585,0.4784,0.5186,0.5286,0.5336,0.5336,0.5386,0.5386,0.5336,0.5336,0.5186,0.4839,0.4236,0.3731,0.3428,0.3179,0.2877,0.2524,0.217,0.1866,0.1716,0.1313,0.0808,0.0303,0.0,-0.0303,-0.0606,-0.0859,-0.1162,-0.1667,-0.1819,-0.1969,-0.2472,-0.2927,-0.323,-0.3581,-0.4433,-0.5436,-0.6237,-0.6939,-0.7577,0.6495,0.6439,0.633,0.5938,0.5264,0.5037,0.4792,0.4586,0.4332,0.4038,0.3777,0.356,0.331,0.3127,0.3075,0.3126,0.3126,0.3127,0.3126,0.3126,0.3126,0.3126,0.3127,0.3126,0.3126,0.3127,0.3126,0.3176,0.3328,0.3328,0.3429,0.3581,0.3531,0.338,0.3127,0.2875,0.2775,0.2775,0.2624,0.2522,0.2371,0.2269,0.2118,0.1967,0.1817,0.1716,0.1716,0.1615,0.1515,0.1515,0.1515,0.1464,0.1363,0.1313,0.1262,0.0,0.0,0.0,0.0,0.0,0.0,0.0,0.0,0.0,0.0,0.0,0.1917,0.0,0.2976,0.0,0.3734,0.4133,0.4535,0.4935,0.5188,0.5436,0.5737,0.5887,0.5987,0.6139,0.6187,0.6187,0.6139,0.6139,0.5989,0.5591,0.5138,0.4636,0.4083,0.3732,0.3481,0.3177,0.2924,0.2622,0.2421,0.1917,0.1414,0.101,0.0707,0.0404,0.005,-0.0151,-0.0455,-0.096,-0.1061,-0.1263,-0.1918,-0.2272,-0.2575,-0.3027,-0.358,-0.4433,-0.5436,-0.6337,-0.7074,0.6826,0.6771,0.6495,0.6386,0.633,0.5764,0.5373,0.5037,0.4746,0.4557,0.4411,0.415,0.4034,0.3984,0.3984,0.3984,0.3984,0.3984,0.4034,0.4034,0.4034,0.4083,0.4083,0.4133,0.4083,0.4133,0.4133,0.4133,0.4133,0.4133,0.4183,0.4234,0.4183,0.4234,0.4182,0.3732,0.343,0.3281,0.3077,0.2976,0.2977,0.2724,0.2623,0.2622,0.2572,0.2572,0.2572,0.2522,0.2522,0.2472,0.2472,0.2371,0.2169,0.2169,0.2068,0.0,0.1816,0.0,0.0,0.0,0.0,0.0,0.0,0.0,0.0,0.2169,0.2521,0.3281,0.3581,0.3981,0.4437,0.4786,0.5087,0.534,0.5789,0.6092,0.6142,0.6387,0.6637,0.6892,0.7039,0.7089,0.6942,0.6892,0.6692,0.6242,0.6095,0.5739,0.4939,0.4437,0.4083,0.3778,0.3677,0.3377,0.2976,0.2472,0.2069,0.1818,0.1465,0.1161,0.0707,0.0556,0.0353,-0.0101,-0.0303,-0.0556,-0.1313,-0.1465,-0.1768,-0.2473,-0.2876,-0.3481,-0.4582,-0.5615,-0.6426,0.744,0.7385,0.7157,0.6879,0.6604,0.6492,0.6325,0.6049,0.5975,0.5589,0.4992,0.4561,0.4237,0.3984,0.3984,0.3984,0.3984,0.3984,0.4085,0.4338,0.4338,0.4435,0.4634,0.4634,0.4634,0.4634,0.4634,0.4736,0.4989,0.4939,0.5087,0.5284,0.5286,0.5286,0.0,0.0,0.0,0.0,0.3781,0.3781,0.3781,0.3731,0.3681,0.3681,0.3478,0.0,0.3376,0.3179,0.3029,0.3029,0.3029,0.0,0.0,0.0,0.0,0.0,0.0,0.0,0.0,0.0,0.0,0.0,0.3226,0.3025,0.2675,0.3075,0.3528,0.4137,0.4435,0.4686,0.4989,0.5491,0.5892,0.6137,0.6442,0.6742,0.6939,0.7235,0.7381,0.7431,0.7686,0.7736,0.7484,0.7431,0.7335,0.7039,0.6792,0.6595,0.6342,0.5541,0.4887,0.4636,0.4232,0.3831,0.3528,0.3177,0.2876,0.2574,0.217,0.1866,0.1665,0.1313,0.096,0.0606,0.0404,0.005,-0.0505,-0.0808,-0.1111,-0.1718,-0.2221,-0.2925,-0.4183,-0.5122,-0.5894,0.7826,0.0,0.7657,0.7487,0.0,0.7324,0.7215,0.694,0.6495,0.6046,0.5571,0.5171,0.4937,0.4784,0.4784,0.4784,0.4786,0.4784,0.4885,0.4989,0.4987,0.5087,0.5186,0.5186,0.5186,0.5186,0.5186,0.5338,0.5593,0.5591,0.5741,0.5984,0.5987,0.5987,0.5987,0.5984,0.5586,0.4784,0.4636,0.4587,0.4587,0.4485,0.4384,0.4384,0.0,0.0,0.0,0.0,0.0,0.0,0.0,0.0,0.0,0.0,0.0,0.3984,0.3982,0.3982,0.3982,0.3982,0.4033,0.4182,0.4282,0.4183,0.363,0.4083,0.4485,0.4788,0.514,0.5489,0.5789,0.6139,0.6542,0.6936,0.7238,0.7487,0.7736,0.7978,0.8127,0.8226,0.8382,0.8432,0.8226,0.8177,0.8077,0.7832,0.7686,0.7487,0.7138,0.6289,0.5489,0.5236,0.4885,0.4537,0.4384,0.4034,0.3682,0.343,0.3075,0.2723,0.2422,0.217,0.1868,0.1463,0.1161,0.0808,0.0303,0.0,-0.0353,-0.0908,-0.1353,-0.1941,-0.3032,-0.4092,-0.5107,0.8156,0.8152,0.8045,0.7992,0.7992,0.7992,0.7867,0.7569,0.0,0.0,0.0,0.578,0.5636,0.5636,0.5636,0.5687,0.5687,0.5687,0.5784,0.5837,0.5787,0.5837,0.5884,0.5887,0.5887,0.5884,0.5884,0.5987,0.6192,0.6189,0.6342,0.6537,0.6587,0.6637,0.6686,0.6686,0.6437,0.6034,0.5641,0.5438,0.5391,0.5186,0.5085,0.5083,0.5083,0.5085,0.5085,0.5085,0.5085,0.5085,0.5083,0.5085,0.5085,0.5085,0.5085,0.5085,0.5085,0.5085,0.5085,0.5085,0.5085,0.5083,0.5338,0.524,0.474,0.509,0.5391,0.5491,0.5942,0.6339,0.6584,0.6889,0.7241,0.768,0.8035,0.8287,0.8485,0.8722,0.892,0.9023,0.9225,0.9229,0.9023,0.9023,0.8928,0.868,0.8581,0.8432,0.7829,0.6836,0.6092,0.5889,0.5589,0.5391,0.529,0.4939,0.4535,0.4234,0.3932,0.358,0.3228,0.3026,0.2774,0.237,0.2019,0.1667,0.1212,0.0855,0.0503,-0.0101,-0.0396,-0.0829,-0.17,-0.2863,-0.403,0.8813,0.8702,0.8208,0.7992,0.7992,0.7992,0.7923,0.7699,0.7057,0.6566,0.6358,0.6037,0.5789,0.5636,0.5839,0.5942,0.5992,0.6187,0.6387,0.0,0.6642,0.6742,0.6986,0.6989,0.6989,0.6986,0.6989,0.6989,0.7036,0.7039,0.7039,0.7135,0.7332,0.7534,0.7739,0.7789,0.7739,0.764,0.6739,0.6237,0.6237,0.6187,0.6184,0.6187,0.6187,0.6187,0.6184,0.6184,0.6184,0.6184,0.6184,0.6184,0.6187,0.6184,0.6184,0.6184,0.6187,0.6187,0.6187,0.6187,0.6184,0.6184,0.6442,0.6342,0.5842,0.5842,0.6092,0.6542,0.6839,0.7135,0.7431,0.7882,0.818,0.8333,0.8733,0.9038,0.9133,0.9525,0.9817,0.9821,1.0064,1.0117,0.9867,0.9821,0.9719,0.9525,0.9426,0.9229,0.8627,0.7487,0.6745,0.6592,0.6389,0.6139,0.5989,0.5639,0.5338,0.5087,0.4638,0.4336,0.4185,0.3831,0.3527,0.3376,0.2972,0.2569,0.2216,0.1942,0.1432,0.0788,0.0388,-0.0095,-0.0799,-0.1685,-0.2655,0.9368,0.9368,0.9096,0.8985,0.8978,0.8571,0.8336,0.8202,0.7466,0.7064,0.6943,0.6768,0.6589,0.6487,0.6589,0.6639,0.6639,0.6789,0.6889,0.7039,0.7042,0.7089,0.7188,0.7335,0.7385,0.7434,0.7587,0.7736,0.7836,0.7836,0.7932,0.8081,0.818,0.8379,0.8638,0.8638,0.8737,0.8832,0.7836,0.7288,0.7288,0.7288,0.7238,0.7285,0.7288,0.7288,0.7285,0.7288,0.7288,0.7288,0.7235,0.7288,0.7288,0.7288,0.7288,0.7238,0.7288,0.7288,0.7288,0.7288,0.7288,0.7288,0.7388,0.749,0.7534,0.7135,0.7039,0.7391,0.769,0.7982,0.8226,0.8584,0.8931,0.9274,0.9624,0.9871,1.0068,1.0413,1.0659,1.0654,1.0752,1.0801,1.0654,1.0654,1.0605,1.0462,1.0265,0.992,0.9665,0.8924,0.8084,0.759,0.7338,0.7135,0.6886,0.6637,0.6387,0.6092,0.5641,0.5238,0.5087,0.4734,0.4483,0.4228,0.3802,0.3429,0.3225,0.269,0.213,0.1687,0.1236,0.0748,0.0093,-0.0826,-0.2138,1.0088,1.0088,0.9978,0.9849,0.9691,0.9101,0.8855,0.8743,0.8098,0.7782,0.7687,0.7331,0.7235,0.7285,0.7335,0.7434,0.7484,0.7537,0.7587,0.7584,0.7587,0.7537,0.7587,0.7783,0.7879,0.7879,0.8137,0.8386,0.8581,0.8634,0.8829,0.9023,0.9072,0.9225,0.948,0.948,0.9579,0.9723,0.8977,0.8485,0.8386,0.8386,0.834,0.8386,0.8386,0.8336,0.8386,0.8336,0.8336,0.8336,0.8389,0.8386,0.8386,0.8386,0.8336,0.8336,0.8336,0.834,0.8389,0.8336,0.8336,0.8386,0.8336,0.8584,0.9023,0.8574,0.8276,0.8386,0.863,0.8878,0.9171,0.9426,0.9727,1.0216,1.0511,1.0757,1.1047,1.1292,1.1487,1.1536,1.1541,1.1585,1.1541,1.1536,1.159,1.1492,1.1149,1.0855,1.0708,1.0364,0.9673,0.8977,0.8535,0.8237,0.7928,0.768,0.7434,0.7141,0.6592,0.6239,0.5984,0.5722,0.5404,0.509,0.463,0.4242,0.413,0.3499,0.2938,0.255,0.2096,0.1515,0.0733,-0.0227,-0.166,1.0966,1.0907,1.0472,0.9945,0.9574,0.9365,0.9164,0.9087,0.8936,0.8834,0.856,0.764,0.7385,0.758,0.7839,0.8038,0.8283,0.8528,0.8627,0.8627,0.8627,0.8673,0.8623,0.8673,0.8673,0.8718,0.8966,0.9057,0.9103,0.9361,0.9616,0.9871,0.9867,1.0006,1.0261,1.0261,1.031,1.0314,1.0216,0.9969,0.9476,0.943,0.9426,0.948,0.9426,0.943,0.9426,0.9476,0.943,0.948,0.948,0.948,0.9426,0.948,0.943,0.948,0.9426,0.9426,0.943,0.9426,0.9426,0.948,0.9476,0.9727,1.0212,1.0212,0.992,0.9673,0.9723,0.9969,1.0212,1.0511,1.0752,1.1096,1.1345,1.1585,1.1878,1.2127,1.237,1.2613,1.2613,1.2662,1.2662,1.2608,1.2662,1.2662,1.237,1.2073,1.1873,1.158,1.1292,1.0797,1.0162,0.9324,0.8871,0.8673,0.8428,0.7988,0.7434,0.7173,0.695,0.6538,0.6087,0.6025,0.5509,0.5109,0.4939,0.4463,0.3802,0.3516,0.2924,0.2114,0.1034,0.0269,-0.0851,1.1623,1.161,1.1125,1.07,1.0302,1.0019,0.9851,0.9778,0.9523,0.9341,0.9232,0.8779,0.8528,0.8329,0.8428,0.8531,0.8627,0.8726,0.8878,0.9034,0.9034,0.913,0.9266,0.9307,0.9312,0.9348,0.9504,0.955,0.9594,0.9784,1.0018,1.0256,1.0303,1.0505,1.0812,1.0869,1.1027,1.134,1.134,1.1243,1.0949,1.0408,1.0167,1.0265,1.0314,1.0408,1.0511,1.056,1.0556,1.056,1.056,1.0556,1.056,1.056,1.056,1.0556,1.056,1.056,1.056,1.056,1.0556,1.056,1.0708,1.0953,1.1296,1.1492,1.1536,1.1438,1.1047,1.0855,1.1292,1.1438,1.1683,1.2078,1.237,1.2516,1.2613,1.3044,1.3329,1.3426,1.3576,1.3673,1.3678,1.3673,1.3673,1.3673,1.348,1.3232,1.313,1.2791,1.2452,1.2306,1.1824,1.1096,1.0207,0.9817,0.9567,0.9209,0.8645,0.8195,0.7983,0.7588,0.7162,0.7022,0.6479,0.6076,0.6024,0.5382,0.4761,0.4394,0.3713,0.2823,0.1794,0.1211,0.0269,1.2297,1.2201,1.1712,1.1306,1.1046,1.0597,1.0414,1.0401,1.0024,0.9826,0.9821,0.9821,0.9673,0.9369,0.9225,0.9171,0.9221,0.9221,0.9324,0.9525,0.9485,0.9555,0.9779,0.9796,0.9845,0.9918,1.0043,1.0111,1.02,1.0431,1.0611,1.0796,1.0888,1.1064,1.1395,1.1415,1.1584,1.197,1.2047,1.2083,1.1991,1.1409,1.11,1.1149,1.1194,1.134,1.1536,1.1585,1.1634,1.1634,1.1634,1.1639,1.1634,1.1639,1.1634,1.1639,1.1634,1.1634,1.1634,1.1639,1.1683,1.1727,1.1927,1.2165,1.2457,1.2705,1.2948,1.3098,1.2554,1.2311,1.2311,1.2414,1.2657,1.3147,1.334,1.3431,1.3528,1.3962,1.4238,1.4334,1.4532,1.4723,1.4723,1.4723,1.4729,1.4682,1.4538,1.4388,1.4286,1.3992,1.3746,1.3655,1.3474,1.2754,1.1536,1.1096,1.0792,1.0312,0.9763,0.9348,0.9052,0.8562,0.8227,0.7977,0.7387,0.7047,0.6898,0.6311,0.5641,0.5191,0.4565,0.3719,0.2868,0.2286,0.1569,1.2986,1.2815,1.2174,1.1709,1.1414,1.101,1.0775,1.0833,1.0516,1.0359,1.0413,1.0408,1.0511,1.0654,1.0212,1.0113,1.0265,1.0301,1.0293,1.028,1.0127,1.0145,1.0362,1.0173,1.0209,1.0482,1.067,1.0936,1.1181,1.1375,1.1533,1.1563,1.1766,1.1941,1.1962,1.1962,1.1967,1.214,1.2323,1.2431,1.2447,1.2587,1.2436,1.2101,1.217,1.2322,1.2419,1.2613,1.271,1.2716,1.271,1.2716,1.2716,1.271,1.2716,1.271,1.271,1.271,1.2759,1.2759,1.2851,1.298,1.3076,1.327,1.3709,1.3854,1.4004,1.4244,1.4394,1.4196,1.3703,1.3559,1.3709,1.4154,1.425,1.4394,1.4586,1.4867,1.5105,1.5343,1.5581,1.573,1.573,1.5737,1.573,1.573,1.573,1.5629,1.5432,1.5337,1.5188,1.4997,1.4723,1.4112,1.2748,1.2211,1.1887,1.1441,1.1053,1.0537,1.0036,0.9563,0.9245,0.8935,0.8467,0.8082,0.7786,0.7282,0.6656,0.6074,0.5453,0.4694,0.4026,0.3494,0.2777,1.324,1.2786,1.2526,1.2183,1.1801,1.1619,1.1585,1.1585,1.1492,1.1438,1.1438,1.1438,1.1487,1.1536,1.1536,1.1292,1.0939,1.0722,1.0759,1.088,1.0688,1.073,1.0944,1.0882,1.0915,1.0985,1.1122,1.1271,1.1541,1.1756,1.1937,1.2113,1.2327,1.2539,1.269,1.2719,1.2794,1.2905,1.3015,1.3101,1.3297,1.3379,1.3491,1.3655,1.3293,1.3281,1.3624,1.3721,1.3769,1.3775,1.3769,1.3769,1.3769,1.3769,1.3775,1.3775,1.3769,1.3817,1.3968,1.4016,1.4154,1.4376,1.4519,1.4615,1.4854,1.5146,1.5432,1.5534,1.5778,1.5771,1.5663,1.514,1.486,1.5201,1.5255,1.5397,1.5635,1.5913,1.615,1.6379,1.6622,1.6763,1.677,1.677,1.6763,1.6763,1.6763,1.6716,1.6622,1.652,1.6426,1.6332,1.6096,1.5657,1.4924,1.3702,1.2936,1.2662,1.2245,1.1659,1.1095,1.082,1.0529,1.0137,0.9664,0.9345,0.9034,0.8376,0.7749,0.7132,0.6511,0.5894,0.5184,0.4694,0.3981,1.3462,1.3007,1.2946,1.2757,1.2478,1.237,1.237,1.2322,1.2273,1.2268,1.2273,1.2273,1.2273,1.2355,1.2437,1.2357,1.1897,1.1522,1.1375,1.1422,1.1211,1.1243,1.1484,1.1554,1.1575,1.1646,1.1717,1.1843,1.2057,1.232,1.2534,1.2717,1.3003,1.3224,1.3399,1.3424,1.3473,1.3623,1.3767,1.3951,1.4148,1.427,1.4534,1.4904,1.4536,1.4354,1.4657,1.4723,1.4771,1.4777,1.4777,1.4777,1.4777,1.4777,1.4819,1.4867,1.4914,1.501,1.5255,1.5309,1.5439,1.5717,1.5906,1.6048,1.6143,1.6567,1.6763,1.6857,1.7044,1.7279,1.7318,1.6936,1.6567,1.6386,1.6339,1.648,1.6655,1.699,1.7279,1.7559,1.7792,1.7885,1.7932,1.7971,1.8017,1.8017,1.801,1.8017,1.7971,1.7839,1.7692,1.7684,1.7309,1.6946,1.6373,1.5406,1.4248,1.3826,1.3384,1.2815,1.2353,1.2057,1.1763,1.1365,1.0977,1.0679,1.0159,0.9506,0.8934,0.8364,0.7749,0.7129,0.6511,0.5938,0.5267,1.3768,1.3574,1.3491,1.3508,1.3394,1.3195,1.3098,1.3098,1.2905,1.2905,1.291,1.2861,1.2942,1.3043,1.2908,1.298,1.3152,1.2662,1.2272,1.2027,1.1756,1.1777,1.1987,1.2038,1.2189,1.2447,1.2625,1.2699,1.2741,1.3173,1.3434,1.3476,1.3886,1.4117,1.4144,1.4151,1.413,1.426,1.4541,1.4786,1.487,1.5251,1.5581,1.5866,1.5857,1.5718,1.5461,1.5643,1.5738,1.5792,1.5818,1.5825,1.5872,1.5818,1.5961,1.619,1.6237,1.6332,1.6581,1.6629,1.6763,1.7044,1.7232,1.7412,1.7638,1.7932,1.8125,1.8172,1.8342,1.8481,1.8565,1.8804,1.8573,1.7606,1.7552,1.7738,1.7824,1.8149,1.8527,1.8765,1.9042,1.9188,1.9234,1.9309,1.9392,1.9384,1.9392,1.9392,1.9392,1.9263,1.9225,1.9031,1.8627,1.8126,1.7658,1.7092,1.5951,1.5009,1.4496,1.3987,1.3623,1.3294,1.3082,1.2729,1.2437,1.2095,1.1413,1.0761,1.0284,0.9715,0.9061,0.8452,0.7921,0.7349,0.6691,1.4576,1.431,1.4304,1.4202,1.4064,1.3962,1.3913,1.3913,1.3871,1.3865,1.3817,1.3817,1.3778,1.3714,1.3696,1.3701,1.3631,1.3574,1.3258,1.28,1.2479,1.2406,1.2518,1.2704,1.2924,1.3307,1.3548,1.3682,1.3737,1.4068,1.4314,1.4398,1.4776,1.4977,1.4985,1.4985,1.5061,1.5208,1.5322,1.554,1.5883,1.6022,1.6357,1.6748,1.6779,1.6855,1.6959,1.669,1.6529,1.649,1.6696,1.6904,1.7084,1.7084,1.7232,1.7466,1.752,1.7606,1.7831,1.8017,1.8249,1.8488,1.8711,1.8842,1.898,1.9209,1.9446,1.96,1.982,1.9994,2.0167,2.0311,1.9903,1.8773,1.8804,1.9026,1.9247,1.9621,1.9894,2.0039,2.0275,2.0411,2.0456,2.0529,2.0619,2.061,2.0574,2.0583,2.0538,2.0583,2.0456,2.0376,1.9834,1.9372,1.8938,1.8515,1.7729,1.67,1.5992,1.5375,1.4965,1.4678,1.4468,1.4132,1.3795,1.333,1.2693,1.2137,1.1703,1.1192,1.0621,1.0014,0.9366,0.8755,0.8225,1.5267,1.5118,1.5118,1.5016,1.4873,1.4873,1.4873,1.4854,1.4712,1.4669,1.4656,1.4556,1.4425,1.4314,1.4299,1.4276,1.4241,1.4309,1.4163,1.3892,1.3401,1.3215,1.3252,1.3555,1.3857,1.4195,1.444,1.4608,1.4615,1.4999,1.52,1.5284,1.5692,1.5899,1.5899,1.5974,1.6049,1.6188,1.6345,1.6591,1.6845,1.6968,1.7163,1.7448,1.7564,1.7712,1.7907,1.7751,1.7557,1.7407,1.7659,1.7965,1.8156,1.8295,1.8481,1.8719,1.8858,1.8996,1.9209,1.9484,1.9666,1.9857,2.0121,2.0348,2.0385,2.061,2.0926,2.1078,2.1204,2.1338,2.1481,2.1695,2.1382,2.0791,2.0348,2.0393,2.0664,2.1024,2.1248,2.1338,2.1561,2.173,2.1784,2.1952,2.1996,2.2041,2.2041,2.2041,2.1996,2.2006,2.1861,2.1632,2.1096,2.0659,2.0292,1.9893,1.9465,1.8547,1.7644,1.6934,1.6345,1.6165,1.5959,1.5504,1.5123,1.4713,1.4077,1.3662,1.3233,1.2681,1.2211,1.1612,1.1004,1.0453,0.9879,1.5872,1.5879,1.5852,1.5826,1.5819,1.5792,1.5759,1.5752,1.5484,1.5357,1.5304,1.5137,1.5015,1.4921,1.4747,1.4847,1.5076,1.4944,1.5076,1.5104,1.4727,1.4349,1.4265,1.4566,1.4908,1.5159,1.536,1.5477,1.5519,1.5948,1.617,1.6245,1.6566,1.6771,1.6845,1.696,1.7074,1.7245,1.7529,1.7732,1.7853,1.7983,1.8121,1.8146,1.8339,1.8437,1.8524,1.8895,1.8818,1.8275,1.8635,1.8879,1.9026,1.9352,1.9683,2.0,2.024,2.0501,2.0718,2.0934,2.1114,2.1159,2.1552,2.1819,2.1863,2.2129,2.2394,2.2482,2.2526,2.257,2.2702,2.2965,2.3129,2.3086,2.2208,2.1828,2.2148,2.2403,2.2526,2.2614,2.2921,2.3226,2.3226,2.3564,2.3737,2.379,2.379,2.378,2.379,2.3601,2.3335,2.2941,2.249,2.2034,2.1699,2.1273,2.0888,2.0518,1.9592,1.8771,1.7908,1.7626,1.735,1.6895,1.656,1.6075,1.5628,1.524,1.4866,1.4483,1.3937,1.3275,1.2681,1.2163,1.1606,1.6904,1.6882,1.6654,1.6561,1.6472,1.6287,1.6195,1.618,1.6109,1.6008,1.6031,1.5981,1.5768,1.5568,1.5483,1.5589,1.578,1.5752,1.5955,1.6278,1.6147,1.5726,1.5443,1.5575,1.5824,1.6064,1.627,1.6435,1.6591,1.6894,1.7139,1.7302,1.7546,1.7749,1.7861,1.7934,1.8175,1.8434,1.8594,1.8825,1.9045,1.9134,1.9244,1.9402,1.9432,1.9471,1.9511,1.9781,1.9756,1.934,1.9359,1.9677,2.0004,2.0419,2.0808,2.1186,2.1546,2.1854,2.1978,2.2287,2.2517,2.2614,2.2955,2.3226,2.3226,2.3357,2.3617,2.3844,2.3973,2.4102,2.437,2.4584,2.4691,2.4734,2.3943,2.3313,2.34,2.3714,2.393,2.4016,2.437,2.4584,2.4701,2.4861,2.5073,2.5105,2.5189,2.5316,2.5316,2.5284,2.5039,2.4509,2.4043,2.3536,2.3119,2.2679,2.2392,2.2306,2.1649,2.0797,1.9827,1.9018,1.863,1.8189,1.8141,1.777,1.7366,1.696,1.6593,1.6216,1.5688,1.5101,1.4531,1.3979,1.3474,1.7477,1.7462,1.7266,1.7183,1.716,1.6942,1.6875,1.6844,1.6716,1.67,1.6677,1.6541,1.6375,1.6193,1.6247,1.6414,1.6639,1.6738,1.6943,1.7221,1.7294,1.6919,1.6468,1.6599,1.6853,1.6968,1.7212,1.7408,1.757,1.791,1.8112,1.8264,1.8545,1.8736,1.8847,1.9054,1.9213,1.9499,1.9657,1.9932,2.0109,2.0226,2.0343,2.0459,2.0537,2.0615,2.0808,2.1011,2.0801,2.0292,2.031,2.0628,2.0986,2.1389,2.1767,2.2113,2.2474,2.2745,2.3137,2.3466,2.3728,2.3998,2.4392,2.4648,2.4734,2.4819,2.5084,2.5295,2.5348,2.5505,2.5799,2.6049,2.6246,2.6359,2.5933,2.5389,2.4893,2.5126,2.5326,2.5495,2.5799,2.6102,2.6133,2.6318,2.6442,2.6524,2.6689,2.673,2.676,2.6778,2.661,2.6029,2.5558,2.5131,2.4596,2.4109,2.395,2.3854,2.354,2.2754,2.1704,2.0672,2.0187,1.9836,1.9728,1.9492,1.9088,1.8643,1.8284,1.7883,1.7407,1.696,1.6421,1.5928,1.5377,1.783,1.783,1.779,1.7775,1.7767,1.7735,1.7639,1.7639,1.7368,1.7249,1.7235,1.6964,1.6941,1.6853,1.7098,1.7302,1.7595,1.7749,1.7942,1.8184,1.8345,1.8167,1.7642,1.7691,1.7853,1.7974,1.8287,1.8447,1.8616,1.8953,1.9152,1.9301,1.9608,1.9766,1.9913,2.0196,2.0352,2.0508,2.0818,2.1059,2.1165,2.1318,2.1471,2.1548,2.17,2.1901,2.2166,2.2354,2.2056,2.0972,2.1371,2.163,2.1908,2.2312,2.2646,2.2899,2.3194,2.3564,2.4102,2.4392,2.4759,2.5227,2.5721,2.6069,2.6141,2.6381,2.6588,2.6753,2.6734,2.6917,2.7139,2.7464,2.7747,2.7947,2.8119,2.7678,2.6987,2.6712,2.6794,2.6976,2.7255,2.7487,2.7678,2.7867,2.8028,2.8004,2.8176,2.8295,2.8362,2.8457,2.8028,2.733,2.6966,2.6687,2.6105,2.5558,2.5487,2.544,2.5204,2.453,2.3444,2.251,2.1952,2.1583,2.141,2.1143,2.0759,2.0372,2.0012,1.9709,1.9376,1.8872,1.8395,1.7946,1.7446,1.8818,1.8793,1.8541,1.8414,1.8372,1.807,1.7919,1.796,1.7885,1.7859,1.7817,1.7742,1.7829,1.7942,1.8014,1.8264,1.8594,1.8714,1.8913,1.9292,1.9657,1.9726,1.9362,1.9103,1.8944,1.9134,1.9244,1.949,1.9766,1.9932,2.0128,2.0479,2.0586,2.0779,2.1098,2.1318,2.1548,2.1711,2.1949,2.2166,2.2317,2.2505,2.2692,2.2841,2.3027,2.3176,2.3298,2.3471,2.3522,2.325,2.273,2.2583,2.2831,2.3202,2.3571,2.388,2.4248,2.4596,2.4954,2.5217,2.5645,2.6257,2.6588,2.7006,2.7574,2.7654,2.7919,2.8183,2.8315,2.841,2.8755,2.8885,2.9147,2.9447,2.955,2.9628,2.9473,2.8794,2.8371,2.8462,2.87,2.8937,2.9003,2.9318,2.9473,2.9524,2.9679,2.9871,2.9986,3.005,2.9512,2.8803,2.8617,2.8261,2.7451,2.6963,2.6963,2.6896,2.6714,2.651,2.5425,2.4518,2.4003,2.3517,2.3099,2.2802,2.252,2.2194,2.191,2.1628,2.1334,2.0854,2.0372,1.9954,1.9524,1.9194,1.9185,1.9014,1.8926,1.8899,1.8722,1.8585,1.8625,1.8634,1.8585,1.8625,1.8705,1.8816,1.8935,1.9094,1.9341,1.9578,1.9824,2.0128,2.0469,2.0712,2.0915,2.1049,2.0663,2.043,2.0352,2.043,2.0634,2.0799,2.0982,2.1203,2.1482,2.1634,2.1901,2.2176,2.2419,2.2606,2.2841,2.3102,2.3313,2.3423,2.368,2.39,2.4082,2.4311,2.4455,2.4551,2.4755,2.4898,2.4814,2.4445,2.3986,2.3863,2.4101,2.4471,2.4736,2.5048,2.5448,2.5763,2.6005,2.6356,2.7069,2.7334,2.7853,2.8374,2.8649,2.9042,2.9462,2.9665,2.9781,3.0216,3.0456,3.0632,3.082,3.1007,3.1209,3.12,3.0406,2.9742,2.9896,3.0114,3.0342,3.0532,3.0769,3.0869,3.0981,3.1143,3.1304,3.1429,3.1419,3.0998,3.0495,3.0315,2.9808,2.8847,2.8414,2.84,2.8349,2.8206,2.8122,2.7624,2.6811,2.6074,2.5449,2.4779,2.4625,2.435,2.4074,2.3809,2.3579,2.3275,2.2855,2.2435,2.2066,2.1662,1.9499,1.9499,1.9499,1.9499,1.9499,1.9499,1.949,1.949,1.9529,1.9578,1.9578,1.9756,1.9874,1.9962,2.0245,2.0401,2.0634,2.0972,2.1367,2.1568,2.1759,2.1949,2.2128,2.2166,2.2042,2.1461,2.152,2.1683,2.1873,2.2111,2.2279,2.244,2.2729,2.3027,2.3224,2.3471,2.368,2.3875,2.419,2.4432,2.4504,2.4791,2.5063,2.5323,2.5464,2.5639,2.5802,2.5975,2.6161,2.6195,2.6333,2.5975,2.551,2.517,2.537,2.5571,2.5819,2.6156,2.6545,2.6788,2.7094,2.7726,2.803,2.8513,2.9103,2.9479,2.9932,3.0494,3.0852,3.1206,3.1516,3.1856,3.206,3.2218,3.2484,3.2651,3.2554,3.1803,3.1636,3.1378,3.1549,3.1733,3.1965,3.2169,3.2277,3.2384,3.2591,3.2712,3.2818,3.2779,3.24,3.1951,3.1702,3.1101,3.0154,2.9785,2.9754,2.9723,2.9676,2.9583,2.9535,2.901,2.8158,2.7051,2.6454,2.6305,2.6133,2.5867,2.5646,2.5519,2.5227,2.4815,2.4459,2.4159,2.3761,2.0372,2.0372,2.0372,2.0401,2.0401,2.0372,2.0362,2.0401,2.0557,2.0634,2.0663,2.0857,2.1011,2.1185,2.1233,2.1454,2.1825,2.2193,2.2429,2.259,2.2804,2.3065,2.3176,2.3446,2.3534,2.3412,2.3054,2.2804,2.2927,2.3075,2.3324,2.3593,2.3827,2.4082,2.4335,2.4551,2.4802,2.5016,2.5288,2.5464,2.5639,2.5941,2.6252,2.6573,2.6688,2.679,2.6947,2.7136,2.7317,2.7464,2.763,2.765,2.7458,2.6888,2.6663,2.671,2.6879,2.7126,2.7424,2.7559,2.7988,2.8526,2.8786,2.9236,2.9835,3.0231,3.0674,3.1408,3.2113,3.2678,3.3073,3.3185,3.3512,3.3699,3.3837,3.4022,3.4104,3.4041,3.3599,3.3163,3.3164,3.3178,3.3408,3.3581,3.3705,3.3828,3.3964,3.4081,3.4197,3.4161,3.3981,3.3483,3.3007,3.2256,3.1412,3.1234,3.1145,3.113,3.1072,3.0984,3.0925,3.0867,3.0168,2.9157,2.8276,2.7867,2.7716,2.7584,2.7406,2.72,2.6966,2.671,2.6425,2.6093,2.5773,2.1213,2.1223,2.1223,2.1213,2.1223,2.1339,2.1377,2.1405,2.1596,2.1672,2.1749,2.1901,2.209,2.2252,2.2402,2.2628,2.3038,2.3313,2.3534,2.368,2.39,2.4082,2.419,2.4491,2.4707,2.4767,2.4504,2.4143,2.407,2.4263,2.4419,2.4623,2.4898,2.5217,2.5429,2.5639,2.5896,2.6139,2.6414,2.6607,2.6744,2.7048,2.7384,2.765,2.7829,2.7927,2.8157,2.8338,2.8454,2.8597,2.8803,2.8962,2.8935,2.8762,2.8344,2.8097,2.8111,2.8241,2.8403,2.8546,2.8825,2.9242,2.9421,2.9873,3.0466,3.0867,3.1303,3.2042,3.2606,3.3268,3.3699,3.4036,3.4442,3.4919,3.516,3.5307,3.5546,3.577,3.5443,3.4907,3.4732,3.4721,3.4846,3.5011,3.5142,3.5257,3.5372,3.5437,3.5533,3.5512,3.5459,3.453,3.3943,3.3231,3.2564,3.2441,3.2348,3.2364,3.2364,3.2305,3.2235,3.2164,3.1942,3.1359,3.0572,2.9714,2.932,2.9199,2.9024,2.8898,2.8712,2.8538,2.8263,2.7952,2.7631,2.2025,2.2035,2.2063,2.2101,2.2149,2.2338,2.2402,2.244,2.2628,2.2703,2.274,2.2964,2.3176,2.3324,2.3545,2.3838,2.4166,2.4371,2.4587,2.4755,2.4969,2.5146,2.5288,2.5534,2.5779,2.6022,2.6057,2.5814,2.5252,2.5335,2.5511,2.5756,2.6035,2.6333,2.6539,2.6676,2.696,2.7263,2.7517,2.7716,2.798,2.8189,2.8481,2.8789,2.8867,2.9026,2.931,2.9484,2.9594,2.9718,2.9886,3.0115,3.0192,3.0418,3.0222,2.9594,2.9467,2.9498,2.956,2.9687,2.9825,3.0095,3.016,3.063,3.1101,3.1545,3.1962,3.2651,3.3223,3.3663,3.4222,3.4529,3.5094,3.5768,3.6153,3.6476,3.6722,3.698,3.7139,3.6747,3.6369,3.6214,3.6276,3.6275,3.6415,3.66,3.6676,3.6721,3.6828,3.7008,3.6686,3.5521,3.4693,3.4107,3.3664,3.3569,3.3505,3.3505,3.3505,3.3463,3.3437,3.3386,3.3161,3.2945,3.2528,3.1723,3.1287,3.0793,3.0601,3.0468,3.0451,3.0301,2.9986,2.9683,2.9395,2.2852,2.2889,2.3038,2.3113,2.315,2.3335,2.3409,2.3446,2.3629,2.3714,2.3776,2.4093,2.4299,2.4407,2.4695,2.4909,2.5158,2.5382,2.5581,2.5779,2.6022,2.6195,2.6311,2.662,2.6913,2.7136,2.725,2.6879,2.6492,2.6402,2.6517,2.679,2.7116,2.7371,2.7504,2.7716,2.7993,2.8287,2.8371,2.8693,2.9202,2.939,2.9591,2.9839,3.0023,3.0176,3.0343,3.0554,3.0673,3.0792,3.0955,3.1116,3.1306,3.1436,3.158,3.1334,3.1014,3.0628,3.0673,3.0807,3.094,3.1087,3.1276,3.1495,3.1864,3.2428,3.2918,3.3402,3.3921,3.4363,3.4705,3.4998,3.559,3.6124,3.6654,3.7176,3.7652,3.7802,3.8033,3.8427,3.8036,3.7783,3.7671,3.7645,3.7648,3.7838,3.7982,3.8007,3.8012,3.8116,3.81,3.6973,3.5931,3.5251,3.4863,3.4748,3.4576,3.4592,3.4576,3.4576,3.4535,3.4495,3.4487,3.4235,3.3906,3.3512,3.2872,3.2431,3.2176,3.197,3.1842,3.176,3.1662,3.1389,3.1055,2.436,2.3961,2.4034,2.4107,2.4107,2.4299,2.4371,2.4443,2.4718,2.4862,2.4921,2.5158,2.5406,2.5581,2.5861,2.607,2.6277,2.6414,2.662,2.6799,2.7035,2.7217,2.7397,2.7663,2.7947,2.803,2.8306,2.8468,2.8065,2.7743,2.7716,2.7848,2.8222,2.8532,2.8583,2.8821,2.9089,2.9359,2.9563,2.9917,3.0283,3.0494,3.0644,3.0881,3.0999,3.1189,3.1392,3.1608,3.1779,3.1892,3.2046,3.217,3.2336,3.2473,3.2598,3.2707,3.2598,3.2241,3.1836,3.1949,3.2018,3.2114,3.2308,3.2489,3.2742,3.3173,3.3597,3.373,3.4128,3.4611,3.5097,3.5347,3.5942,3.6501,3.693,3.76,3.8154,3.8529,3.8778,3.9276,3.9689,3.938,3.91,3.8956,3.8918,3.8951,3.9086,3.9149,3.9023,3.8887,3.8807,3.8544,3.7503,3.6558,3.6237,3.6005,3.5638,3.5587,3.5554,3.5554,3.557,3.5548,3.5487,3.5481,3.529,3.4865,3.4349,3.3847,3.3364,3.324,3.3166,3.3072,3.2977,3.2801,3.2455,2.5918,2.5381,2.5182,2.5063,2.5099,2.5323,2.5441,2.5476,2.5804,2.5943,2.6013,2.6208,2.6471,2.6756,2.696,2.7129,2.7364,2.7497,2.7683,2.7868,2.7944,2.8013,2.8084,2.8307,2.8349,2.8522,2.8608,2.8881,2.9087,2.9119,2.8952,2.8935,2.9247,2.9529,2.9777,2.9948,3.0147,3.048,3.0748,3.1043,3.1291,3.1493,3.165,3.1849,3.2018,3.2185,3.2407,3.2629,3.2765,3.2911,3.3029,3.3161,3.3293,3.3423,3.3553,3.3656,3.3707,3.363,3.3224,3.3093,3.3055,3.3161,3.3329,3.3495,3.3716,3.4018,3.4259,3.4374,3.4513,3.4915,3.5308,3.562,3.614,3.6669,3.7116,3.7821,3.8454,3.887,3.9344,3.9853,4.0328,4.0827,4.0532,4.0307,4.0177,4.0103,4.0153,4.0235,4.0095,3.9898,3.9765,3.9698,3.9217,3.8153,3.7446,3.7141,3.6811,3.6585,3.6588,3.6478,3.6474,3.6419,3.6343,3.6378,3.6416,3.6172,3.5662,3.509,3.4568,3.4431,3.4317,3.4309,3.4219,3.4038,3.3838,2.7196,2.7255,2.6427,2.6104,2.6117,2.644,2.6577,2.6564,2.6803,2.6926,2.6981,2.7224,2.7472,2.7749,2.7755,2.7918,2.8317,2.8403,2.8479,2.8587,2.8688,2.8502,2.85,2.8429,2.8381,2.857,2.8814,2.8971,2.9211,2.9881,2.9958,3.006,3.0242,3.0375,3.0599,3.094,3.1232,3.1564,3.1806,3.2061,3.2272,3.2465,3.2641,3.2841,3.3002,3.3177,3.3308,3.3507,3.3678,3.379,3.3917,3.4052,3.4202,3.4317,3.4423,3.4553,3.4633,3.4657,3.4544,3.4185,3.4084,3.4193,3.435,3.4512,3.4681,3.4816,3.5021,3.5214,3.5305,3.5453,3.5707,3.5909,3.6406,3.6807,3.7283,3.7799,3.8528,3.9289,3.9791,4.039,4.0963,4.1555,4.1785,4.1512,4.1155,4.1076,4.1116,4.119,4.1281,4.1112,4.0959,4.0824,4.0683,3.9858,3.8673,3.8323,3.824,3.7921,3.7707,3.7491,3.7329,3.7276,3.719,3.7152,3.7152,3.7075,3.6958,3.635,3.5848,3.5604,3.5464,3.5369,3.5188,3.4944,3.4832,2.8137,2.8254,2.7947,2.7564,2.7222,2.731,2.741,2.751,2.7696,2.7927,2.8057,2.7975,2.8053,2.8204,2.7923,2.7953,2.8212,2.8242,2.8494,2.8604,2.8611,2.8656,2.8727,2.8881,2.8987,2.9037,2.923,2.9505,2.9905,3.0259,3.0411,3.0579,3.1012,3.1476,3.1707,3.1931,3.2281,3.2544,3.2734,3.2926,3.3208,3.3419,3.3585,3.3662,3.3917,3.4077,3.4235,3.4309,3.4496,3.4642,3.4754,3.4897,3.5045,3.5138,3.5253,3.5357,3.5448,3.556,3.5621,3.5207,3.4897,3.5091,3.5253,3.5413,3.5577,3.571,3.5842,3.5989,3.6079,3.6207,3.6367,3.6471,3.673,3.7065,3.7449,3.7923,3.8554,3.9345,4.0162,4.0711,4.1622,4.2444,4.2596,4.2655,4.23,4.2011,4.2071,4.2151,4.2198,4.2241,4.2016,4.1862,4.1707,4.1462,4.0346,3.9968,3.9734,3.9301,3.8851,3.8707,3.8491,3.8038,3.7965,3.793,3.7861,3.7773,3.7632,3.7415,3.7041,3.6568,3.6381,3.6336,3.6107,3.5878,3.5779,2.8669,2.8754,2.8619,2.8425,2.8222,2.8235,2.8212,2.8192,2.8357,2.8487,2.8646,2.8354,2.8396,2.8462,2.8295,2.8226,2.8512,2.8583,2.8737,2.8845,2.8923,2.8884,2.9039,2.9113,2.9076,2.934,2.9536,2.9714,2.9912,3.0298,3.0538,3.0914,3.154,3.2002,3.2319,3.2913,3.3293,3.3481,3.3636,3.3723,3.4059,3.4259,3.4488,3.4537,3.4738,3.4887,3.5035,3.5128,3.526,3.5436,3.5566,3.5661,3.5793,3.5907,3.5994,3.6122,3.6232,3.6295,3.6312,3.6075,3.5749,3.5924,3.602,3.6207,3.6371,3.6495,3.658,3.6724,3.6821,3.6917,3.7054,3.717,3.7265,3.7572,3.7684,3.8097,3.869,3.9409,4.0275,4.1053,4.2087,4.316,4.3301,4.3354,4.3105,4.2792,4.2716,4.281,4.2922,4.2959,4.2978,4.2814,4.2686,4.2427,4.2058,4.1546,4.1001,4.0434,4.0088,4.0067,3.9808,3.9305,3.892,3.8935,3.8814,3.8522,3.8314,3.813,3.779,3.7377,3.7229,3.7117,3.7038,3.6816,3.6755,2.8691,2.8697,2.8234,2.8402,2.8969,2.9188,2.8951,2.8584,2.8707,2.8663,2.8498,2.8454,2.8581,2.8734,2.8669,2.8756,2.8976,2.9131,2.9307,2.9407,2.9194,2.9245,2.9206,2.9115,2.9193,2.9108,2.9351,2.9594,2.9687,3.0362,3.0702,3.1027,3.1618,3.2273,3.2361,3.3469,3.4093,3.43,3.4529,3.4642,3.4785,3.5008,3.5241,3.5407,3.5509,3.5644,3.5798,3.5847,3.5994,3.6178,3.6262,3.635,3.6519,3.6557,3.6661,3.6841,3.6862,3.696,3.7113,3.6759,3.6698,3.6719,3.6781,3.6919,3.7071,3.7167,3.7265,3.7396,3.7469,3.7578,3.7703,3.7826,3.7912,3.8032,3.815,3.834,3.8948,3.9721,4.0606,4.1509,4.2726,4.3744,4.3921,4.398,4.3802,4.3605,4.3439,4.3457,4.356,4.361,4.3592,4.3603,4.3467,4.3347,4.3061,4.2776,4.2282,4.169,4.1369,4.1374,4.1115,4.0611,4.0285,4.0078,3.9723,3.9415,3.9135,3.8896,3.8533,3.8207,3.7978,3.7842,3.7791,3.7721,3.7614,2.8814,2.8913,2.8794,2.8997,2.9276,2.8928,2.877,2.8785,2.8956,2.9022,2.8967,2.8776,2.8767,2.8862,2.8712,2.8713,2.8849,2.8922,2.9095,2.9354,2.928,2.9328,2.935,2.9494,2.9467,2.9572,2.9722,2.9903,3.02,3.064,3.0731,3.0986,3.1815,3.2541,3.329,3.4237,3.4904,3.5131,3.5253,3.5368,3.5532,3.5766,3.5958,3.6092,3.6182,3.6329,3.6478,3.6539,3.6658,3.6836,3.6858,3.6978,3.7151,3.7189,3.7283,3.7432,3.7487,3.7578,3.7774,3.7703,3.765,3.7559,3.7468,3.756,3.7721,3.7792,3.7896,3.8033,3.8065,3.8167,3.8298,3.8346,3.8426,3.86,3.8725,3.8796,3.929,4.0178,4.1082,4.2031,4.3121,4.3988,4.443,4.4481,4.436,4.4252,4.4102,4.3974,4.4008,4.4069,4.408,4.4158,4.4142,4.4125,4.3971,4.3685,4.3629,4.3301,4.2912,4.2723,4.2372,4.1906,4.1651,4.1413,4.0827,4.0296,4.0038,3.9748,3.9378,3.9054,3.8762,3.8496,3.8357,3.833,3.8302,2.888,2.9,2.891,2.8978,2.9121,2.8986,2.8952,2.8919,2.8963,2.9026,2.9009,2.885,2.8882,2.8956,2.8847,2.8732,2.8889,2.9028,2.9182,2.9393,2.9506,2.9687,2.9902,3.0027,3.0156,3.0241,3.0372,3.0597,3.076,3.0841,3.1035,3.1419,3.2088,3.3073,3.3944,3.4733,3.5367,3.564,3.5881,3.6037,3.6228,3.6412,3.6557,3.6678,3.6818,3.6937,3.7091,3.7186,3.7245,3.7376,3.7487,3.7596,3.7703,3.7809,3.7896,3.7999,3.8117,3.8216,3.8412,3.8504,3.8426,3.8296,3.8167,3.8167,3.8314,3.8364,3.8476,3.8569,3.8615,3.8703,3.8807,3.8822,3.8923,3.9115,3.9178,3.9259,3.9618,4.0506,4.1541,4.2485,4.3535,4.4336,4.4865,4.4914,4.4888,4.4814,4.4745,4.4617,4.449,4.4498,4.4519,4.4604,4.4662,4.4644,4.4651,4.4613,4.4625,4.4802,4.441,4.3905,4.3698,4.3252,4.2998,4.2654,4.2013,4.1423,4.0999,4.0624,4.0252,3.9842,3.9452,3.9203,3.8975,3.8865,3.8844,2.8864,2.9007,2.8486,2.8411,2.8654,2.9342,2.9446,2.9063,2.8706,2.8604,2.8581,2.8936,2.9123,2.9183,2.9266,2.9448,2.9595,2.975,2.9897,3.0049,3.0182,3.0368,3.0493,3.0654,3.0781,3.0958,3.1081,3.1181,3.1353,3.1506,3.1693,3.2015,3.263,3.3591,3.4409,3.5048,3.5654,3.6214,3.6536,3.6681,3.686,3.6939,3.7131,3.7264,3.7394,3.7523,3.7649,3.7703,3.7827,3.7948,3.8068,3.8186,3.8269,3.8368,3.8446,3.8541,3.868,3.8844,3.8942,3.9041,3.9124,3.9022,3.8832,3.8807,3.8826,3.8884,3.897,3.9036,3.9091,3.9187,3.9266,3.9331,3.9395,3.9483,3.9568,3.9753,4.0011,4.0855,4.1927,4.3012,4.4194,4.4927,4.5137,4.5237,4.5231,4.5222,4.5182,4.512,4.5011,4.4941,4.4957,4.5023,4.5065,4.5095,4.5117,4.5121,4.5132,4.5143,4.5151,4.477,4.4633,4.4462,4.4151,4.3685,4.3092,4.2529,4.1959,4.151,4.1146,4.075,4.0477,3.9804,3.9552,3.9337,3.9272,2.8812,2.895,2.8991,2.9013,2.913,2.9571,2.9571,2.9257,2.9122,2.9136,2.9303,2.9477,2.9633,2.976,2.9941,3.0092,3.0241,3.0368,3.0551,3.0695,3.0804,3.0925,3.1064,3.1237,3.1372,3.1506,3.1637,3.1749,3.1948,3.2144,3.2301,3.2558,3.2871,3.3839,3.4761,3.5365,3.6148,3.6833,3.717,3.7282,3.7431,3.7541,3.7685,3.7809,3.7949,3.8053,3.8103,3.8201,3.8316,3.8412,3.8541,3.8649,3.8766,3.8829,3.8873,3.8998,3.9156,3.9277,3.935,3.9427,3.9502,3.9611,3.9513,3.9414,3.9383,3.9344,3.9395,3.9427,3.952,3.958,3.9663,3.9721,3.9769,3.9835,3.9918,4.0114,4.0498,4.1464,4.2536,4.3531,4.47,4.5237,4.5447,4.5484,4.5491,4.5545,4.5563,4.5518,4.5455,4.5362,4.5321,4.5361,4.5371,4.5371,4.5429,4.5448,4.5448,4.5448,4.5429,4.5419,4.5276,4.5112,4.5083,4.4738,4.4153,4.3491,4.2818,4.2455,4.2247,4.2018,4.1714,4.0842,4.0133,3.9936,3.9708,2.909,2.9273,2.947,2.9627,2.9744,3.0027,3.0049,2.9881,2.975,2.9788,2.9946,3.0092,3.0236,3.0405,3.0539,3.0703,3.0821,3.0982,3.1137,3.124,3.1391,3.1524,3.1656,3.1785,3.1895,3.2038,3.2144,3.2283,3.2471,3.2672,3.2848,3.2941,3.3016,3.4148,3.52,3.5876,3.6635,3.7406,3.7879,3.7862,3.7966,3.8069,3.8186,3.8302,3.8451,3.8496,3.8575,3.8661,3.8737,3.884,3.8946,3.9027,3.9151,3.9192,3.9298,3.9427,3.9526,3.9623,3.9693,3.9773,3.9862,3.9948,4.002,3.9981,3.9867,3.9783,3.9783,3.9813,3.9876,3.9948,4.001,4.007,4.011,4.0148,4.029,4.044,4.1248,4.2172,4.3126,4.408,4.4834,4.5433,4.5685,4.5708,4.5737,4.5766,4.5807,4.5794,4.5711,4.5618,4.5569,4.5596,4.5616,4.5624,4.5668,4.5676,4.5648,4.5648,4.564,4.564,4.5676,4.5637,4.5475,4.5359,4.5194,4.4508,4.3794,4.3663,4.3474,4.3188,4.2853,4.2198,4.1301,4.052,4.0279,2.9677,2.9897,3.0,3.0199,3.0414,3.0654,3.0797,3.0845,3.0563,3.0477,3.0576,3.0695,3.0855,3.0978,3.1103,3.124,3.1391,3.156,3.1674,3.1769,3.1896,3.2056,3.2197,3.2318,3.242,3.2538,3.2653,3.2781,3.2923,3.3096,3.325,3.335,3.3669,3.4608,3.5875,3.6358,3.7209,3.8303,3.8491,3.8412,3.8428,3.8525,3.8634,3.8773,3.8848,3.8873,3.8989,3.9059,3.9096,3.9205,3.9298,3.9376,3.9477,3.9568,3.9705,3.9785,3.9873,3.9948,4.001,4.009,4.0139,4.0204,4.0278,4.0302,4.0239,4.012,4.0072,4.0101,4.0167,4.0232,4.0304,4.0339,4.0362,4.0411,4.0516,4.0877,4.1603,4.2707,4.3947,4.4794,4.5324,4.5841,4.5867,4.5872,4.5902,4.5983,4.6014,4.6005,4.5964,4.5848,4.5809,4.5808,4.5787,4.5787,4.5794,4.5801,4.5801,4.5801,4.5821,4.5821,4.5821,4.5801,4.5801,4.5685,4.5569,4.5337,4.4872,4.4718,4.4459,4.4092,4.3769,4.3446,4.2686,4.1739,4.1295,3.0246,3.0489,3.0675,3.0878,3.1064,3.1254,3.1351,3.1411,3.1507,3.1355,3.1179,3.1254,3.137,3.1468,3.162,3.1766,3.1912,3.2056,3.2197,3.23,3.242,3.2519,3.2669,3.2782,3.2912,3.3021,3.3126,3.3258,3.3404,3.3555,3.3675,3.3835,3.4333,3.539,3.6431,3.6915,3.796,3.9045,3.9055,3.8942,3.8898,3.8884,3.896,3.9087,3.9156,3.9205,3.9311,3.942,3.9489,3.9575,3.9647,3.9747,3.9867,3.9948,4.0011,4.011,4.0158,4.0223,4.0286,4.0356,4.0414,4.045,4.0515,4.0571,4.0549,4.0406,4.0345,4.0403,4.0442,4.05,4.0557,4.0586,4.0621,4.0655,4.0817,4.1402,4.203,4.3397,4.4783,4.5343,4.585,4.5988,4.6027,4.6051,4.6098,4.613,4.6158,4.6166,4.6142,4.6069,4.5988,4.5982,4.5964,4.5958,4.5939,4.5939,4.5939,4.5939,4.5958,4.5958,4.5939,4.5939,4.5939,4.5958,4.5861,4.5667,4.5609,4.5687,4.5395,4.4968,4.4697,4.4414,4.4139,4.3357,4.29,3.074,3.0978,3.1193,3.1389,3.1562,3.171,3.1819,3.1911,3.2073,3.2056,3.1859,3.1857,3.1893,3.1984,3.2144,3.2249,3.2369,3.252,3.2654,3.2768,3.2894,3.3003,3.3111,3.3217,3.3335,3.3469,3.3606,3.3757,3.385,3.3959,3.4073,3.429,3.5052,3.5951,3.6833,3.7685,3.8571,3.9389,3.9446,3.9439,3.935,3.9292,3.9292,3.9401,3.9464,3.9508,3.9623,3.9724,3.9804,3.9892,3.9958,4.007,4.0148,4.0205,4.0258,4.0328,4.0378,4.0465,4.0527,4.0586,4.0635,4.0655,4.0674,4.0705,4.0773,4.0655,4.0616,4.0649,4.0636,4.0681,4.0705,4.0729,4.0757,4.0804,4.1466,4.2184,4.3276,4.4636,4.5423,4.5778,4.6087,4.6123,4.6138,4.613,4.6167,4.6164,4.6212,4.6198,4.6198,4.622,4.6157,4.6134,4.6088,4.6078,4.6089,4.6089,4.6089,4.6089,4.6069,4.6089,4.6069,4.6089,4.6089,4.6069,4.6069,4.605,4.605,4.6089,4.6089,4.5719,4.5525,4.5365,4.5094,4.4842,4.4503,3.1218,3.143,3.1618,3.182,3.1984,3.2126,3.2214,3.2318,3.2489,3.2589,3.2605,3.2455,3.2489,3.254,3.2639,3.2703,3.2814,3.2972,3.3083,3.319,3.3321,3.3422,3.3541,3.3671,3.3762,3.3876,3.4049,3.4093,3.4154,3.4269,3.4445,3.4705,3.5484,3.6385,3.7257,3.8108,3.9009,3.9554,3.9781,3.9807,3.9762,3.9693,3.967,3.9693,3.9762,3.9826,3.9903,4.0007,4.0068,4.0158,4.0243,4.0323,4.0372,4.0403,4.0473,4.0533,4.0575,4.0629,4.07,4.0775,4.0796,4.0809,4.0815,4.084,4.0902,4.0902,4.0878,4.0849,4.0835,4.0811,4.0849,4.0863,4.0904,4.1229,4.2057,4.2997,4.4332,4.555,4.5901,4.6174,4.6203,4.6215,4.622,4.6209,4.6219,4.621,4.6216,4.62,4.6204,4.6223,4.6218,4.6212,4.6204,4.6187,4.618,4.6174,4.617,4.617,4.6151,4.617,4.619,4.6174,4.6154,4.6174,4.617,4.617,4.617,4.617,4.617,4.619,4.6014,4.58,4.5813,4.5643,4.5835,3.1857,3.2055,3.2249,3.237,3.2471,3.2537,3.2654,3.277,3.2932,3.2993,3.3039,3.3178,3.3162,3.2914,3.2959,3.305,3.3199,3.3364,3.3498,3.3601,3.3703,3.3815,3.3921,3.4023,3.4136,3.4257,3.4374,3.4431,3.4544,3.4628,3.4994,3.5614,3.6554,3.7457,3.8331,3.9072,3.9624,3.9975,4.0008,4.0039,4.004,3.9979,3.9943,3.9965,4.0017,4.0078,4.0158,4.0243,4.0307,4.0377,4.0457,4.0534,4.0566,4.0589,4.0655,4.0718,4.0748,4.0782,4.0844,4.0907,4.0939,4.0932,4.0933,4.094,4.1,4.1016,4.1007,4.1007,4.0984,4.0944,4.0967,4.0951,4.1026,4.1741,4.2524,4.3667,4.4922,4.5625,4.6113,4.6214,4.6238,4.6261,4.6264,4.6269,4.6273,4.6257,4.6258,4.6261,4.6265,4.6265,4.6266,4.6265,4.6264,4.6235,4.6199,4.6212,4.621,4.621,4.621,4.623,4.623,4.621,4.621,4.621,4.621,4.6191,4.621,4.623,4.621,4.621,4.621,4.6152,4.6206,4.6219,4.6184]}]]